     2              OBSERVATION DATA    GPS                 RINEX VERSION / TYPE
teqc 2000Jul20 Karen Wendt 20030613 20:52:31UTC             PGM / RUN BY / DATE
                                                            COMMENT
L2: 1 -> 1; 150 -> 5; 250 -> 9                              COMMENT
L2: 1 -> 1; 150 -> 5; 250 -> 9                              COMMENT
L2: 1 -> 1; 150 -> 5; 250 -> 9                              COMMENT
L2: 1 -> 1; 150 -> 5; 250 -> 9                              COMMENT
L2: 1 -> 1; 150 -> 5; 250 -> 9                              COMMENT
L2: 1 -> 1; 150 -> 5; 250 -> 9                              COMMENT
L2: 1 -> 1; 150 -> 5; 250 -> 9                              COMMENT
L2: 1 -> 1; 150 -> 5; 250 -> 9                              COMMENT
L2: 1 -> 1; 150 -> 5; 250 -> 9                              COMMENT
L2: 1 -> 1; 150 -> 5; 250 -> 9                              COMMENT
L2: 1 -> 1; 150 -> 5; 250 -> 9                              COMMENT
L2: 1 -> 1; 150 -> 5; 250 -> 9                              COMMENT
L2: 1 -> 1; 150 -> 5; 250 -> 9                              COMMENT
L2: 1 -> 1; 150 -> 5; 250 -> 9                              COMMENT
Original Marker Name: l166 L_166_1933_USC&GS                COMMENT
Campaign Name: USGS Death Valley 2003                       COMMENT
4-Character Station Name: L166                              COMMENT
6-Character Antenna Code: DMRCHT                            COMMENT
Vertical Measurement Point: BCR                             COMMENT
Vertical Offset to Rinex Ref. Point: 0.0348                 COMMENT
Radial Measurement Point: ECF                               COMMENT
Radial Offset to Rinex Ref. Point: 0.1897                   COMMENT
Antenna Height from Field Measurement: 1.3190 m             COMMENT
Additional Antenna Identification Info.:                    COMMENT
Turborogue and Ashtech Choke Ring                           COMMENT
Original XYZ: -2381342.6282 -4564866.3736 3753892.8784      COMMENT
New XYZ position is based on association with SCEC monument COMMENT
E1F4Q7S4+0011. Position of that monument is believed to be  COMMENT
valid to within 1 m horizontally; vertical accuracy         COMMENT
should be no worse than 3-times this value.                 COMMENT
                                                            COMMENT
Revised Rinex header created by UCSD GPS archive for        COMMENT
GSAC on 20-Apr-2005 (2005:110) 16:32:33 GMT                 COMMENT
For assistance contact dagnew@ucsd.edu                      COMMENT
or anderson@python.ucsd.edu                                 COMMENT
                                                            COMMENT
L166 1933                                                   MARKER NAME
JMS US GEOLOGICAL SURVEY                                    OBSERVER / AGENCY
LP019992804 ASHTECH Z-XII3 CD00                             REC # / TYPE / VERS
CR620022605 DORNE-MARGOL. TYPE T                            ANT # / TYPE
 -2381356.0000 -4564837.0000  3753878.0000                  APPROX POSITION XYZ
        1.2705        0.0000        0.0000                  ANTENNA: DELTA H/E/N
     1     1     0                                          WAVELENGTH FACT L1/2
     5    C1    L1    L2    P1    P2                        # / TYPES OF OBSERV
    30                                                      INTERVAL
  2003     6     5    16     2   30.000000                  TIME OF FIRST OBS
  2003     6     5    22    35   30.000000                  TIME OF LAST OBS
                                                            END OF HEADER
 03  6  5 16  2 30.0000000  0  7G17G30G29G18G10G21G 6
  21283821.316     -134002.00959    -95759.57747  21283820.827    21283825.157
  21717838.298      181222.00959    129171.62447  21717838.983
  21717842.616     -197768.23759   -132935.75943
  24655918.589     -327852.97459   -238211.37645  24655918.663    24655923.976
  21521143.978      137003.87059     98796.53347                  21521142.933
  21521147.171     -196398.97859   -143005.46843
  20640253.272     -133229.05759    -95631.98148  20640253.180    20640256.583
 03  6  5 16  3  0.0000000  0  8G17G30G29G18G10G21G 6G26
  21275165.912     -179485.57549   -131201.31747  21275165.619    21275169.915
  21730746.584      249053.12249    182026.98847  21730746.777
  21730750.468     -272063.12449    -12063.49043
  24632493.534     -450946.28249   -334128.17645  24632492.920    24632499.882
  21531089.056      189265.41049    139519.78247                  21531088.098
  21531092.271     -265030.15149    -31656.03546                  22000126.918
  20630973.258     -181997.47249   -133633.34048  20630972.865    20630976.252
                   -328146.02759   -236897.55544                  23918994.113
 03  6  5 16  3 30.0000000  0  8G17G30G29G18G10G21G 6G26
  21238741.259     -370899.00549   -280354.63347  21238740.846    21238745.140
  21715911.473      171094.27249    121279.78447  21715911.707
  21715915.390     -492241.94749   -183631.76443                  23639213.958
  24581268.970     -720133.73449   -543884.55245  24581269.561    24581275.043
  21513309.724       95834.67349     66716.58147  21513308.836    21513312.983
  21959290.706     -479613.66549   -198863.94347  21959290.410    21959293.091
  20593938.426     -376616.50949   -285284.53548  20593938.113    20593941.522
  23871104.942     -579745.90549   -432949.31045  23871108.146    23871114.349
 03  6  5 16  4  0.0000000  0  8G17G30G29G18G10G21G 6G26
  21232535.436     -403511.03249   -305766.59547  21232534.992    21232539.280
  21731321.260      252073.32749    184380.30047  21731321.519    21731325.242
  23627539.447     -553570.09449   -231419.74845  23627540.594    23627544.499
  24560232.702     -830681.52149   -630025.66745  24560232.844    24560238.599
  21525793.983      161440.15049    117837.71047  21525793.163    21525797.322
  21948671.552     -535418.20849   -242347.98647  21948671.221    21948673.880
  20587137.848     -412353.08949   -313131.21548  20587137.651    20587141.078
  23853418.703     -672694.52249   -505376.71745  23853419.501    23853426.770
 03  6  5 16  4 30.0000000  0  8G17G30G29G18G10G21G 6G26
  21226373.604     -435891.71249   -330998.28647  21226373.128    21226377.438
  21746800.791      333418.86949    247766.38447  21746801.063    21746804.813
  23615923.289     -614613.95449   -278986.33745  23615922.797    23615929.819
  24539210.179     -941156.60949   -716110.14545  24539210.228    24539215.652
  21538366.727      227510.37549    169320.97747  21538365.919    21538370.075
  21938092.286     -591012.60949   -285668.26547  21938091.925    21938094.612
  20580397.349     -447774.65949   -340732.43448  20580397.178    20580400.604
  23835747.850     -765557.84249   -577737.64845  23835748.375    23835755.482
 03  6  5 16  5  0.0000000  0  8G17G30G29G18G10G21G 6G26
  21220256.020     -468039.89849   -356048.81847  21220255.563    21220259.872
  21762349.751      415129.17749    311436.70047  21762350.028    21762353.810
  23604361.878     -675369.72449   -326328.48745  23604362.320    23604367.648
  24518201.889    -1051555.80349   -802135.49145  24518201.892    24518207.293
  21551027.673      294044.11949    221165.42947  21551026.914    21551031.070
  21927553.199     -646396.02649   -328824.15047  21927552.811    21927555.494
  20573717.282     -482878.44449   -368086.03048  20573717.132    20573720.555
  23818093.605     -858331.20149   -650028.46145  23818093.916    23818101.142
 03  6  5 16  5 30.0000000  0  8G17G30G29G18G10G21G 6G26
  21214182.380     -499956.94349   -380919.23847  21214181.918    21214186.266
  21777967.442      497200.70949    375388.48547  21777967.747    21777971.518
  23592855.728     -735835.24249   -373444.39145  23592856.056    23592861.482
  24497208.346    -1161877.69849   -888100.58245  24497208.335    24497213.771
  21563776.201      361037.83049    273368.29047  21563775.439    21563779.615
  21917054.094     -701569.29649   -371816.29447  21917053.679    21917056.338
  20567097.928     -517663.51649   -395191.28248  20567097.794    20567101.216
  23800457.065     -951012.14149   -722247.28145  23800457.536    23800464.526
 03  6  5 16  6  0.0000000  0  8G17G30G29G18G10G21G 6G26
  21208152.660     -531643.36449   -405609.94447  21208152.192    21208156.544
  21793653.408      579630.64449    439619.55247  21793653.717    21793657.473
  23581405.423     -796007.88349   -420332.14845  23581405.743    23581410.932
  24476229.816    -1272120.26449   -974003.84045  24476229.808    24476235.312
  21576611.692      428488.75649    325927.43347  21576610.943    21576615.160
  21906594.908     -756532.66449   -414644.88047  21906594.500    21906597.149
  20560539.484     -552128.33549   -422046.98348  20560539.375    20560542.802
  23782838.843    -1043597.11849   -794391.33045  23782839.353    23782846.246
 03  6  5 16  6 30.0000000  0  8G17G30G29G18G10G21G 6G26
  21202166.838     -563099.24349   -430121.00947  21202166.366    21202170.706
  21809407.136      662416.50349    504127.95947  21809407.451    21809411.155
  23570011.388     -855884.48649   -466989.18945  23570011.491    23570016.678
  24455266.825    -1382280.91749  -1059843.20745  24455266.781    24455272.519
  21589533.757      496394.57049    378841.02747  21589533.037    21589537.259
  21896175.704     -811286.00449   -457309.79147  21896175.303    21896177.961
  20554042.338     -586271.02049   -448651.67148  20554042.223    20554045.669
  23765239.699    -1136082.48149   -866457.76345  23765239.987    23765246.838
 03  6  5 16  7  0.0000000  0  8G17G30G29G18G10G21G 6G26
  21196224.867     -594324.72849   -454452.54547  21196224.409    21196228.697
  21825228.047      745555.41949    568911.47947  21825228.339    21825232.039
  23558674.305     -915461.99849   -513413.22945  23558674.380    23558679.314
  24434320.011    -1492357.11049  -1145616.79545  24434319.953    24434325.855
  21602541.953      564753.00249    432107.31347  21602541.252    21602545.474
  21885796.532     -865829.00849   -499810.80947  21885796.139    21885798.800
  20547606.893     -620089.56949   -475003.78648  20547606.788    20547610.245
  23747659.964    -1228464.60649   -938443.72845  23747660.147    23747667.123
 03  6  5 16  7 30.0000000  0  8G17G30G29G18G10G21G 6G26
  21190326.537     -625320.69349   -478605.23247  21190326.082    21190330.390
  21841115.517      829044.31249    633967.71447  21841115.800    21841119.533
  23547394.391     -974738.19549   -559602.41145  23547394.458    23547399.609
  24413389.443    -1602347.39749  -1231323.40545  24413389.423    24413395.422
  21615635.652      633560.75049    485723.71647  21615634.937    21615639.173
  21875457.229     -920162.37449   -542148.46947  21875456.856    21875459.487
  20541233.342     -653582.86649   -501102.45648  20541233.250    20541236.699
  23730100.290    -1320740.60549  -1010347.00945  23730100.593    23730107.604
 03  6  5 16  8  0.0000000  0  8G17G30G29G18G10G21G 6G26
  21184471.780     -656087.50349   -502579.35847  21184471.316    21184475.680
  21857069.057      912880.53949    699294.59847  21857069.326    21857073.094
  23536172.358    -1033709.98649   -605554.43445  23536172.387    23536177.448
  24392475.786    -1712249.31749  -1316961.24145  24392475.700    24392481.645
  21628814.420      702815.36349    539688.32347  21628813.694    21628817.931
  21865157.893     -974285.89949   -584322.61547  21865157.497    21865160.149
  20534922.079     -686748.76949   -526946.01348  20534922.019    20534925.473
  23712561.751    -1412906.57249  -1082164.58645  23712562.025    23712569.007
 03  6  5 16  8 30.0000000  0  8G17G30G29G18G10G21G 6G26
  21178660.575     -686625.56449   -526375.24347  21178660.119    21178664.525
  21873088.019      997060.87549    764889.61547  21873088.316    21873092.152
  23525008.726    -1092375.04149   -651267.42545  23525008.865    23525013.892
  24371579.437    -1822061.00849  -1402528.75345  24371579.336    24371585.233
  21642077.643      772513.91449    593998.85747  21642076.912    21642081.175
  21854898.383    -1028200.03349   -626333.60747  21854897.999    21854900.645
  20528673.324     -719586.27149   -552533.67648  20528673.265    20528676.710
  23695044.734    -1504959.56149  -1153894.11445  23695044.912    23695051.799
 03  6  5 16  9  0.0000000  0  8G17G30G29G18G10G21G 6G26
  21172892.822     -716935.47649   -549993.34747  21172892.362    21172896.731
  21889171.989     1081582.60549    830750.65247  21889172.341    21889176.192
  23513903.991    -1150730.44549   -696739.13445  23513904.082    23513909.110
  24350700.667    -1931780.21649  -1488024.22045  24350700.461    24350706.340
  21655424.884      842653.77349    648653.26747  21655424.132    21655428.410
  21844678.748    -1081904.80449   -668181.45947  21844678.334    21844680.963
  20522487.408     -752093.57849   -577864.04548  20522487.338    20522490.789
  23677549.749    -1596895.84349  -1225532.65545  23677549.944    23677556.887
 03  6  5 16  9 30.0000000  0  8G17G30G29G18G10G21G 6G26
  21167168.546     -747017.01049   -573433.49147  21167168.055    21167172.408
  21905320.425     1166442.86649    896875.48747  21905320.772    21905324.600
  23502858.922    -1208773.40949   -741967.37645  23502858.969    23502863.882
  24329840.001    -2041404.33749  -1573445.54445  24329839.563    24329845.541
  21668855.599      913232.34349    703649.52947  21668854.854    21668859.140
  21834498.901    -1135400.10249   -709866.09547  21834498.491    21834501.127
  20516364.654     -784269.04549   -602935.84148  20516364.566    20516367.999
  23660077.501    -1688712.19549  -1297077.75145  23660077.629    23660084.671
 03  6  5 16 10  0.0000000  0  8G17G30G29G18G10G21G 6G26
  21161487.461     -776871.34249   -596696.59747  21161486.997    21161491.313
  21921532.777     1251639.01249    963262.03947  21921533.108    21921536.936
  23491873.687    -1266501.17549   -786949.99845  23491873.794    23491878.664
  24308997.519    -2150931.60549  -1658791.34645  24308997.282    24309003.163
  21682369.251      984247.14249    758985.70247  21682368.519    21682372.821
  21824358.906    -1188685.85449   -751387.44047  21824358.521    21824361.154
  20510305.393     -816110.79549   -627747.60948  20510305.321    20510308.732
  23642628.976    -1780404.84549  -1368526.49245  23642629.108    23642635.970
 03  6  5 16 10 30.0000000  0  8G17G30G29G18G10G21G 6G26
  21155849.800     -806497.72649   -619782.09247  21155849.300    21155853.628
  21937808.691     1337169.01749   1029908.74847  21937809.011    21937812.819
  23480949.075    -1323909.92449   -831684.06545  23480949.127    23480954.019
  24288174.015    -2260358.72749  -1744059.09545  24288173.757    24288179.853
  21695965.629     1055696.33049    814660.37547  21695964.906    21695969.178
  21814258.967    -1241761.54449   -792745.11147  21814258.583    21814261.188
  20504310.128     -847616.28049   -652297.32348  20504310.041    20504313.452
  23625204.746    -1871969.28749  -1439875.32245  23625204.941    23625211.605
 03  6  5 16 11  0.0000000  0  8G17G30G29G18G10G21G 6G26
  21150255.231     -835897.40849   -642690.92747  21150254.753    21150259.058
  21954147.403     1423029.15149   1096812.72547  21954147.700    21954151.510
  23470085.584    -1380997.88449   -876168.16545  23470085.697    23470090.451
  24267370.077    -2369684.42849  -1829247.86545  24267369.800    24267375.929
  21709643.942     1127576.26349    870670.69147  21709643.247    21709647.512
  21804198.829    -1294628.15549   -833939.85947  21804198.417    21804201.015
  20498378.988     -878784.82249   -676584.49748  20498378.897    20498382.295
  23607805.344    -1963403.26249  -1511122.48145  23607805.397    23607812.208
 03  6  5 16 11 30.0000000  0  8G17G30G29G18G10G21G 6G26
  21144703.713     -865070.95549   -665423.55747  21144703.227    21144707.525
  21970548.273     1509216.09049   1163971.31447  21970548.546    21970552.403
  23459283.491    -1437762.88249   -920400.54745  23459283.586    23459288.467
  24246585.739    -2478907.21449  -1914356.43545  24246585.358    24246591.404
  21723403.679     1199883.96949    927014.33647  21723402.951    21723407.245
  21794178.391    -1347286.09749   -874971.99347  21794177.985    21794180.570
  20492512.202     -909615.15249   -700608.13348  20492512.129    20492515.493
  23590431.425    -2054703.45849  -1582265.38045  23590431.504    23590438.439
 03  6  5 16 12  0.0000000  0  8G17G30G29G18G10G21G 6G26
  21139195.117     -894018.97249   -687980.45247  21139194.620    21139198.885
  21987010.769     1595727.14349   1231382.47647  21987011.079    21987015.006
  23448543.607    -1494201.74449   -964378.83245  23448543.651    23448548.590
  24225821.387    -2588024.68649  -1999382.96945  24225821.033    24225826.888
  21737244.339     1272616.91549    983689.33747  21737243.619    21737247.958
  21784197.656    -1399735.27149   -915841.45947  21784197.244    21784199.784
  20486710.091     -940105.60549   -724366.93348  20486710.026    20486713.373
  23573083.817    -2145866.24149  -1653301.19745  23573083.874    23573090.729
 03  6  5 16 12 30.0000000  0  8G17G30G29G18G10G21G 6G26
  21133729.428     -922741.44649   -710361.59647  21133728.934    21133733.180
  22003534.518     1682559.67249   1299044.14247  22003534.830    22003538.776
  23437866.158    -1550311.74949  -1008100.83245  23437866.263    23437871.151
  24205077.512    -2697034.12149  -2084325.36645  24205077.124    24205082.910
  21751165.433     1345772.34949   1040693.53947  21751164.692    21751169.010
  21774256.658    -1451975.54349   -956548.14247  21774256.266    21774258.771
  20480973.050     -970254.13449   -747859.29848  20480972.977    20480976.339
  23555762.954    -2236887.88049  -1724227.05545  23555763.104    23555769.705
 03  6  5 16 13  0.0000000  0  8G17G30G29G18G10G21G 6G26
  21128306.704     -951237.98149   -732566.67847  21128306.208    21128310.476
  22020119.044     1769711.59549   1366954.69147  22020119.348    22020123.291
  23427251.917    -1606089.37849  -1051563.83545  23427252.081    23427256.973
  24184354.688    -2805932.71349  -2169181.34445  24184354.320    24184360.069
  21765166.515     1419348.57949   1098025.64847  21765165.779    21765170.129
  21764355.504    -1504006.20349   -997091.48747  21764355.140    21764357.647
  20475301.446    -1000058.39449   -771083.38748  20475301.394    20475304.779
  23538469.784    -2327764.07749  -1795039.57445  23538469.737    23538476.418
 03  6  5 16 13 30.0000000  0  8G17G30G29G18G10G21G 6G26
  21122926.935     -979508.97649   -754596.02147  21122926.452    21122930.731
  22036763.866     1857180.32749   1435112.09047  22036764.186    22036768.120
  23416701.587    -1661531.59349  -1094765.48245  23416701.655    23416706.664
  24163653.457    -2914717.95849  -2253948.89445  24163653.141    24163658.767
  21779247.223     1493343.24749   1155683.81547  21779246.521    21779250.905
  21754494.308    -1555827.06449  -1037471.35847  21754493.937    21754496.444
  20469695.819    -1029516.31649   -794037.61548  20469695.764    20469699.151
  23521204.878    -2418491.00149  -1865735.77945  23521205.029    23521211.592
 03  6  5 16 14  0.0000000  0  8G17G30G29G18G10G21G 6G26
  21117589.634    -1007556.72849   -776451.41147  21117589.127    21117593.431
  22053468.036     1944960.95049   1503512.52547  22053468.372    22053472.233
  23406215.129    -1716637.64049  -1137705.17945  23406215.244    23406220.267
  24142973.938    -3023389.54349  -2338627.92745  24142973.607    24142979.368
  21793406.670     1567751.50949   1213664.24747  21793405.939    21793410.373
  21744672.705    -1607440.36849  -1077689.49547  21744672.287    21744674.751
  20464155.989    -1058628.36049   -816722.32148  20464155.940    20464159.331
  23503968.678    -2509067.17249  -1936314.51745  23503968.792    23503975.511
 03  6  5 16 14 30.0000000  0  8G17G30G29G18G10G21G 6G26
  21112294.823    -1035381.10949   -798132.75047  21112294.333    21112298.634
  22070231.080     2033051.22649   1572154.24647  22070231.427    22070235.287
  23395793.436    -1771404.24249  -1180380.34345  23395793.510    23395798.501
  24122316.507    -3131944.99849  -2423216.48345  24122316.228    24122321.875
  21807644.456     1642571.39349   1271965.43447  21807643.752    21807648.163
  21734890.653    -1658845.32149  -1117745.28647  21734890.239    21734892.687
  20458682.389    -1087392.29049   -839135.77548  20458682.349    20458685.747
  23486761.861    -2599488.46049  -2006772.55245  23486762.053    23486768.945
 03  6  5 16 15  0.0000000  0  8G17G30G29G18G10G21G 6G26
  21107042.666    -1062981.50649   -819639.55247  21107042.189    21107046.453
  22087052.595     2121448.57049   1641035.24747  22087052.971    22087056.802
  23385436.946    -1825828.40049  -1222788.68645  23385436.909    23385441.885
  24101681.712    -3240381.59949  -2507712.41745  24101681.423    24101687.055
  21821960.128     1717800.43149   1330585.44147  21821959.432    21821963.812
  21725148.211    -1710042.02449  -1157638.79747  21725147.803    21725150.251
  20453275.487    -1115805.93949   -861276.28148  20453275.462    20453278.816
  23469585.409    -2689750.74749  -2077106.72245  23469585.614    23469592.451
 03  6  5 16 15 30.0000000  0  9G17G30G29G18G10G21G 6G26G15
  21101832.362    -1090362.07349   -840975.06147  21101831.886    21101836.121
  22103931.422     2210146.74849   1710150.66747  22103931.756    22103935.576
  23375145.285    -1879910.74149  -1264930.66545  23375145.353    23375150.317
  24081069.414    -3348700.47349  -2592116.63645  24081069.023    24081074.660
  21836352.430     1793432.38949   1389519.39647  21836351.748    21836356.195
  21715444.858    -1761033.60449  -1197372.47247  21715444.440    21715446.888
  20447934.893    -1143871.43549   -883145.49548  20447934.839    20447938.174
  23452439.396    -2779854.11049  -2147317.05845  23452439.633    23452446.308
  24739135.108    -2041747.56059  -1573791.80845  24739134.723    24739142.422
 03  6  5 16 16  0.0000000  0  9G17G30G29G18G10G21G 6G26G15
  21096664.547    -1117518.99349   -862136.29247  21096664.044    21096668.334
  22120867.588     2299146.70149   1779501.23447  22120867.892    22120871.774
  23364919.975    -1933644.79749  -1306801.25945  23364919.893    23364925.057
  24060480.551    -3456895.59549  -2676424.41745  24060480.036    24060485.620
  21850821.718     1869468.64049   1448768.40647  21850821.021    21850825.423
  21705781.275    -1811816.15849  -1236943.27647  21705780.861    21705783.254
  20442661.548    -1171582.99449   -904738.91448  20442661.510    20442664.850
  23435325.072    -2869791.03249  -2217397.68145  23435325.201    23435331.763
  24723282.766    -2125052.08049  -1638704.30845  24723282.407    24723290.227
 03  6  5 16 16 30.0000000  0  9G17G30G29G18G10G21G 6G26G15
  21091539.184    -1144452.83249   -883123.70347  21091538.721    21091543.035
  22137860.621     2388445.70249   1849084.81447  22137860.938    22137864.896
  23354761.400    -1987027.62649  -1348398.17546  23354761.385    23354766.620
  24039915.463    -3564964.83549  -2760634.12245  24039915.044    24039920.539
  21865367.414     1945906.77849   1508330.56547  21865366.711    21865371.110
  21696157.404    -1862389.88049  -1276351.35447  21696156.963    21696159.416
  20437455.901    -1198938.73649   -926055.08448  20437455.854    20437459.236
  23418243.016    -2959557.81649  -2287345.71245  23418243.167    23418249.683
  24707447.860    -2208265.19249  -1703545.57945  24707447.530    24707455.356
 03  6  5 16 17  0.0000000  0  9G17G30G29G18G10G21G 6G26G15
  21086456.393    -1171163.03549   -903936.84647  21086455.940    21086460.282
  22154910.245     2478042.02849   1918900.07747  22154910.584    22154914.629
  23344670.494    -2040055.62949  -1389718.59746  23344670.501    23344675.537
  24019375.057    -3672904.67349  -2844742.98645  24019374.712    24019380.093
  21879989.161     2022744.73949   1568204.27947  21879988.489    21879992.901
  21686573.403    -1912753.71949  -1315595.88147  21686572.998    21686575.496
  20432318.475    -1225935.86549   -947091.80348  20432318.450    20432321.852
  23401194.183    -3049149.57149  -2357157.35545  23401194.340    23401200.911
  24691630.730    -2291385.27949  -1768314.33945  24691630.350    24691638.101
 03  6  5 16 17 30.0000000  0  9G17G30G29G18G10G21G 6G26G15
  21081415.869    -1197651.06649   -924576.87347  21081415.420    21081419.804
  22172015.622     2567931.34249   1988943.64947  22172015.983    22172020.064
  23334647.222    -2092727.52149  -1430761.51646  23334647.250    23334652.308
  23998859.504    -3780714.37249  -2928750.40645  23998859.126    23998864.536
  21894686.307     2099978.63449   1628386.52047  21894685.614    21894690.037
  21677029.153    -1962909.28549  -1354678.12147  21677028.745    21677031.243
  20427249.328    -1252574.24749   -967848.98148  20427249.300    20427252.734
  23384179.064    -3138564.38349  -2426831.17245  23384179.160    23384185.575
  24675830.876    -2374413.76549  -1833011.74545  24675830.478    24675838.324
 03  6  5 16 18  0.0000000  0  9G17G30G29G18G10G21G 6G26G15
  21076417.552    -1223917.61249   -945044.31547  21076417.100    21076421.446
  22189176.223     2658110.63849   2059213.17547  22189176.573    22189180.710
  23324692.211    -2145040.86949  -1471525.08446  23324692.332    23324697.330
  23978369.147    -3888391.78649  -3012654.77845  23978368.651    23978374.237
  21909458.242     2177605.73949   1688875.15847  21909457.568    21909462.002
  21667524.526    -2012856.49549  -1393598.00747  21667524.085    21667526.614
  20422248.811    -1278852.35449   -988325.42348  20422248.771    20422252.212
  23367198.088    -3227798.78249  -2496364.37945  23367198.266    23367204.643
  24660048.539    -2457350.59749  -1897637.70245  24660048.244    24660055.844
 03  6  5 16 18 30.0000000  0  9G17G30G29G18G10G21G 6G26G15
  21071461.293    -1249962.99749   -965339.42047  21071460.851    21071465.153
  22206391.453     2748576.97349   2129706.37246  22206391.795    22206395.944
  23314805.909    -2196993.14149  -1512007.27846  23314806.105    23314811.094
  23957904.384    -3995934.88449  -3096454.48145  23957903.838    23957909.502
  21924304.465     2255622.91849   1749667.73647  21924303.750    21924308.244
  21658059.502    -2062595.50149  -1432355.65447  21658059.068    21658061.595
  20417317.105    -1304768.69649  -1008519.97248  20417317.076    20417320.485
  23350252.272    -3316849.23949  -2565754.20745  23350252.467    23350258.899
  24644283.717    -2540195.34249  -1962191.91345  24644283.327    24644290.831
 03  6  5 16 19  0.0000000  0  9G17G30G29G18G10G21G 6G26G15
  21066547.004    -1275787.98349   -985462.78947  21066546.553    21066550.817
  22223660.707     2839327.15349   2200420.74446  22223661.059    22223665.161
  23304988.863    -2248581.53949  -1552205.94946  23304989.112    23304994.034
  23937465.525    -4103341.56749  -3180147.87845  23937464.989    23937470.604
  21939224.376     2334027.59249   1810762.26847  21939223.672    21939228.209
  21648634.029    -2112126.52949  -1470951.24447  21648633.603    21648636.134
  20412454.581    -1330321.75449  -1028431.44848  20412454.532    20412457.900
  23333342.337    -3405712.30049  -2634998.06645  23333342.513    23333348.638
  24628536.129    -2622948.31749  -2026674.60645  24628535.830    24628543.273
 03  6  5 16 19 30.0000000  0  9G17G30G29G18G10G21G 6G26G15
  21061674.690    -1301392.42449  -1005414.30347  21061674.216    21061678.465
  22240983.487     2930358.50649   2271354.21846  22240983.807    22240987.929
  23295241.731    -2299803.50949  -1592119.09646  23295241.880    23295246.820
  23917052.980    -4210609.47849  -3263733.13045  23917052.420    23917058.178
  21954217.565     2412817.12949   1872156.68747  21954216.862    21954221.410
  21639248.071    -2161450.02249  -1509385.11847  21639247.660    21639250.180
  20407661.479    -1355509.75349  -1048058.46248  20407661.430    20407664.788
  23316468.640    -3494384.16949  -2704092.90645  23316468.764    23316474.737
  24612806.106    -2705609.02849  -2091085.41745  24612805.800    24612813.246
 03  6  5 16 20  0.0000000  0  9G17G30G29G18G10G21G 6G26G15
  21056844.155    -1326777.03549  -1025194.51647  21056843.680    21056847.937
  22258359.076     3021667.75049   2342504.22646  22258359.418    22258363.507
  23285564.697    -2350657.04749  -1631745.15946  23285564.739    23285569.604
  23896667.152    -4317737.16949  -3347209.12645  23896666.682    23896672.322
  21969283.374     2491988.13649   1933848.36047  21969282.682    21969287.184
  21629901.686    -2210565.75649  -1547657.09547  21629901.241    21629903.742
  20402938.068    -1380331.49049  -1067400.07648  20402938.020    20402941.372
  23299631.669    -3582861.74449  -2773036.35745  23299631.910    23299637.954
  24597093.694    -2788177.67149  -2155424.45845  24597093.237    24597100.820
 03  6  5 16 20 30.0000000  0 10G17G30G29G18G10G21G 6G26G15G16
  21052054.922    -1351944.62449  -1044805.62647  21052054.456    21052058.711
  22275786.622     3113249.83449   2413866.83646  22275786.954    22275791.058
  23275957.872    -2401141.50449  -1671083.62946  23275957.850    23275962.641
  23876308.149    -4424724.19149  -3430575.52745  23876307.796    23876313.284
  21984420.808     2571535.70749   1995833.45447  21984420.153    21984424.651
  21620594.291    -2259476.13549  -1585769.06247  21620593.864    21620596.332
  20398284.261    -1404787.39349  -1086456.62648  20398284.202    20398287.573
  23282832.080    -3671143.57249  -2841827.26645  23282832.231    23282838.428
  24581398.622    -2870655.94049  -2219693.13245  24581398.092    24581405.439
  24738641.070    -3089558.08149  -2384342.86645  24738641.326    24738645.109
 03  6  5 16 21  0.0000000  0 10G17G30G29G18G10G21G 6G26G15G16
  21047307.478    -1376892.71449  -1064245.69847  21047307.002    21047311.270
  22293266.047     3205104.45049   2485441.81446  22293266.373    22293270.482
  23266422.234    -2451251.65549  -1710130.43146  23266422.141    23266426.923
  23855976.882    -4531565.71249  -3513828.55045  23855976.501    23855981.868
  21999630.027     2651460.14149   2058112.21647  21999629.343    21999633.810
  21611326.535    -2308178.56249  -1623718.98847  21611326.100    21611328.585
  20393700.889    -1428873.19749  -1105224.78848  20393700.835    20393704.242
  23266070.966    -3759223.28149  -2910460.67945  23266071.175    23266077.457
  24565721.203    -2953041.17449  -2283889.27945  24565720.676    24565728.036
  24722736.776    -3173136.41549  -2449468.80345  24722736.835    24722740.662
 03  6  5 16 21 30.0000000  0 10G17G30G29G18G10G21G 6G26G15G16
  21042601.678    -1401621.78949  -1083515.10447  21042601.210    21042605.508
  22310796.765     3297228.70349   2557226.89546  22310797.096    22310801.185
  23256958.198    -2500984.87949  -1748883.54546  23256958.123    23256962.923
  23835673.649    -4638259.66649  -3596966.56045  23835673.257    23835678.649
  22014910.353     2731758.79649   2120682.57947  22014909.665    22014914.139
  21602098.253    -2356673.29949  -1661507.07647  21602097.829    21602100.332
  20389188.257    -1452587.26349  -1123703.27748  20389188.209    20389191.603
  23249349.032    -3847097.31949  -2978933.81345  23249349.241    23249355.504
  24550061.582    -3035333.00149  -2348012.65045  24550061.047    24550068.371
  24706895.788    -3256382.23949  -2514335.68945  24706895.742    24706899.478
 03  6  5 16 22  0.0000000  0 10G17G30G29G18G10G21G 6G26G15G16
  21037937.399    -1426132.60349  -1102614.43847  21037936.929    21037941.248
  22328378.153     3389619.17049   2629219.41646  22328378.475    22328382.585
  23247566.186    -2550339.28549  -1787341.47246  23247566.165    23247570.995
  23815398.731    -4744804.40549  -3679988.30845  23815398.373    23815403.739
  22030261.180     2812428.14749   2183541.79447  22030260.508    22030264.981
  21592909.468    -2404960.66749  -1699133.57947  21592909.050    21592911.576
  20384746.535    -1475928.58149  -1141891.31248  20384746.484    20384749.881
  23232666.812    -3934762.64649  -3047244.33645  23232666.959    23232673.178
  24534419.698    -3117531.94049  -2412063.66645  24534418.985    24534426.355
  24691118.141    -3339293.87249  -2578942.14245  24691118.175    24691122.044
 03  6  5 16 22 30.0000000  0 10G17G30G29G18G10G21G 6G26G15G16
  21033314.750    -1450424.94249  -1121543.53547  21033314.299    21033318.578
  22346009.691     3482273.28049   2701417.37446  22346010.029    22346014.122
  23238246.983    -2599311.90149  -1825501.91046  23238246.907    23238251.739
  23795152.613    -4851197.31049  -3762891.71445  23795152.220    23795157.702
  22045682.162     2893465.91349   2246688.07847  22045681.502    22045685.968
  21583760.203    -2453040.29649  -1736598.20647  21583759.794    21583762.310
  20380376.181    -1498895.00449  -1159787.22848  20380376.119    20380379.531
  23216025.198    -4022215.13249  -3115388.97545  23216025.330    23216031.530
  24518795.508    -3199637.18149  -2476041.69545  24518794.822    24518802.214
  24675404.538    -3421868.21849  -2643285.76645  24675404.563    24675408.690
 03  6  5 16 23  0.0000000  0 10G17G30G29G18G10G21G 6G26G15G16
  21028733.487    -1474499.82849  -1140303.18547  21028733.031    21028737.283
  22363690.761     3575187.83649   2773818.28246  22363691.109    22363695.250
  23229000.836    -2647900.42149  -1863363.06146  23229000.807    23229005.633
  23774935.771    -4957436.61649  -3845675.47945  23774935.395    23774940.891
  22061172.661     2974868.74549   2310118.84247  22061172.008    22061176.453
  21574650.354    -2500912.92649  -1773901.53847  21574649.960    21574652.454
  20376077.395    -1521485.33249  -1177390.08448  20376077.325    20376080.768
  23199424.479    -4109451.77449  -3183365.40945  23199424.583    23199430.864
  24503189.127    -3281648.96949  -2539946.83745  24503188.565    24503195.578
  24659755.733    -3504103.30749  -2707364.96645  24659755.786    24659759.966
 03  6  5 16 23 30.0000000  0 10G17G30G29G18G10G21G 6G26G15G16
  21024193.478    -1498357.82649  -1158893.83047  21024193.004    21024197.254
  22381420.739     3668359.50949   2846419.53246  22381421.114    22381425.237
  23219828.364    -2696102.56849  -1900923.13946  23219828.357    23219833.033
  23754748.659    -5063520.14949  -3928337.90345  23754748.280    23754753.576
  22076732.019     3056633.60449   2373831.69947  22076731.367    22076735.812
  21565579.852    -2548578.78049  -1811043.74547  21565579.450    21565581.928
  20371850.401    -1543698.31749  -1194698.90748  20371850.371    20371853.811
  23182865.500    -4196469.21049  -3251171.07445  23182865.616    23182871.858
  24487600.356    -3363567.56049  -2603779.40145  24487599.728    24487606.789
  24644171.978    -3585996.76949  -2771177.96745  24644171.905    24644176.033
 03  6  5 16 24  0.0000000  0 10G17G30G29G18G10G21G 6G26G15G16
  21019694.691    -1521999.13049  -1177315.62547  21019694.189    21019698.471
  22399199.156     3761785.54049   2919218.97946  22399199.517    22399203.661
  23210729.692    -2743916.04349  -1938180.34346  23210729.716    23210734.426
  23734591.511    -5169445.97849  -4010877.40345  23734591.155    23734596.384
  22092359.835     3138758.01049   2437824.72147  22092359.168    22092363.613
  21556548.651    -2596038.02149  -1848024.95947  21556548.252    21556550.737
  20367695.511    -1565532.32149  -1211712.41748  20367695.478    20367698.927
  23166349.000    -4283263.41849  -3318802.79645  23166349.100    23166355.255
  24472029.331    -3445392.68949  -2667539.13345  24472028.597    24472035.715
  24628653.733    -3667546.22549  -2834722.95545  24628653.449    24628657.937
 03  6  5 16 24 30.0000000  0 10G17G30G29G18G10G21G 6G26G15G16
  21015237.115    -1545423.64449  -1195568.49447  21015236.644    21015240.921
  22417025.381     3855462.94949   2992214.31046  22417025.756    22417029.932
  23201705.522    -2791338.26249  -1975132.69146  23201705.534    23201710.299
  23714464.657    -5275212.16349  -4093292.42045  23714464.299    23714469.527
  22108055.578     3221239.17649   2502095.73447  22108054.852    22108059.309
  21547556.742    -2643290.47249  -1884845.04647  21547556.357    21547558.875
  20363613.093    -1586985.80249  -1228429.41548  20363613.054    20363616.495
  23149875.540    -4369831.22749  -3386258.06245  23149875.615    23149881.941
  24456476.318    -3527124.21149  -2731225.96245  24456475.724    24456482.596
  24613201.253    -3748749.38849  -2897998.14945  24613201.115    24613205.152
 03  6  5 16 25  0.0000000  0 10G17G30G29G18G10G21G 6G26G15G16
  21010820.679    -1568632.42749  -1213653.26147  21010820.212    21010824.426
  22434898.835     3949388.61549   3065403.08246  22434899.222    22434903.373
  23192756.140    -2838366.87149  -2011778.31546  23192756.179    23192760.995
  23694368.691    -5380816.37249  -4175581.25945  23694368.421    23694373.652
  22123818.509     3304073.94849   2566642.28547  22123817.780    22123822.263
  21538604.181    -2690336.63649  -1921504.38647  21538603.805    21538606.277
  20359603.322    -1608057.34949  -1244848.80348  20359603.270    20359606.712
  23133446.019    -4456168.89649  -3453534.01345  23133446.238    23133452.433
  24440941.120    -3608761.74449  -2794839.54445  24440940.320    24440947.296
  24597815.026    -3829603.98349  -2961001.73645  24597814.808    24597818.821
 03  6  5 16 25 30.0000000  0 10G17G30G29G18G10G21G 6G26G15G16
  21006445.160    -1591626.17249  -1231570.45547  21006444.671    21006448.899
  22452819.061     4043559.61849   3138783.03946  22452819.417    22452823.547
  23183882.252    -2884999.40249  -2048115.32646  23183882.293    23183887.067
  23674303.912    -5486256.47749  -4257742.25145  23674303.741    23674308.920
  22139648.264     3387259.76949   2631462.38046  22139647.551    22139651.977
  21529691.043    -2737175.82949  -1958002.45247  21529690.625    21529693.067
  20355666.513    -1628745.47749  -1260969.42548  20355666.485    20355669.906
  23117060.858    -4542273.08049  -3520628.05845  23117061.112    23117067.126
  24425423.765    -3690305.33049  -2858379.89945  24425423.122    24425429.888
  24582495.564    -3910107.28049  -3023731.47245  24582495.523    24582499.252
 03  6  5 16 26  0.0000000  0 10G17G30G29G18G10G21G 6G26G15G16
  21002110.602    -1614404.39149  -1249319.71047  21002110.122    21002114.356
  22470785.514     4137973.41849   3212352.16446  22470785.858    22470789.965
  23175084.379    -2931232.97549  -2084141.44146  23175084.353    23175089.042
  23654271.055    -5591530.05149  -4339773.49345  23654270.829    23654275.975
  22155544.374     3470794.08249   2696554.03446  22155543.636    22155548.018
  21520817.118    -2783808.66849  -1994339.72647  21520816.709    21520819.173
  20351803.080    -1649048.10949  -1276789.66148  20351803.040    20351806.451
  23100720.784    -4628139.67049  -3587536.92645  23100721.084    23100727.213
  24409924.516    -3771754.72349  -2921846.84545  24409923.842    24409930.555
  24567243.581    -3990256.54449  -3086185.36645  24567243.571    24567247.708
 03  6  5 16 26 30.0000000  0 10G17G30G29G18G10G21G 6G26G15G16
  20997816.890    -1636967.77749  -1266901.56347  20997816.444    20997820.678
  22488797.544     4232626.49149   3286107.74646  22488797.879    22488801.950
  23166362.649    -2977065.77749  -2119855.26246  23166362.621    23166367.329
  23634270.126    -5696635.24949  -4421673.50945  23634269.866    23634275.029
  22171506.151     3554673.68649   2761914.74246  22171505.456    22171509.827
  21511982.374    -2830235.45549  -2030516.43347  21511981.955    21511984.452
  20348013.145    -1668964.20649  -1292308.70148  20348013.124    20348016.514
  23084426.615    -4713765.54049  -3654258.23245  23084426.964    23084433.010
  24394442.895    -3853110.13349  -2985240.53645  24394442.300    24394449.033
  24552059.550    -4070049.86349  -3148361.95245  24552059.453    24552063.637
 03  6  5 16 27  0.0000000  0 10G17G30G29G18G10G21G 6G26G15G16
  20993564.017    -1659316.88749  -1284316.44747  20993563.548    20993567.799
  22506854.465     4327515.86849   3360047.47846  22506854.809    22506858.882
  23157717.659    -3022495.24749  -2155254.80546  23157717.626    23157722.268
  23614301.550    -5801570.14149  -4503440.84745  23614301.250    23614306.419
  22187533.091     3638895.71849   2827542.28346  22187532.401    22187536.755
  21503186.893    -2876455.82749  -2066532.31147  21503186.504    21503189.016
  20344297.095    -1688492.25049  -1307525.36348  20344297.086    20344300.460
  23068179.029    -4799147.03649  -3720789.13845  23068179.272    23068185.224
  24378979.349    -3934371.27149  -3048560.79345  24378978.715    24378985.464
  24536943.457    -4149484.97449  -3210259.38045  24536943.547    24536947.641
 03  6  5 16 27 30.0000000  0 10G17G30G29G18G10G21G 6G26G15G16
  20989351.815    -1681452.29149  -1301564.80947  20989351.364    20989355.583
  22524955.821     4422638.65649   3434169.07546  22524956.127    22524960.276
  23149149.837    -3067519.21349  -2190338.35646  23149149.817    23149154.443
  23594365.914    -5906332.49549  -4585073.73945  23594365.580    23594370.730
  22203624.692     3723457.62949   2893434.66146  22203624.001    22203628.395
  21494430.611    -2922470.26949  -2102387.71247  21494430.216    21494432.729
  20340655.162    -1707630.86449  -1322438.57848  20340655.147    20340658.531
  23051978.458    -4884280.75149  -3787126.95545  23051978.727    23051984.514
  24363533.769    -4015537.91849  -3111807.43545  24363533.167    24363539.946
  24521896.117    -4228559.51749  -3271875.83845  24521896.144    24521900.065
 03  6  5 16 28  0.0000000  0 10G17G30G29G18G10G21G 6G26G15G16
  20985180.192    -1703374.27849  -1318646.86947  20985179.732    20985183.945
  22543100.932     4517991.57749   3508469.98746  22543101.246    22543105.484
  23140659.614    -3112135.48549  -2225104.23046  23140659.635    23140664.245
  23574463.445    -6010920.49149  -4666570.76445  23574463.049    23574468.172
  22219780.402     3808356.37849   2959589.50146  22219779.737    22219784.181
  21485713.410    -2968279.28249  -2138083.04147  21485713.040    21485715.560
  20337087.577    -1726378.63049  -1337047.22448  20337087.557    20337090.939
  23035825.873    -4969163.22949  -3853269.00345  23035826.109    23035831.750
  24348106.059    -4096610.27349  -3174980.58745  24348105.358    24348112.253
  24506917.835    -4307271.07749  -3333209.51745  24506917.754    24506921.709
 03  6  5 16 28 30.0000000  0 10G17G30G29G18G10G21G 6G26G15G16
  20981049.216    -1725082.74949  -1335562.55547  20981048.752    20981052.981
  22561289.323     4613572.37549   3582948.47046  22561289.644    22561293.985
  23132247.589    -3156340.84949  -2259549.90546  23132247.648    23132252.166
  23554594.693    -6115331.33449  -4747929.73645  23554594.324    23554599.400
  22235999.684     3893589.37149   3026004.79746  22235999.028    22236003.486
  21477035.453    -3013882.24949  -2173617.81447  21477035.108    21477037.576
  20333594.804    -1744733.48049  -1351349.69948  20333594.765    20333598.151
  23019721.741    -5053790.29549  -3919212.03045  23019721.879    23019727.579
  24332696.542    -4177587.58149  -3238079.68245  24332695.835    24332702.500
  24492009.165    -4385616.65949  -3394258.01445  24492008.905    24492013.043
 03  6  5 16 29  0.0000000  0 10G17G30G29G18G10G21G 6G26G15G16
  20976958.669    -1746578.60149  -1352312.56647  20976958.194    20976962.448
  22579520.456     4709377.53949   3657601.78446  22579520.793    22579525.226
  23123914.057    -3200133.70349  -2293674.13246  23123914.047    23123918.575
  23534759.856    -6219563.24549  -4829149.27345  23534759.555    23534764.595
  22252281.981     3979153.61249   3092678.20046  22252281.306    22252285.854
  21468396.726    -3059279.27049  -2208992.11147  21468396.358    21468398.834
  20330177.022    -1762694.26449  -1365345.11648  20330176.951    20330180.348
  23003666.808    -5138158.91149  -3984953.68345  23003666.883    23003672.676
  24317305.033    -4258470.10749  -3301104.90045  24317304.390    24317311.020
  24477170.477    -4463594.52949  -3455019.92245  24477170.228    24477174.234
 03  6  5 16 29 30.0000000  0 10G17G30G29G18G10G21G 6G26G15G16
  20972908.605    -1767862.02849  -1368897.04847  20972908.128    20972912.367
  22597793.759     4805404.21449   3732427.71646  22597794.112    22597798.596
  23115659.541    -3243511.56749  -2327474.99546  23115659.582    23115664.007
  23514959.516    -6323614.49749  -4910228.08445  23514959.243    23514964.098
  22268626.907     4065046.53249   3159607.71346  22268626.220    22268630.822
  21459797.124    -3104470.73349  -2244206.23247  21459796.722    21459799.205
  20326834.444    -1780259.55049  -1379032.34648  20326834.395    20326837.811
  22987661.862    -5222265.30349  -4050491.03345  22987661.973    22987667.653
  24301931.818    -4339257.74649  -3364056.18545  24301931.163    24301937.564
  24462402.086    -4541202.27949  -3515493.43645  24462401.842    24462405.985
 03  6  5 16 30  0.0000000  0 10G17G30G29G18G10G21G 6G26G15G16
  20968898.728    -1788933.77349  -1385316.58647  20968898.254    20968902.513
  22616108.517     4901648.93149   3807423.55346  22616108.913    22616113.375
  23107484.267    -3286472.54849  -2360951.00546  23107484.332    23107488.733
  23495193.837    -6427483.05549  -4991164.52345  23495193.646    23495198.343
  22285033.775     4151264.98549   3226790.89146  22285033.082    22285037.708
  21451236.418    -3149457.22749  -2279260.64847  21451236.048    21451238.553
  20323567.347    -1797428.21649  -1392410.53048  20323567.297    20323570.741
  22971707.429    -5306106.43049  -4115821.64445  22971707.468    22971713.129
  24286576.532    -4419950.48149  -3426933.53345  24286575.944    24286582.276
  24447704.568    -4618438.01549  -3575677.09045  24447704.097    24447708.481
 03  6  5 16 30 30.0000000  0 10G17G30G29G18G10G21G 6G26G15G16
  20964929.215    -1809793.77149  -1401571.12747  20964928.762    20964933.035
  22634464.375     4998109.42149   3882587.50646  22634464.746    22634469.232
  23099388.876    -3329013.73749  -2394099.92246  23099388.916    23099393.328
  23475463.537    -6531166.16649  -5071956.43445  23475463.255    23475467.986
  22301502.103     4237806.44249   3294225.76246  22301501.362    22301505.992
  21442714.994    -3194237.93549  -2314154.70547  21442714.597    21442717.073
  20320376.123    -1814198.10649  -1405477.97948  20320376.076    20320379.517
  22955804.180    -5389678.00049  -4180942.23345  22955804.318    22955809.845
  24271239.273    -4500547.75549  -3489736.51145  24271238.552    24271245.062
  24433078.495    -4695298.58249  -3635568.47145  24433078.092    24433082.337
 03  6  5 16 31  0.0000000  0 10G17G30G29G18G10G21G 6G26G15G16
  20960999.966    -1830442.16849  -1417660.78447  20960999.492    20961003.756
  22652860.721     5094782.50549   3957917.11546  22652861.041    22652865.510
  23091373.739    -3371133.01849  -2426920.06646  23091373.795    23091378.305
  23455768.844    -6634662.02049  -5152602.43645  23455768.560    23455773.311
  22318031.242     4324667.85549   3361909.94946  22318030.549    22318035.238
  21434232.608    -3238813.32449  -2348888.76547  21434232.190    21434234.643
  20317261.040    -1830567.98249  -1418233.72248  20317260.993    20317264.447
  22939953.007    -5472976.67349  -4245850.17745  22939953.071    22939958.401
  24255920.078    -4581049.77949  -3552465.25745  24255919.406    24255926.024
  24418524.441    -4771781.98149  -3695165.88245  24418524.008    24418528.179
 03  6  5 16 31 30.0000000  0 10G17G30G29G18G10G21G 6G26G15G16
  20957110.880    -1850879.48849  -1433585.97247  20957110.424    20957114.671
  22671296.939     5191665.14949   4033410.02146  22671297.297    22671301.692
  23083439.321    -3412828.09649  -2459409.67546  23083439.387    23083443.957
  23436110.187    -6737968.53449  -5233100.90446  23436109.869    23436114.645
  22334620.764     4411846.44449   3429841.29846  22334620.094    22334624.784
  21425789.200    -3283183.62049  -2383463.01447  21425788.805    21425791.221
  20314222.328    -1846536.53249  -1430676.74648  20314222.267    20314225.733
  22924154.160    -5555998.97649  -4310542.74545  22924154.239    22924159.651
  24240618.925    -4661456.19149  -3615119.52045  24240618.260    24240625.193
  24404042.331    -4847885.87749  -3754467.58945  24404041.874    24404046.087
 03  6  5 16 32  0.0000000  0 10G17G30G29G18G10G21G 6G26G15G16
  20953261.980    -1871105.78649  -1449346.72047  20953261.509    20953265.771
  22689772.514     5288754.54849   4109064.03846  22689772.867    22689777.220
  23075586.192    -3454096.47549  -2491566.78346  23075586.264    23075590.751
  23416487.977    -6841083.44949  -5313450.07545  23416487.633    23416492.399
  22351270.298     4499340.00549   3498018.07046  22351269.588    22351274.237
  21417384.942    -3327348.31649  -2417877.05847  21417384.553    21417386.971
  20311260.331    -1862101.95749  -1442805.64548  20311260.287    20311263.723
  22908408.646    -5638740.98849  -4375016.91845  22908408.859    22908414.236
  24225336.080    -4741766.60749  -3677698.98645  24225335.420    24225342.427
  24389632.701    -4923607.88749  -3813471.73545  24389632.319    24389636.687
 03  6  5 16 32 30.0000000  0 10G17G30G29G18G10G21G 6G26G15G16
  20949453.023    -1891121.84149  -1464943.63147  20949452.556    20949456.835
  22708286.804     5386047.58749   4184876.71746  22708287.150    22708291.513
  23067814.774    -3494936.25749  -2523389.93946  23067814.754    23067819.085
  23396902.643    -6944004.72049  -5393648.35945  23396902.281    23396906.997
  22367979.187     4587145.47749   3566437.89346  22367978.471    22367983.104
  21409019.606    -3371308.33449  -2452131.60747  21409019.225    21409021.664
  20308375.270    -1877263.07649  -1454619.50148  20308375.224    20308378.640
  22892717.201    -5721199.32649  -4439270.05245  22892717.452    22892722.769
  24210071.600    -4821981.32249  -3740203.82445  24210071.036    24210077.973
  24375296.135    -4998945.74549  -3872176.50345  24375295.894    24375300.345
 03  6  5 16 33  0.0000000  0 10G17G30G29G18G10G21G 6G26G15G16
  20945683.947    -1910928.35449  -1480377.28547  20945683.485    20945687.776
  22726839.195     5483541.15149   4260845.65046  22726839.546    22726843.990
  23060125.069    -3535345.44549  -2554877.55146  23060125.087    23060129.432
  23377354.413    -7046730.62449  -5473694.39646  23377354.045    23377358.808
  22384746.756     4675259.75749   3635098.33946  22384746.053    22384750.707
  21400693.354    -3415063.15249  -2486226.26747  21400692.939    21400695.405
  20305567.386    -1892018.65249  -1466117.35148  20305567.358    20305570.770
  22877080.242    -5803370.76249  -4503299.61345  22877080.518    22877085.973
  24194825.526    -4902100.21849  -3802634.01345  24194824.941    24194831.692
  24361033.440    -5073897.11949  -3930580.19545  24361033.168    24361037.720
 03  6  5 16 33 30.0000000  0 10G17G30G29G18G10G21G 6G26G15G16
  20941954.699    -1930525.55449  -1495647.81947  20941954.247    20941958.578
  22745429.195     5581232.00049   4336968.32746  22745429.587    22745434.040
  23052517.755    -3575321.93749  -2586028.01446  23052517.704    23052522.123
  23357843.684    -7149259.27749  -5553586.75446  23357843.382    23357848.157
  22401572.542     4763679.70049   3703996.96046  22401571.824    22401576.458
  21392406.042    -3458613.31049  -2520161.44647  21392405.656    21392408.132
  20302836.939    -1906367.42149  -1477298.21148  20302836.889    20302840.314
  22861498.691    -5885251.87649  -4567102.99145  22861498.973    22861504.511
  24179597.774    -4982123.36849  -3864989.62745  24179597.183    24179603.837
  24346844.568    -5148460.19849  -3988681.31145  24346844.301    24346848.785
 03  6  5 16 34  0.0000000  0 10G17G30G29G18G10G21G 6G26G15G16
  20938265.202    -1949913.97849  -1510755.68047  20938264.761    20938269.099
  22764056.165     5679117.33449   4413242.55346  22764056.542    22764061.026
  23044993.167    -3614863.35149  -2616839.44546  23044993.153    23044997.626
  23338371.053    -7251588.42949  -5633323.64646  23338370.732    23338375.521
  22418456.047     4852402.77249   3773131.78946  22418455.346    22418459.938
  21384157.710    -3501958.65049  -2553937.03147  21384157.306    21384159.773
  20300184.170    -1920307.88649  -1488160.91348  20300184.125    20300187.554
  22845973.203    -5966838.90649  -4630677.19745  22845973.472    22845978.942
  24164388.172    -5062050.28749  -3927270.23645  24164387.623    24164394.160
  24332729.969    -5222632.52249  -4046477.86345  24332729.762    24332734.111
 03  6  5 16 34 30.0000000  0 10G17G30G29G18G10G21G 6G26G15G16
  20934615.486    -1969093.60749  -1525700.84947  20934615.018    20934619.323
  22782719.488     5777194.13549   4489665.96846  22782719.871    22782724.498
  23037551.845    -3653967.51949  -2647310.17946  23037551.815    23037556.324
  23318936.714    -7353716.06749  -5712903.51246  23318936.317    23318941.157
  22435396.748     4941426.41349   3842500.82946  22435396.068    22435400.608
  21375948.188    -3545100.08549  -2587553.72647  21375947.769    21375950.229
  20297609.354    -1933838.56749  -1498704.29948  20297609.317    20297612.720
  22830504.173    -6048128.38049  -4694019.55645  22830504.441    22830509.837
  24149196.772    -5141881.18749  -3989476.03145  24149196.219    24149202.731
  24318690.223    -5296411.96249  -4103968.31645  24318690.051    24318694.535
 03  6  5 16 35  0.0000000  0 10G17G30G29G18G10G21G 6G26G15G16
  20931005.412    -1988064.74949  -1540483.55747  20931004.947    20931009.230
  22801418.755     5875459.62549   4566236.40746  22801419.176    22801423.900
  23030194.136    -3692632.31849  -2677438.54446  23030194.098    23030198.623
  23299541.123    -7455639.86449  -5792324.55046  23299540.824    23299545.682
  22452394.085     5030747.73949   3912101.83546  22452393.411    22452397.929
  21367777.585    -3588036.83949  -2621010.93647  21367777.156    21367779.620
  20295112.853    -1946957.96649  -1508927.21148  20295112.806    20295116.185
  22815092.603    -6129116.52449  -4757127.10346  22815092.840    22815098.215
  24134023.779    -5221615.77449  -4051606.77945  24134023.194    24134029.635
  24304725.716    -5369795.91249  -4161150.57945  24304725.679    24304729.885
 03  6  5 16 35 30.0000000  0 10G17G30G29G18G10G21G 6G26G15G16
  20927434.873    -2006827.94749  -1555104.22247  20927434.419    20927438.691
  22820153.403     5973910.46749   4642951.28246  22820153.846    22820158.615
  23022920.410    -3730855.59249  -2707222.86346  23022920.414    23022925.000
  23280184.720    -7557358.06249  -5871585.37446  23280184.394    23280189.220
  22469447.460     5120363.73049   3981932.44246  22469446.746    22469451.289
  21359645.834    -3630769.28049  -2654308.94347  21359645.435    21359647.890
  20292694.835    -1959664.91349  -1518828.73148  20292694.770    20292698.139
  22799738.969    -6209800.13149  -4819997.35646  22799739.169    22799744.491
  24118868.918    -5301254.34449  -4113662.76345  24118868.325    24118874.932
  24290836.907    -5442782.32449  -4218023.10145  24290836.714    24290840.978
 03  6  5 16 36  0.0000000  0 10G17G30G29G18G10G21G 6G26G15G16
  20923903.974    -2025382.87249  -1569562.60047  20923903.523    20923907.791
  22838922.889     6072544.19149   4719808.65246  22838923.332    22838928.083
  23015731.143    -3768635.05949  -2736661.36146  23015731.141    23015735.762
  23260867.881    -7658868.32149  -5950684.18246  23260867.617    23260872.333
  22486556.503     5210271.90149   4051990.72646  22486555.751    22486560.267
  21351553.001    -3673297.41149  -2687447.74847  21351552.608    21351555.040
  20290355.584    -1971957.68549  -1528407.52348  20290355.519    20290358.883
  22784444.085    -6290175.18149  -4882627.19546  22784444.337    22784449.506
  24103732.561    -5380795.98949  -4175643.17245  24103731.963    24103738.552
  24277024.009    -5515368.75949  -4274583.92345  24277023.896    24277028.010
 03  6  5 16 36 30.0000000  0 10G17G30G29G18G10G21G 6G26G15G16
  20920412.484    -2043730.83449  -1583859.71347  20920412.040    20920416.265
  22857726.571     6171357.24149   4796805.75846  22857726.965    22857731.640
  23008626.741    -3805969.03149  -2765752.72846  23008626.709    23008631.262
  23241590.938    -7760169.11049  -6029619.77046  23241590.771    23241595.325
  22503720.455     5300468.98749   4122274.13146  22503719.719    22503724.235
  21343499.076    -3715621.25649  -2720427.36347  21343498.683    21343501.098
  20288095.315    -1983835.47649  -1537662.94948  20288095.244    20288098.603
  22769208.572    -6370238.62749  -4945014.22446  22769208.755    22769213.968
  24088614.618    -5460241.35549  -4237548.59245  24088613.990    24088620.580
  24263287.722    -5587553.48149  -4330831.72745  24263287.556    24263291.845
 03  6  5 16 37  0.0000000  0 10G17G30G29G18G10G21G 6G26G15G16
  20916960.396    -2061871.75249  -1597995.48947  20916959.950    20916964.189
  22876563.832     6270346.58049   4873940.23746  22876564.154    22876568.797
  23001607.509    -3842855.47249  -2794495.37646  23001607.458    23001611.901
  23222354.308    -7861258.38949  -6108390.53646  23222354.109    23222358.652
  22520938.834     5390952.35649   4192780.62946  22520938.129    22520942.669
  21335483.885    -3757741.23649  -2753248.12347  21335483.502    21335485.933
  20285914.278    -1995296.92949  -1546593.95348  20285914.214    20285917.577
  22754032.814    -6449987.22249  -5007155.90746  22754032.981    22754038.358
  24073514.928    -5539590.33149  -4299378.90845  24073514.263    24073520.800
  24249628.398    -5659334.20849  -4386764.72345  24249628.142    24249632.436
 03  6  5 16 37 30.0000000  0 10G17G30G29G18G10G21G 6G26G15G16
  20913547.590    -2079806.13749  -1611970.33647  20913547.143    20913551.382
  22895434.095     6369509.66249   4951210.09946  22895434.370    22895438.986
  22994673.817    -3879292.02949  -2822887.46046  22994673.788    22994678.192
  23203158.362    -7962133.78949  -6186994.64946  23203158.117    23203162.604
  22538211.203     5481719.57849   4263508.29746  22538210.551    22538215.123
  21327507.499    -3799657.18649  -2785909.89247  21327507.114    21327509.568
  20283812.788    -2006340.29449  -1555199.18148  20283812.709    20283816.109
  22738917.899    -6529416.81649  -5069049.04546  22738918.085    22738923.361
  24058433.730    -5618842.19649  -4361133.54545  24058433.093    24058439.640
  24236046.292    -5730708.48549  -4442380.99645  24236045.965    24236050.305
 03  6  5 16 38  0.0000000  0 10G17G30G29G18G10G21G 6G26G15G16
  20910174.067    -2097534.16949  -1625784.39047  20910173.608    20910177.852
  22914336.843     6468843.34849   5028612.89846  22914337.065    22914341.596
  22987826.174    -3915276.63749  -2850927.38246  22987826.159    22987830.473
  23184003.490    -8062793.39849  -6265430.61146  23184003.199    23184007.588
  22555537.109     5572767.52749   4334454.71546  22555536.437    22555541.071
  21319569.990    -3841369.00449  -2818412.60847  21319569.629    21319572.065
  20281791.128    -2016964.23949  -1563477.59048  20281791.058    20281794.443
  22723864.106    -6608524.09649  -5130691.02046  22723864.316    22723869.716
  24043370.974    -5697997.09749  -4422812.62145  24043370.401    24043376.911
  24222541.969    -5801674.01649  -4497678.78045  24222541.723    24222546.026
 03  6  5 16 38 30.0000000  0 10G17G30G29G18G10G21G 6G26G15G16
  20906839.699    -2115056.35449  -1639438.04547  20906839.266    20906843.524
  22933271.266     6568344.49149   5106146.17646  22933271.517    22933276.119
  22981064.865    -3950807.44849  -2878613.69646  22981064.850    22981069.181
  23164889.942    -8163235.09749  -6343696.78446  23164889.691    23164894.119
  22572915.997     5664093.37749   4405617.66846  22572915.256    22572919.905
  21311671.348    -3882876.92949  -2850756.44147  21311670.977    21311673.367
  20279849.525    -2027167.61449  -1571428.27848  20279849.462    20279852.818
  22708872.449    -6687305.69949  -5192079.22646  22708872.674    22708878.003
  24028326.705    -5777055.37649  -4484416.41345  24028326.106    24028332.512
  24209115.883    -5872229.11849  -4552656.74545  24209115.668    24209119.849
 03  6  5 16 39  0.0000000  0 10G17G30G29G18G10G21G 6G26G15G16
  20903544.607    -2132372.41849  -1652931.08547  20903544.177    20903548.387
  22952237.036     6668010.49149   5183807.91346  22952237.326    22952241.957
  22974390.325    -3985882.11049  -2905944.58446  22974390.321    22974394.654
  23145818.317    -8263456.78749  -6421791.52946  23145818.073    23145822.413
  22590347.228     5755694.59449   4476995.20446  22590346.488    22590351.074
  21303811.427    -3924181.31249  -2882941.67147  21303811.038    21303813.386
  20277988.209    -2036948.98349  -1579050.13148  20277988.141    20277991.497
  22693943.485    -6765757.76449  -5253210.66046  22693943.690    22693948.960
  24013300.849    -5856016.43249  -4545944.43545  24013300.238    24013306.753
  24195768.162    -5942371.14149  -4607312.85045  24195768.018    24195772.276
 03  6  5 16 39 30.0000000  0 10G17G30G29G18G10G21G 6G26G15G16
  20900288.646    -2149482.91249  -1666263.93947  20900288.201    20900292.378
  22971233.666     6767838.17849   5261595.63046  22971233.946    22971238.632
  22967803.035    -4020498.93449  -2932918.71146  22967802.991    22967807.273
  23126788.916    -8363456.55249  -6499713.33946  23126788.658    23126792.959
  22607830.265     5847568.31149   4548585.07346  22607829.525    22607834.154
  21295990.168    -3965282.29049  -2914968.41047  21295989.783    21295992.143
  20276207.431    -2046307.12749  -1586342.20048  20276207.384    20276210.717
  22679077.757    -6843876.99249  -5314082.75046  22679078.061    22679083.217
  23998293.652    -5934880.11949  -4607396.58945  23998292.997    23998299.427
  24182499.590    -6012097.93949  -4661645.36745  24182499.394    24182503.815
 03  6  5 16 40  0.0000000  0 10G17G30G29G18G10G21G 6G26G15G16
  20897071.588    -2166388.63749  -1679437.23347  20897071.149    20897075.294
  22990260.375     6867824.18749   5339506.72646  22990260.644    22990265.343
  22961303.119    -4054655.95949  -2959534.55646  22961303.151    22961307.427
  23107802.119    -8463232.63449  -6577460.86046  23107801.822    23107806.151
  22625364.524     5939711.45249   4620384.88446  22625363.797    22625368.442
  21288207.660    -4006179.55349  -2946836.41947  21288207.291    21288209.628
  20274507.375    -2055240.93349  -1593303.61448  20274507.341    20274510.686
  22664276.256    -6921660.08549  -5374692.89946  22664276.508    22664281.583
  23983304.810    -6013646.83149  -4668773.18645  23983304.213    23983310.445
  24169310.499    -6081407.76949  -4715653.02045  24169310.185    24169314.558
 03  6  5 16 40 30.0000000  0 10G17G30G29G18G10G21G 6G26G15G16
  20893893.542    -2183089.33749  -1692450.76947  20893893.099    20893897.267
  23009316.749     6967966.23449   5417539.40246  23009317.041    23009321.808
  22954891.050    -4088350.97549  -2985790.39146  22954891.109    22954895.426
  23088858.323    -8562782.69049  -6655032.25846  23088858.026    23088862.342
  22642949.609     6032121.75349   4692392.85946  22642948.932    22642953.565
  21280463.913    -4046873.10849  -2978545.68647  21280463.532    21280465.917
  20272888.379    -2063748.70949  -1599933.05948  20272888.361    20272891.711
  22649539.324    -6999103.07349  -5435037.99546  22649539.490    22649544.684
  23968334.483    -6092315.93849  -4730073.72845  23968333.828    23968340.085
  24156201.080    -6150297.90149  -4769333.64345  24156200.870    24156204.992
 03  6  5 16 41  0.0000000  0 10G17G30G29G18G10G21G 6G26G15G16
  20890754.442    -2199585.42749  -1705304.86847  20890754.022    20890758.161
  23028402.256     7068260.85149   5495690.96146  23028402.519    23028407.360
  22948567.329    -4121582.29349  -3011684.90546  22948567.377    22948571.683
  23069957.788    -8662105.25049  -6732426.37646  23069957.470    23069961.797
  22660585.048     6124796.28949   4764606.74646  22660584.344    22660588.983
  21272758.918    -4087363.28449  -3010096.46547  21272758.516    21272760.910
  20271350.664    -2071829.51649  -1606229.80448  20271350.626    20271353.993
  22634867.652    -7076202.93149  -5495115.78146  22634867.827    22634872.980
  23953382.546    -6170887.70549  -4791298.40445  23953382.009    23953388.103
  24143171.852    -6218766.62749  -4822685.87745  24143171.660    24143175.770
 03  6  5 16 41 30.0000000  0 10G17G30G29G18G10G21G 6G26G15G16
  20887654.166    -2215877.53849  -1718000.02247  20887653.728    20887657.884
  23047516.239     7168705.18849   5573959.19046  23047516.536    23047521.393
  22942332.364    -4154347.89349  -3037216.52846  22942332.344    22942336.622
  23051101.047    -8761197.81249  -6809641.28446  23051100.705    23051105.022
  22678270.230     6217732.32749   4837024.39046  22678269.510    22678274.133
  21265092.621    -4127649.82549  -3041488.57347  21265092.223    21265094.641
  20269894.467    -2079482.01949  -1612192.80548  20269894.444    20269897.804
  22620261.942    -7152956.08549  -5554923.36346  22620262.099    22620267.306
  23938449.280    -6249362.01949  -4852447.16545  23938448.627    23938454.750
  24130223.227    -6286811.70349  -4875707.96645  24130223.094    24130227.315
 03  6  5 16 42  0.0000000  0 10G17G30G29G18G10G21G 6G26G15G16
  20884592.644    -2231965.89549  -1730536.40747  20884592.198    20884596.370
  23066658.148     7269296.23549   5652341.75546  23066658.474    23066663.264
  22936186.242    -4186645.84049  -3062383.73246  22936186.229    22936190.510
  23032288.392    -8860058.66549  -6886675.64046  23032287.999    23032292.356
  22696004.481     6310926.74149   4909643.37846  22696003.824    22696008.485
  21257464.962    -4167733.46449  -3072722.57747  21257464.564    21257466.999
  20268519.983    -2086705.01449  -1617821.11848  20268519.965    20268523.308
  22605722.786    -7229359.12449  -5614458.14946  22605723.004    22605728.173
  23923534.568    -6327738.65049  -4913519.78545  23923533.903    23923539.908
  24117355.897    -6354431.11149  -4928398.41645  24117355.642    24117359.817
 03  6  5 16 42 30.0000000  0 10G17G30G29G18G10G21G 6G26G15G16
  20881569.815    -2247850.96549  -1742914.38747  20881569.370    20881573.564
  23085827.432     7370030.90849   5730836.21346  23085827.733    23085832.576
  22930129.477    -4218474.50749  -3087185.27646  22930129.422    22930133.630
  23013520.077    -8958686.04549  -6963528.07246  23013519.723    23013524.121
  22713787.376     6404376.85749   4982461.59646  22713786.783    22713791.442
  21249875.876    -4207614.24049  -3103798.50647  21249875.507    21249877.946
  20267227.484    -2093497.29749  -1623113.81248  20267227.460    20267230.795
  22591251.022    -7305408.45349  -5673717.31046  22591251.243    22591256.371
  23908638.543    -6406017.54849  -4974516.26845  23908637.955    23908643.805
  24104569.778    -6421622.84349  -4980755.63445  24104569.544    24104573.448
 03  6  5 16 43  0.0000000  0 10G17G30G29G18G10G21G 6G26G15G16
  20878585.692    -2263532.59649  -1755133.84247  20878585.216    20878589.448
  23105023.540     7470906.54849   5809440.52746  23105023.815    23105028.682
  22924162.311    -4249831.66449  -3111619.41246  22924162.333    22924166.561
  22994796.685    -9057077.45149  -7040196.62946  22994796.324    22994800.858
  22731618.564     6498080.19449   5055477.13246  22731617.948    22731622.602
  21242325.525    -4247291.68249  -3134715.99247  21242325.114    21242327.578
  20266017.207    -2099857.33849  -1628069.69248  20266017.158    20266020.529
  22576847.217    -7381100.52049  -5732698.07546  22576847.483    22576852.618
  23893761.155    -6484198.43149  -5035436.37945  23893760.603    23893766.459
  24091865.337    -6488384.84449  -5032777.98045  24091865.119    24091868.883
 03  6  5 16 43 30.0000000  0 10G17G30G29G18G10G21G 6G26G15G16
  20875640.165    -2279011.59349  -1767195.40047  20875639.675    20875643.897
  23124245.816     7571920.03449   5888152.23846  23124246.137    23124251.073
  22918285.296    -4280715.87949  -3135685.02146  22918285.291    22918289.502
  22976118.504    -9155231.42549  -7116680.18546  22976118.145    22976122.675
  22749497.414     6592033.58549   5128687.52546  22749496.771    22749501.386
  21234813.861    -4286765.95049  -3165475.16047  21234813.464    21234815.864
  20264889.298    -2105784.31749  -1632688.12448  20264889.289    20264892.673
  22562512.122    -7456432.13449  -5791397.98446  22562512.368    22562517.365
  23878902.316    -6562281.41549  -5096280.20145  23878901.841    23878907.759
  24079242.871    -6554715.34749  -5084464.05845  24079242.787    24079246.672
 03  6  5 16 44  0.0000000  0 10G17G30G29G18G10G21G 6G26G15G16
  20872733.166    -2294287.88149  -1779099.00247  20872732.708    20872736.905
  23143493.854     7673068.21249   5966968.92346  23143494.142    23143498.969
  22912498.665    -4311125.12749  -3159380.52846  22912498.608    22912502.795
  22957485.972    -9253145.99549  -7192977.19646  22957485.613    22957490.155
  22767423.338     6686234.46149   5202090.74946  22767422.660    22767427.259
  21227340.753    -4326037.32049  -3196076.22147  21227340.388    21227342.769
  20263844.092    -2111276.94049  -1636968.09548  20263844.083    20263847.470
  22548246.075    -7531399.95049  -5849814.41246  22548246.384    22548251.356
  23864062.263    -6640266.40749  -5157047.66745  23864061.744    23864067.644
  24066703.198    -6620611.85949  -5135811.98445  24066703.048    24066706.941
 03  6  5 16 44 30.0000000  0 10G17G30G29G18G10G21G 6G26G15G16
  20869864.622    -2309362.14149  -1790845.17747  20869864.174    20869868.376
  23162766.944     7774348.18849   6045888.31246  23162767.170    23162771.957
  22906802.715    -4341057.72149  -3182704.60746  22906802.651    22906806.799
  22938899.367    -9350819.33049  -7269086.22346  22938899.030    22938903.466
  22785395.792     6780679.92749   5275684.57046  22785395.119    22785399.730
  21219906.152    -4365106.32249  -3226519.59447  21219905.795    21219908.194
  20262881.730    -2116334.20249  -1640908.82548  20262881.709    20262885.091
  22534049.896    -7606000.35349  -5907944.52846  22534050.192    22534055.339
  23849240.815    -6718153.17849  -5217738.59545  23849240.255    23849246.390
  24054246.435    -6686072.54049  -5186820.29545  24054246.212    24054250.116
 03  6  5 16 45  0.0000000  0 10G17G30G29G18G10G21G 6G26G15G16
  20867034.538    -2324234.47249  -1802434.01547  20867034.093    20867038.268
  23182064.380     7875757.07149   6124908.13946  23182064.670    23182069.421
  22901197.722    -4370511.74649  -3205655.77646  22901197.721    22901201.876
  22920359.089    -9448249.14049  -7345005.50146  22920358.826    22920363.114
  22803414.224     6875367.35549   5349466.93246  22803413.565    22803418.193
  21212510.295    -4403972.16549  -3256804.67047  21212509.905    21212512.300
  20262002.473    -2120954.81449  -1644509.31048  20262002.438    20262005.827
  22519924.435    -7680230.02249  -5965785.78546  22519924.750    22519929.858
  23834438.156    -6795941.90249  -5278353.12245  23834437.682    23834443.827
  24041872.910    -6751095.50349  -5237487.51245  24041872.609    24041876.527
 03  6  5 16 45 30.0000000  0 10G17G30G29G18G10G21G 6G26G15G16
  20864242.848    -2338904.97149  -1813865.57747  20864242.395    20864246.576
  23201385.825     7977291.84449   6204026.05546  23201386.085    23201390.874
  22895684.166    -4399485.49149  -3228232.71146  22895684.158    22895688.344
  22901865.461    -9545433.69249  -7420733.64946  22901865.219    22901869.438
  22821478.262     6970294.11449   5423435.77846  22821477.550    22821482.203
  21205152.800    -4442635.75649  -3286932.14247  21205152.428    21205154.865
  20261206.547    -2125137.57049  -1647768.60548  20261206.499    20261209.892
  22505870.291    -7754085.43249  -6023335.40546  22505870.550    22505875.624
  23819654.242    -6873632.33649  -5338891.04545  23819653.737    23819659.784
  24029583.141    -6815678.66049  -5287812.03345  24029582.766    24029586.817
 03  6  5 16 46  0.0000000  0 10G17G30G29G18G10G21G 6G26G15G16
  20861489.408    -2353374.48749  -1825140.53047  20861488.952    20861493.134
  23220730.675     8078949.21749   6283239.51046  23220730.972    23220735.743
  22890262.258    -4427977.57749  -3250434.32046  22890262.301    22890266.429
  22883418.812    -9642371.39149  -7496269.45746  22883418.569    22883422.701
  22839587.194     7065457.18349   5497588.77546  22839586.493    22839591.162
  21197833.883    -4481097.06049  -3316901.99247  21197833.485    21197835.976
  20260494.104    -2128881.61449  -1650686.04748  20260494.062    20260497.470
  22491888.015    -7827563.61749  -6080591.07146  22491888.240    22491893.169
  23804888.991    -6951224.66749  -5399352.53245  23804888.459    23804894.396
  24017377.332    -6879820.36549  -5337792.56545  24017377.127    24017381.062
 03  6  5 16 46 30.0000000  0 10G17G30G29G18G10G21G 6G26G15G16
  20858774.214    -2367642.72749  -1836258.64347  20858773.761    20858777.970
  23240098.328     8180726.72349   6362546.57046  23240098.655    23240103.448
  22884932.491    -4455985.77349  -3272258.86746  22884932.531    22884936.636
  22865019.664    -9739059.70649  -7571610.94946  22865019.347    22865023.363
  22857740.612     7160854.09349   5571923.98146  22857739.946    22857744.636
  21190553.526    -4519355.42349  -3346713.70747  21190553.146    21190555.632
  20259865.468    -2132185.17649  -1653260.25148  20259865.407    20259868.820
  22477978.065    -7900660.53549  -6137549.64446  22477978.260    22477983.190
  23790142.340    -7028718.57149  -5459737.31545  23790141.848    23790147.751
  24005256.053    -6943517.91749  -5387426.99245  24005255.807    24005259.733
 03  6  5 16 47  0.0000000  0 10G17G30G29G18G10G21G 6G26G15G16
  20856097.282    -2381710.06849  -1847220.21347  20856096.835    20856101.051
  23259488.220     8282621.37949   6441944.92146  23259488.571    23259493.478
  22879695.106    -4483508.36949  -3293705.01746  22879695.137    22879699.235
  22846668.148    -9835497.05549  -7646756.87346  22846667.862    22846671.867
  22875937.982     7256481.89849   5646439.09746  22875937.298    22875941.998
  21183311.785    -4557411.10349  -3376367.48747  21183311.409    21183313.886
  20259320.812    -2135047.39549  -1655490.56148  20259320.754    20259324.162
  22464141.279    -7973373.03349  -6194208.68046  22464141.468    22464146.326
  23775414.407    -7106114.00049  -5520045.37545  23775413.974    23775419.897
  23993219.619    -7006769.52949  -5436713.98545  23993219.330    23993223.237
 03  6  5 16 47 30.0000000  0 10G17G30G29G18G10G21G 6G26G15G16
  20853458.573    -2395576.63349  -1858025.33247  20853458.111    20853462.346
  23278899.916     8384630.45749   6521432.42146  23278900.303    23278905.205
  22874550.512    -4510543.57349  -3314771.39446  22874550.478    22874554.651
  22828364.849    -9931681.11149  -7721705.44146  22828364.592    22828368.595
  22894178.845     7352338.30149   5721132.34946  22894178.200    22894182.954
  21176108.642    -4595263.97149  -3405863.22647  21176108.275    21176110.742
  20258860.421    -2137466.82849  -1657375.84648  20258860.373    20258863.750
  22450378.207    -8045697.41049  -6250565.28146  22450378.506    22450383.390
  23760705.348    -7183410.34449  -5580276.22245  23760704.876    23760710.835
  23981268.384    -7069573.26749  -5485651.96045  23981268.124    23981272.233
 03  6  5 16 48  0.0000000  0 10G17G30G29G18G10G21G 6G26G15G16
  20850857.982    -2409242.91749  -1868674.39347  20850857.532    20850861.755
  23298332.820     8486750.58049   6601006.46646  23298333.199    23298338.094
  22869498.774    -4537090.01049  -3335456.90246  22869498.775    22869503.009
  22810110.068   -10027610.50849  -7796455.55446  22810109.809    22810113.752
  22912462.785     7448420.25749   5796001.34946  22912462.072    22912466.801
  21168944.053    -4632914.41549  -3435201.23047  21168943.685    21168946.096
  20258484.417    -2139442.72949  -1658915.51848  20258484.363    20258487.727
  22436689.803    -8117630.65149  -6306617.11546  22436690.062    22436694.857
  23746015.052    -7260607.91649  -5640430.11345  23746014.537    23746020.641
  23969402.706    -7131927.28849  -5534239.45245  23969402.398    23969406.726
 03  6  5 16 48 30.0000000  0 10G17G30G29G18G10G21G 6G26G15G16
  20848295.350    -2422709.65649  -1879167.96247  20848294.896    20848299.118
  23317786.306     8588978.65649   6680664.61946  23317786.682    23317791.584
  22864540.297    -4563146.15449  -3355760.38546  22864540.428    22864544.642
  22791904.106   -10123283.41749  -7871005.82946  22791903.813    22791907.810
  22930789.059     7544724.94549   5871043.91346  22930788.325    22930793.023
  21161817.873    -4670363.01549  -3464381.95147  21161817.478    21161819.854
  20258193.029    -2140974.12749  -1660108.82448  20258192.975    20258196.327
  22423076.418    -8189169.68849  -6362361.75146  22423076.687    22423081.426
  23731343.595    -7337706.99249  -5700507.24045  23731343.093    23731349.130
  23957623.012    -7193829.81849  -5582475.18545  23957622.822    23957627.052
 03  6  5 16 49  0.0000000  0 10G17G30G29G18G10G21G 6G26G15G16
  20845770.733    -2435976.75349  -1889505.96247  20845770.273    20845774.495
  23337259.835     8691311.93549   6760404.73346  23337260.201    23337265.141
  22859675.674    -4588710.17849  -3375680.36946  22859675.816    22859680.010
  22773747.345   -10218697.62849  -7945354.52046  22773747.103    22773751.074
  22949157.202     7641249.74849   5946257.98646  22949156.479    22949161.193
  21154730.154    -4707609.23949  -3493404.98447  21154729.765    21154732.126
  20257986.439    -2142059.76649  -1660954.78348  20257986.388    20257989.729
  22409538.792    -8260310.77049  -6417796.29646  22409539.049    22409543.755
  23716690.921    -7414707.15249  -5760507.30745  23716690.407    23716696.432
  23945929.704    -7255279.07149  -5630357.72445  23945929.458    23945933.656
 03  6  5 16 49 30.0000000  0 10G17G30G29G18G10G21G 6G26G15G16
  20843283.962    -2449044.73949  -1899688.81447  20843283.525    20843287.752
  23356752.700     8793747.32849   6840224.41546  23356753.056    23356758.173
  22854904.973    -4613780.87049  -3395215.94446  22854905.068    22854909.234
  22755640.218   -10313851.62949  -8019500.42846  22755639.938    22755643.896
  22967566.714     7737991.90149   6021641.41846  22967565.955    22967570.684
  21147680.829    -4744653.81849  -3522270.88647  21147680.415    21147682.818
  20257864.853    -2142698.77449  -1661452.71748  20257864.812    20257868.156
  22396077.303    -8331050.97349  -6472918.48446  22396077.569    22396082.305
  23702057.082    -7491608.49349  -5820430.34445  23702056.508    23702062.564
  23934322.689    -7316273.21549  -5677885.60145  23934322.534    23934326.915
 03  6  5 16 50  0.0000000  0 10G17G30G29G18G10G21G 6G26G15G16
  20840835.125    -2461913.45649  -1909716.38847  20840834.660    20840838.930
  23376264.522     8896282.21349   6920121.61446  23376264.859    23376270.017
  22850228.371    -4638356.26949  -3414365.56446  22850228.486    22850232.670
  22737582.918   -10408743.40449  -8093442.00646  22737582.619    22737586.626
  22986017.040     7834948.95249   6097192.31346  22986016.372    22986021.108
  21140669.953    -4781495.95749  -3550979.03847  21140669.539    21140671.981
  20257828.502    -2142889.97649  -1661601.70948  20257828.447    20257831.806
  22382692.749    -8401386.62149  -6527725.43346  22382693.005    22382697.856
  23687442.086    -7568410.90449  -5880276.32845  23687441.526    23687447.534
  23922802.933    -7376809.99849  -5725057.08845  23922802.708    23922807.117
 03  6  5 16 50 30.0000000  0 10G17G30G29G18G10G21G 6G26G15G16
  20838424.070    -2474583.53249  -1919589.17747  20838423.620    20838427.904
  23395794.746     8998913.36549   7000093.85046  23395795.088    23395800.228
  22845646.382    -4662434.86649  -3433128.07746  22845646.418    22845650.655
  22719575.779   -10503370.98349  -8167177.71846  22719575.525    22719579.543
  23004507.804     7932118.11649   6172908.48446  23004507.051    23004511.804
  21133697.547    -4818135.93049  -3579529.66047  21133697.156    21133699.624
  20257877.500    -2142632.28949  -1661400.92648  20257877.453    20257880.826
  22369385.797    -8471314.39049  -6582214.55346  22369386.056    22369390.983
  23672845.862    -7645114.29549  -5940045.13745  23672845.330    23672851.377
  23911370.681    -7436887.73949  -5771870.88845  23911370.453    23911374.873
 03  6  5 16 51  0.0000000  0 10G17G30G29G18G10G21G 6G26G15G16
  20836050.863    -2487054.84949  -1929307.09447  20836050.412    20836054.677
  23415342.730     9101638.04749   7080138.96946  23415342.965    23415348.184
  22841159.158    -4686015.07849  -3451502.22846  22841159.175    22841163.439
  22701619.256   -10597732.38749  -8240706.01846  22701618.996    22701623.110
  23023038.306     8029496.51049   6248787.70746  23023037.603    23023042.441
  21126763.624    -4854573.86049  -3607922.85547  21126763.226    21126765.714
  20258012.161    -2141924.65649  -1660849.53448  20258012.120    20258015.509
  22356157.227    -8540831.13249  -6636383.39446  22356157.464    22356162.283
  23658268.479    -7721718.62949  -5999736.76045  23658268.022    23658273.912
  23900026.070    -7496504.52049  -5818325.51745  23900025.846    23900030.148
 03  6  5 16 51 30.0000000  0 10G17G30G29G18G10G21G 6G26G15G16
  20833715.421    -2499327.73549  -1938870.38547  20833714.989    20833719.210
  23434907.847     9204453.41949   7160254.74946  23434908.111    23434913.461
  22836767.117    -4709095.36249  -3469486.83846  22836767.165    22836771.371
  22683713.627   -10691826.06849  -8314025.70546  22683713.392    22683717.564
  23041608.103     8127081.54749   6324827.91746  23041607.377    23041612.324
  21119868.165    -4890809.73049  -3636158.59547  21119867.790    21119870.261
  20258232.637    -2140765.99349  -1659946.69148  20258232.597    20258235.991
  22343007.537    -8609933.42249  -6690229.28446  22343007.777    22343012.506
  23643710.001    -7798223.69549  -6059351.02445  23643709.511    23643715.417
  23888769.477    -7555658.52549  -5864419.54545  23888769.299    23888773.535
 03  6  5 16 52  0.0000000  0 10G17G30G29G18G10G21G 6G26G15G16
  20831417.752    -2511402.16649  -1948279.04047  20831417.320    20831421.542
  23454489.666     9307356.54649   7240438.87746  23454489.974    23454495.459
  22832470.471    -4731674.16149  -3487080.66546  22832470.500    22832474.726
  22665859.462   -10785649.99949  -8387135.21046  22665859.232    22665863.388
  23060216.897     8224870.92149   6401027.37446  23060216.105    23060221.112
  21113011.153    -4926843.53449  -3664236.88047  21113010.787    21113013.267
  20258539.167    -2139155.22149  -1658691.55548  20258539.115    20258542.513
  22329937.288    -8678617.76849  -6743749.49846  22329937.526    22329942.280
  23629170.462    -7874629.18149  -6118887.71245  23629169.996    23629175.867
  23877601.237    -7614347.69749  -5910151.35845  23877601.071    23877605.232
 03  6  5 16 52 30.0000000  0 10G17G30G29G18G10G21G 6G26G15G16
  20829157.697    -2523278.93349  -1957533.67047  20829157.235    20829161.453
  23474087.696     9410344.46049   7320689.09346  23474088.047    23474093.541
  22828269.646    -4753749.97449  -3504282.57146  22828269.618    22828273.813
  22648056.988   -10879202.15749  -8460032.92546  22648056.767    22648060.894
  23078863.911     8322861.79849   6477383.83246  23078863.195    23078868.102
  21106192.572    -4962675.38449  -3692157.79547  21106192.187    21106194.690
  20258931.844    -2137091.53349  -1657083.49548  20258931.813    20258935.218
  22316947.127    -8746881.04449  -6796941.61946  22316947.409    22316952.232
  23614649.789    -7950935.31549  -6178346.97345  23614649.349    23614655.212
  23866521.834    -7672570.54449  -5955519.79845  23866521.591    23866525.898
 03  6  5 16 53  0.0000000  0 10G17G30G29G18G10G21G 6G26G15G16
  20826935.188    -2534958.34249  -1966634.51447  20826934.733    20826938.933
  23493701.295     9513414.21149   7401003.07546  23493701.679    23493707.072
  22824164.759    -4775321.60749  -3521091.60246  22824164.640    22824168.844
  22630306.570   -10972481.17049  -8532717.80546  22630306.345    22630310.387
  23097548.677     8421051.25549   6553895.04546  23097548.010    23097552.989
  21099412.421    -4998305.32849  -3719921.38247  21099412.051    21099414.526
  20259410.956    -2134574.03349  -1655121.81948  20259410.922    20259414.314
  22304037.688    -8814720.13549  -6849803.19146  22304037.916    22304042.855
  23600148.012    -8027142.03649  -6237728.78045  23600147.618    23600153.444
  23855531.440    -7730325.24249  -6000523.45545  23855531.199    23855535.418
 03  6  5 16 53 30.0000000  0 10G17G30G29G18G10G21G 6G26G15G16
  20824750.295    -2546440.13249  -1975581.37347  20824749.836    20824754.017
  23513329.932     9616562.83449   7481378.52146  23513330.290    23513335.546
  22820155.995    -4796387.47249  -3537506.53146  22820155.885    22820160.117
  22612608.478   -11065485.27149  -8605188.46146  22612608.277    22612612.267
  23116270.791     8519436.73749   6630558.98846  23116270.149    23116275.238
  21092670.701    -5033733.34349  -3747527.61947  21092670.308    21092672.791
  20259976.591    -2131601.70749  -1652805.73548  20259976.560    20259979.938
  22291209.648    -8882131.65549  -6902331.61646  22291209.897    22291214.783
  23585665.135    -8103249.09249  -6297032.91245  23585664.894    23585670.640
  23844630.554    -7787609.96749  -6045160.89445  23844630.336    23844634.458
 03  6  5 16 54  0.0000000  0 10G17G30G29G18G10G21G 6G26G15G16
  20822602.946    -2557724.45849  -1984374.36047  20822602.492    20822606.712
  23532972.957     9719787.45249   7561813.17345  23532973.312    23532978.519
  22816243.752    -4816946.23349  -3553526.32046  22816243.643    22816247.927
  22594963.134   -11158212.37449  -8677443.28746  22594962.903    22594966.808
  23135029.774     8618015.62749   6707373.64846  23135029.132    23135034.248
  21085967.367    -5068959.50049  -3774976.56847  21085966.959    21085969.444
  20260628.994    -2128173.52649  -1650134.43648  20260628.958    20260632.350
  22278463.562    -8949112.53449  -6954524.45046  22278463.800    22278468.672
  23571201.418    -8179256.26349  -6356259.21945  23571201.167    23571206.907
  23833819.543    -7844423.10849  -6089430.88145  23833819.270    23833823.282
 03  6  5 16 54 30.0000000  0 10G17G30G29G18G10G21G 6G26G15G16
  20820492.970    -2568812.31449  -1993014.25647  20820492.553    20820496.784
  23552629.697     9823084.92249   7642304.61145  23552630.173    23552635.367
  22812428.142    -4836996.68749  -3569150.00246  22812428.174    22812432.430
  22577370.716   -11250660.89549  -8749481.05046  22577370.452    22577374.396
  23153825.118     8716785.09849   6784336.81646  23153824.351    23153829.469
  21079302.385    -5103984.24549  -3802268.57647  21079301.993    21079304.490
  20261368.230    -2124288.84649  -1647107.42248  20261368.187    20261371.622
  22265800.165    -9015659.58749  -7006379.25646  22265800.397    22265805.148
  23556756.604    -8255163.95449  -6415408.01745  23556756.167    23556762.072
  23823098.418    -7900763.12849  -6133332.18645  23823098.122    23823102.169
 03  6  5 16 55  0.0000000  0 10G17G30G29G18G10G21G 6G26G15G16
  20818420.461    -2579703.66649  -2001501.03047  20818420.028    20818424.243
  23572299.871     9926452.70149   7722850.82545  23572300.425    23572305.755
  22808709.689    -4856537.11649  -3584376.27346  22808709.709    22808713.952
  22559831.625   -11342828.80349  -8821300.13746  22559831.394    22559835.477
  23172656.163     8815742.78749   6861446.62646  23172655.404    23172660.539
  21072675.803    -5138807.06349  -3829403.23547  21072675.420    21072677.940
  20262194.526    -2119946.45649  -1643723.74648  20262194.485    20262197.964
  22253219.853    -9081769.35449  -7057893.30446  22253220.046    22253224.797
  23542330.738    -8330971.94149  -6474479.11445  23542330.195    23542336.151
  23812467.614    -7956627.93349  -6176863.17445  23812467.312    23812471.530
 03  6  5 16 55 30.0000000  0 10G17G30G29G18G10G21G 6G26G15G16
  20816385.327    -2590398.39249  -2009834.59547  20816384.887    20816389.097
  23591983.133    10029887.63249   7803449.37445  23591983.619    23591988.847
  22805088.602    -4875566.28549  -3599204.16846  22805088.606    22805092.806
  22542346.188   -11434714.80649  -8892899.56346  22542345.959    22542350.133
  23191522.479     8914885.78649   6938700.84946  23191521.723    23191526.891
  21066087.623    -5173428.06649  -3856380.64047  21066087.211    21066089.773
  20263108.090    -2115145.59449  -1639982.82548  20263108.062    20263111.560
  22240723.349    -9147438.81049  -7109064.25846  22240723.558    22240728.286
  23527923.950    -8406680.09649  -6533472.44445  23527923.397    23527929.354
  23801927.763    -8012015.84949  -6220022.58745  23801927.438    23801931.539
 03  6  5 16 56  0.0000000  0 11G17G30G29G18G10G21G 6G26G15G23G16
  20814387.137    -2600899.06049  -2018016.94147  20814386.720    20814390.900
  23611678.169    10133384.75249   7884096.37245  23611678.635    23611683.759
  22801564.590    -4894085.08149  -3613634.36346  22801564.565    22801568.717
  22524914.442   -11526318.78949  -8964279.24846  22524914.227    22524918.400
  23210423.215     9014209.59749   7016095.95946  23210422.559    23210427.686
  21059537.412    -5207849.56949  -3883202.58647  21059537.046    21059539.629
  20264108.674    -2109887.45249  -1635885.58448  20264108.639    20264112.159
  22228310.799    -9212666.72549  -7159891.15346  22228311.010    22228315.815
  23513535.765    -8482290.26649  -6592389.42245  23513535.189    23513541.152
  24522215.192    -1601824.75659   -684131.26045  24522214.704    24522220.502
  23791478.384    -8066927.48349  -6262810.85045  23791478.072    23791482.150
 03  6  5 16 56 30.0000000  0 11G17G30G29G18G10G21G 6G26G15G23G16
  20812426.128    -2611204.31749  -2026047.01547  20812425.707    20812429.885
  23631384.714    10236942.68849   7964790.74145  23631385.182    23631390.266
  22798138.087    -4912090.71849  -3627664.70946  22798138.167    22798142.349
  22507536.965   -11617637.91749  -9035436.94746  22507536.737    22507540.864
  23229358.106     9113712.78649   7093630.84546  23229357.440    23229362.607
  21053025.467    -5242070.02349  -3909867.87147  21053025.114    21053027.662
  20265196.721    -2104169.80349  -1631430.28048  20265196.696    20265200.192
  22215983.188    -9277448.74749  -7210370.60946  22215983.425    22215988.144
  23499166.498    -8557801.03449  -6651228.93745  23499166.006    23499171.885
  24502809.662    -1703801.97649   -763593.88245  24502807.909    24502815.346
  23781120.234    -8121359.69149  -6305225.55045  23781120.022    23781124.059
 03  6  5 16 57  0.0000000  0 11G17G30G29G18G10G21G 6G26G15G23G16
  20810502.548    -2621312.88749  -2033923.83347  20810502.089    20810506.305
  23651102.611    10340560.37149   8045531.67545  23651103.081    23651108.041
  22794809.978    -4929580.13749  -3641292.80346  22794810.021    22794814.171
  22490214.406   -11708668.37849  -9106369.71846  22490214.169    22490218.235
  23248326.923     9213394.53749   7171304.84946  23248326.229    23248331.493
  21046552.096    -5276087.88649  -3936375.28947  21046551.755    21046554.269
  20266372.709    -2097990.00349  -1626614.86848  20266372.682    20266376.164
  22203741.406    -9341779.73649  -7260498.59446  22203741.610    22203746.346
  23484816.471    -8633210.61149  -6709989.62145  23484815.940    23484821.850
  24483433.362    -1805624.59449   -842936.01544  24483432.352    24483438.724
  23770854.057    -8175309.00049  -6347263.96545  23770853.850    23770857.870
 03  6  5 16 57 30.0000000  0 11G17G30G29G18G10G21G 6G26G15G23G16
  20808616.294    -2631225.27349  -2041647.77947  20808615.855    20808620.046
  23670831.284    10444234.56649   8126316.66445  23670831.714    23670836.533
  22791580.161    -4946552.18649  -3654517.75546  22791580.248    22791584.499
  22472947.097   -11799408.76249  -9177076.46446  22472946.863    22472950.818
  23267329.247     9313252.18649   7249115.94046  23267328.623    23267333.811
  21040117.286    -5309903.13949  -3962724.83147  21040116.920    21040119.416
  20267636.814    -2091347.17849  -1621438.65748  20267636.777    20267640.271
  22191585.982    -9405656.92149  -7310272.97046  22191586.195    22191590.828
  23470485.649    -8708519.23049  -6768671.60745  23470485.182    23470491.055
  24464086.736    -1907290.98249   -922156.45944  24464086.207    24464092.419
  23760679.902    -8228774.19549  -6388925.15645  23760679.714    23760683.624
 03  6  5 16 58  0.0000000  0 11G17G30G29G18G10G21G 6G26G15G23G16
  20806767.254    -2640942.09149  -2049219.33447  20806766.795    20806771.000
  23690570.052    10547961.83849   8207143.00945  23690570.490    23690575.206
  22788449.103    -4963006.48049  -3667339.25246  22788449.105    22788453.334
  22455735.184   -11889857.97949  -9247556.30746  22455734.938    22455738.855
  23286364.409     9413282.25449   7327061.39846  23286363.816    23286368.931
  21033720.842    -5343516.72449  -3988917.22647  21033720.488    21033722.966
  20268989.034    -2084241.20949  -1615901.55048  20268989.011    20268992.531
  22179517.356    -9469077.74549  -7359691.74246  22179517.580    22179522.158
  23456174.028    -8783727.48949  -6827275.41345  23456173.609    23456179.290
  24444770.164    -2008799.94049  -1001254.12644  24444769.339    24444775.809
  23750598.060    -8281754.11049  -6430208.18245  23750597.874    23750601.891
 03  6  5 16 58 30.0000000  0 11G17G30G29G18G10G21G 6G26G15G23G16
  20804955.422    -2650463.44849  -2056638.58347  20804954.979    20804959.180
  23710318.422    10651739.20449   8288008.38745  23710318.818    23710323.509
  22785416.581    -4978941.70549  -3679756.29446  22785416.684    22785420.888
  22438578.932   -11980014.26349  -9317807.90046  22438578.705    22438582.620
  23305431.851     9513482.38049   7405139.35446  23305431.285    23305436.389
  21027362.778    -5376928.48749  -4014952.36647  21027362.430    21027364.867
  20270429.518    -2076671.36649  -1610002.98448  20270429.494    20270433.043
  22167536.135    -9532039.07649  -7408752.47446  22167536.325    22167540.928
  23441881.570    -8858835.07849  -6885800.75745  23441881.123    23441886.827
  24425483.703    -2110149.65949  -1080227.67445  24425483.099    24425489.851
  23740608.959    -8334247.11849  -6471111.82345  23740608.838    23740612.774
 03  6  5 16 59  0.0000000  0 11G17G30G29G18G10G21G 6G26G15G23G16
  20803180.694    -2659789.69749  -2063905.79747  20803180.258    20803184.486
  23730075.564    10755563.55649   8368910.35945  23730075.961    23730080.886
  22782483.199    -4994356.93449  -3691768.13146  22782483.295    22782487.455
  22421478.689   -12069876.24349  -9387830.16646  22421478.504    22421482.405
  23324531.197     9613849.46149   7483347.39446  23324530.524    23324535.649
  21021043.129    -5410138.60949  -4040830.38147  21021042.775    21021045.212
  20271958.383    -2068637.17749  -1603742.58948  20271958.355    20271961.911
  22155642.925    -9594537.97749  -7457452.86846  22155643.108    22155647.736
  23427608.316    -8933842.12749  -6944247.75945  23427607.855    23427613.389
  24406228.077    -2211338.50249  -1159075.92145  24406227.481    24406234.539
  23730712.526    -8386252.19949  -6511635.25045  23730712.351    23730716.460
 03  6  5 16 59 30.0000000  0 11G17G30G29G18G10G21G 6G26G15G23G16
  20801443.109    -2668920.73849  -2071020.90247  20801442.661    20801446.890
  23749841.239    10859432.65149   8449847.17445  23749841.548    23749846.687
  22779649.037    -5009250.56849  -3703373.55046  22779649.117    22779653.323
  22404434.837   -12159441.82149  -9457621.47846  22404434.673    22404438.543
  23343661.896     9714381.56349   7561684.03546  23343661.219    23343666.264
  21014761.890    -5443146.68249  -4066550.94947  21014761.523    21014763.969
  20273575.913    -2060137.31249  -1597119.33848  20273575.885    20273579.418
  22143838.389    -9656571.01549  -7505790.24546  22143838.640    22143843.260
  23413354.174    -9008748.03749  -7002615.94345  23413353.643    23413359.235
  24387003.328    -2312364.13549  -1237797.03245  24387002.820    24387010.175
  23720909.405    -8437767.08049  -6551776.70645  23720909.306    23720913.405
 03  6  5 17  0  0.0000000  0 11G17G30G29G18G10G21G 6G26G15G23G16
  20799742.465    -2677857.68549  -2077984.76447  20799742.038    20799746.260
  23769614.743    10963343.24549   8530816.31445  23769615.027    23769620.413
  22776914.281    -5023621.80549  -3714571.90146  22776914.350    22776918.542
  22387447.708   -12248709.64049  -9527180.76446  22387447.503    22387451.439
  23362823.517     9815075.87349   7640147.08746  23362822.774    23362827.777
  21008519.114    -5475952.79149  -4092114.14847  21008518.765    21008521.182
  20275282.066    -2051171.34949  -1590132.88848  20275282.044    20275285.568
  22132123.090    -9718135.50049  -7553762.52546  22132123.300    22132127.851
  23399119.185    -9083553.25849  -7060905.67745  23399118.617    23399124.223
  24367809.980    -2413225.08949  -1316389.79645  24367809.397    24367816.967
  23711200.141    -8488790.51649  -6591535.23545  23711200.027    23711204.015
 03  6  5 17  0 30.0000000  0 11G17G30G29G18G10G21G 6G26G15G23G16
  20798078.854    -2686600.35949  -2084797.24747  20798078.410    20798082.628
  23789395.500    11067291.98449   8611815.20745  23789395.874    23789401.387
  22774279.226    -5037469.73949  -3725362.48046  22774279.194    22774283.374
  22370517.503   -12337678.36149  -9596506.99246  22370517.273    22370521.219
  23382015.303     9915929.51749   7718734.30245  23382014.618    23382019.578
  21002314.632    -5508557.78049  -4117520.63447  21002314.270    21002316.648
  20277077.009    -2041738.90249  -1582782.94848  20277076.992    20277080.521
  22120497.425    -9779228.63649  -7601367.51346  22120497.668    22120502.193
  23384903.197    -9158258.30349  -7119117.35345  23384902.639    23384908.281
  24348648.277    -2513919.66249  -1394852.95045  24348647.673    24348655.609
  23701584.645    -8539321.32249  -6630909.86845  23701584.405    23701588.395
 03  6  5 17  1  0.0000000  0 11G17G30G29G18G10G21G 6G26G15G23G16
  20796452.118    -2695148.91549  -2091458.47447  20796451.646    20796455.903
  23809183.155    11171276.66949   8692842.13345  23809183.535    23809189.092
  22771743.754    -5050793.02049  -3735744.24846  22771743.850    22771748.002
  22353644.682   -12426345.72649  -9665598.40346  22353644.434    22353648.327
  23401236.956    10016939.78949   7797443.53646  23401236.212    23401241.402
  20996148.479    -5540961.06949  -4142769.95447  20996148.089    20996150.475
  20278960.954    -2031838.88949  -1575068.66948  20278960.898    20278964.428
  22108962.070    -9839846.93649  -7648602.50346  22108962.284    22108966.843
  23370706.421    -9232862.39249  -7177250.35245  23370705.867    23370711.578
  24329518.705    -2614445.52849  -1473184.62045  24329518.106    24329526.116
  23692062.946    -8589357.65949  -6669899.22145  23692062.676    23692066.676
 03  6  5 17  1 30.0000000  0 11G17G30G29G18G10G21G 6G26G15G23G16
  20794862.356    -2703503.24049  -2097968.35147  20794861.907    20794866.152
  23828977.118    11275294.15049   8773894.61545  23828977.572    23828983.189
  22769308.426    -5063590.58249  -3745716.36746  22769308.476    22769312.652
  22336829.482   -12514710.27649  -9734453.85946  22336829.225    22336833.093
  23420487.955    10118104.32149   7876272.96946  23420487.234    23420492.519
  20990020.672    -5573162.70549  -4167862.13647  20990020.311    20990022.686
  20280933.993    -2021470.52349  -1566989.43948  20280933.942    20280937.467
  22097517.648    -9899987.56049  -7695465.29046  22097517.887    22097522.446
  23356528.858    -9307365.54049  -7235304.69245  23356528.371    23356534.010
  24310421.307    -2714801.10849  -1551383.56145  24310420.797    24310428.801
  23682635.663    -8638898.05349  -6708502.12745  23682635.502    23682639.461
 03  6  5 17  2  0.0000000  0 11G17G30G29G18G10G21G 6G26G15G23G16
  20793309.515    -2711663.46049  -2104326.97547  20793309.052    20793313.339
  23848776.823    11379341.68449   8854970.49145  23848777.254    23848782.966
  22766973.387    -5075861.37949  -3755278.01346  22766973.472    22766977.615
  22320072.183   -12602770.26649  -9803071.99346  22320071.916    22320075.760
  23439767.893    10219420.98449   7955220.95746  23439767.157    23439772.570
  20983931.287    -5605162.57249  -4192797.09947  20983930.917    20983933.340
  20282996.303    -2010633.09549  -1558544.70148  20282996.264    20282999.793
  22086164.673    -9959647.45049  -7741953.44846  22086164.896    22086169.540
  23342370.680    -9381767.61049  -7293280.25046  23342370.234    23342375.737
  24291356.599    -2814984.53149  -1629448.36645  24291356.104    24291364.372
  23673303.160    -8687941.38649  -6746717.69845  23673302.804    23673306.906
 03  6  5 17  2 30.0000000  0 11G17G30G29G18G10G21G 6G26G15G23G16
  20791793.507    -2719629.99549  -2110534.67547  20791793.061    20791797.364
  23868581.676    11483416.23949   8936067.41845  23868582.035    23868587.836
  22764738.758    -5087604.61249  -3764428.58046  22764738.779    22764742.914
  22303373.086   -12690524.29949  -9871451.72546  22303372.836    22303376.676
  23459076.323    10320886.74749   8034285.12146  23459075.579    23459080.997
  20977880.203    -5636961.12149  -4217575.18847  20977879.826    20977882.276
  20285147.976    -1999326.03349  -1549734.01448  20285147.944    20285151.463
  22074903.814   -10018823.93349  -7788064.94346  22074904.002    22074908.601
  23328231.590    -9456068.70849  -7351177.12446  23328231.182    23328236.687
  24272325.264    -2914994.12649  -1707377.77845  24272324.770    24272333.110
  23664065.241    -8736486.21049  -6784544.80345  23664064.998    23664069.135
 03  6  5 17  3  0.0000000  0 11G17G30G29G18G10G21G 6G26G15G23G16
  20790314.309    -2727403.31649  -2116591.82147  20790313.875    20790318.159
  23888390.961    11587515.01149   9017183.19245  23888391.371    23888397.335
  22762604.771    -5098818.99049  -3773167.06346  22762604.737    22762608.863
  22286732.590   -12777970.68249  -9939591.72546  22286732.336    22286736.140
  23478412.656    10422499.28149   8113463.67045  23478411.863    23478417.222
  20971867.546    -5668558.07649  -4242196.19247  20971867.159    20971869.605
  20287389.183    -1987548.71649  -1540556.90448  20287389.153    20287392.650
  22063735.559   -10077513.55849  -7833797.07546  22063735.744    22063740.319
  23314111.860    -9530268.63749  -7408995.18646  23314111.337    23314116.891
  24253327.317    -3014828.05849  -1785170.33745  24253326.871    24253335.369
  23654922.867    -8784530.69149  -6821982.07145  23654922.618    23654926.537
 03  6  5 17  3 30.0000000  0 11G17G30G29G18G10G21G 6G26G15G23G16
  20788871.888    -2734983.43049  -2122498.41447  20788871.434    20788875.722
  23908204.506    11691635.37849   9098315.82945  23908204.994    23908210.909
  22760571.426    -5109503.96549  -3781493.00946  22760571.444    22760575.559
  22270150.946   -12865107.74949 -10007490.70246  22270150.666    22270154.445
  23497776.208    10524255.79649   8192754.39746  23497775.598    23497780.949
  20965893.196    -5699953.27649  -4266659.98347  20965892.805    20965895.287
  20289719.957    -1975300.52149  -1531012.86648  20289719.909    20289723.437
  22052660.347   -10135713.72949  -7879147.81246  22052660.542    22052665.132
  23300011.178    -9604367.46049  -7466734.46546  23300010.718    23300016.361
  24234363.300    -3114484.62149  -1862824.67945  24234362.880    24234371.070
  23645875.769    -8832073.75849  -6859028.60945  23645875.412    23645879.144
 03  6  5 17  4  0.0000000  0 11G17G30G29G18G10G21G 6G26G15G23G16
  20787466.285    -2742370.02549  -2128254.21847  20787465.837    20787470.093
  23928021.676    11795774.51849   9179463.10245  23928022.105    23928027.994
  22758639.151    -5119657.95549  -3789405.20646  22758639.162    22758643.343
  22253628.541   -12951933.57449 -10075147.15846  22253628.234    22253631.994
  23517166.957    10626154.12949   8272155.63845  23517166.304    23517171.686
  20959957.300    -5731146.60749  -4290966.47747  20959956.904    20959959.402
  20292140.403    -1962580.64449  -1521101.28648  20292140.374    20292143.946
  22041678.792   -10193421.20649  -7924114.62946  22041679.003    22041683.690
  23285929.866    -9678364.80549  -7524394.66146  23285929.397    23285935.101
  24215433.478    -3213961.80849  -1940339.25445  24215433.015    24215441.025
  23636924.368    -8879113.74449  -6895683.11145  23636923.938    23636927.895
 03  6  5 17  4 30.0000000  0 11G17G30G29G18G10G21G 6G26G15G23G16
  20786097.360    -2749563.85149  -2133859.80547  20786096.905    20786101.189
  23947841.809    11899929.14849   9260622.43845  23947842.194    23947847.983
  22756808.118    -5129280.72249  -3796903.48046  22756808.050    22756812.210
  22237165.556   -13038447.10449 -10142560.26546  22237165.271    22237168.966
  23536584.039    10728191.09949   8351664.89845  23536583.372    23536588.705
  20954059.749    -5762138.45549  -4315115.96847  20954059.357    20954061.848
  20294650.681    -1949388.90749  -1510822.02848  20294650.666    20294654.238
  22030791.508   -10250633.59649  -7968695.66646  22030791.760    22030796.434
  23271867.862    -9752261.18749  -7581976.20546  23271867.401    23271873.025
  24196537.912    -3313258.32149  -2017712.99145  24196537.416    24196545.512
  23628068.918    -8925649.84249  -6931945.02645  23628068.458    23628072.346
 03  6  5 17  5  0.0000000  0 11G17G30G29G18G10G21G 6G26G15G23G16
  20784765.186    -2756564.43649  -2139314.81347  20784764.747    20784769.018
  23967664.437    12004097.11049   9341792.17945  23967664.721    23967670.582
  22755078.394    -5138370.62249  -3803986.52146  22755078.297    22755082.431
  22220762.390   -13124646.23449 -10209728.37946  22220762.087    22220765.731
  23556027.082    10830365.06249   8431280.87145  23556026.432    23556031.822
  20948200.570    -5792928.66649  -4339108.33847  20948200.183    20948202.661
  20297251.050    -1935724.01449  -1500174.07148  20297251.025    20297254.585
  22019999.385   -10307347.32149  -8012888.14546  22019999.602    22020004.087
  23257825.197    -9826055.81249  -7639478.42746  23257824.723    23257830.318
  24177677.285    -3412371.79549  -2094944.08945  24177676.762    24177684.754
  23619309.588    -8971679.94249  -6967812.64345  23619309.233    23619313.087
 03  6  5 17  5 30.0000000  0 11G17G30G29G18G10G21G 6G26G15G23G16
  20783469.620    -2763372.75249  -2144620.00747  20783469.184    20783473.454
  23987488.969    12108275.28249   9422969.83345  23987489.336    23987495.214
  22753450.093    -5146927.16049  -3810653.96646  22753450.024    22753454.166
  22204419.216   -13210529.71849 -10276650.53846  22204418.930    22204422.618
  23575495.713    10932673.16649   8511001.42545  23575495.074    23575500.475
  20942379.817    -5823517.08449  -4362943.46947  20942379.422    20942381.861
  20299941.573    -1921585.50649  -1489157.06948  20299941.533    20299945.079
  22009302.435   -10363559.83349  -8056690.04946  22009302.697    22009307.188
  23243801.766    -9899748.94749  -7696901.57546  23243801.321    23243806.879
  24158851.743    -3511300.70149  -2172031.39445  24158851.215    24158859.014
  23610646.773    -9017202.85849  -7003285.03345  23610646.500    23610650.340
 03  6  5 17  6  0.0000000  0 11G17G30G29G18G10G21G 6G26G15G23G16
  20782210.820    -2769987.85049  -2149774.64047  20782210.375    20782214.647
  24007314.989    12212461.27549   9504153.59845  24007315.352    24007321.207
  22751923.545    -5154949.02149  -3816904.78246  22751923.471    22751927.691
  22188136.554   -13296095.78649 -10343325.36046  22188136.263    22188139.904
  23594989.496    11035113.35749   8590824.88645  23594988.839    23594994.208
  20936597.489    -5853903.43249  -4386621.14147  20936597.105    20936599.558
  20302722.400    -1906972.39449  -1477770.24448  20302722.358    20302725.879
  21998701.548   -10419267.82049  -8100098.81846  21998701.776    21998706.258
  23229797.761    -9973340.12249  -7754245.28145  23229797.266    23229802.874
  24140061.635    -3610042.79349  -2248973.11945  24140061.154    24140068.724
  23602080.842    -9062217.09449  -7038361.07745  23602080.490    23602084.493
 03  6  5 17  6 30.0000000  0 11G17G30G29G18G10G21G 6G26G15G23G16
  20780988.652    -2776410.56949  -2154779.36347  20780988.211    20780992.460
  24027141.910    12316651.86349   9585340.92445  24027142.315    24027148.099
  22750498.861    -5162435.73949  -3822738.60746  22750498.847    22750503.028
  22171914.564   -13381343.11549 -10409751.81746  22171914.253    22171917.855
  23614507.860    11137682.53049   8670748.85545  23614507.167    23614512.585
  20930853.576    -5884087.93749  -4410141.53547  20930853.192    20930855.625
  20305593.465    -1891884.84249  -1466013.72248  20305593.420    20305596.977
  21988197.060   -10474468.96149  -8143112.66146  21988197.348    21988201.777
  23215813.032   -10046829.56649  -7811509.72245  23215812.547    23215818.286
  24121307.161    -3708596.76949  -2325768.24345  24121306.638    24121314.236
  23593611.827    -9106721.98149  -7073040.18745  23593611.443    23593615.493
 03  6  5 17  7  0.0000000  0 11G17G30G29G18G10G21G 6G26G15G23G16
  20779803.113    -2782640.65549  -2159633.98147  20779802.632    20779806.908
  24046969.292    12420844.58049   9666529.91745  24046969.709    24046975.436
  22749176.287    -5169386.27649  -3828154.61646  22749176.233    22749180.439
  22155753.666   -13466269.30349 -10475928.02747  22155753.351    22155756.967
  23634050.276    11240378.62349   8750771.72745  23634049.538    23634054.976
  20925148.071    -5914070.40249  -4433504.49347  20925147.692    20925150.169
  20308555.004    -1876321.90449  -1453886.76548  20308554.950    20308558.559
  21977789.751   -10529160.05049  -8185729.04846  21977789.973    21977794.384
  23201847.747   -10120216.90749  -7868694.60645  23201847.305    23201853.050
  24102588.950    -3806960.50849  -2402415.23145  24102588.506    24102596.060
  23585240.036    -9150715.71049  -7107321.00845  23585239.558    23585243.715
 03  6  5 17  7 30.0000000  0 11G17G30G29G18G10G21G 6G26G15G23G16
  20778654.123    -2788678.46349  -2164338.77347  20778653.658    20778657.945
  24066796.437    12525036.48049   9747718.29645  24066796.853    24066802.492
  22747955.877    -5175799.95549  -3833152.30046  22747955.798    22747959.927
  22139653.976   -13550873.44949 -10541853.29647  22139653.677    22139657.280
  23653616.350    11343198.92549   8830891.37545  23653615.642    23653621.067
  20919481.032    -5943850.76549  -4456709.97147  20919480.645    20919483.163
  20311607.044    -1860283.17549  -1441389.05748  20311607.007    20311610.628
  21967479.933   -10583338.32049  -8227945.83946  21967480.130    21967484.513
  23187901.850   -10193502.18349  -7925799.95845  23187901.480    23187907.341
  24083907.279    -3905132.49249  -2478912.79145  24083906.898    24083914.282
  23576965.911    -9194197.19449  -7141202.67745  23576965.417    23576969.580
 03  6  5 17  8  0.0000000  0 11G17G30G29G18G10G21G 6G26G15G23G16
  20777541.626    -2794524.56949  -2168894.18347  20777541.168    20777545.457
  24086622.717    12629224.75749   9828903.82745  24086623.188    24086629.087
  22746837.689    -5181676.01149  -3837731.05946  22746837.582    22746841.732
  22123615.833   -13635154.04849 -10607526.44847  22123615.550    22123619.199
  23673205.700    11446141.14849   8911106.04845  23673204.892    23673210.276
  20913852.389    -5973429.38849  -4479758.25047  20913852.021    20913854.512
  20314749.717    -1843768.39449  -1428520.40148  20314749.681    20314753.300
  21957268.168   -10637001.13349  -8269760.98146  21957268.340    21957272.777
  23173975.606   -10266685.44449  -7982825.82345  23173975.161    23173980.932
  24065262.537    -4003111.17849  -2555259.68345  24065262.226    24065269.364
  23568789.317    -9237165.24349  -7174684.27045  23568788.947    23568792.989
 03  6  5 17  8 30.0000000  0 11G17G30G29G18G10G21G 6G26G15G23G16
  20776465.651    -2800178.80149  -2173300.08847  20776465.202    20776469.494
  24106447.936    12733406.36149   9910084.18145  24106448.323    24106454.213
  22745821.849    -5187014.09649  -3841890.62546  22745821.755    22745825.982
  22107639.441   -13719109.83549 -10672946.50347  22107639.220    22107642.947
  23692817.580    11549202.58449   8991413.61145  23692816.874    23692822.246
  20908262.219    -6002806.23949  -4502649.30347  20908261.831    20908264.291
  20317983.032    -1826777.14349  -1415280.47448  20317982.993    20317986.613
  21947155.014   -10690145.92749  -8311172.45446  21947155.191    21947159.618
  23160068.724   -10339766.58149  -8039772.09545  23160068.288    23160073.980
  24046654.932    -4100894.93949  -2631454.65845  24046654.688    24046661.555
  23560710.646    -9279618.93749  -7207765.08645  23560710.370    23560714.345
 03  6  5 17  9  0.0000000  0 11G17G30G29G18G10G21G 6G26G15G23G16
  20775426.224    -2805641.06849  -2177556.40447  20775425.772    20775430.088
  24126271.407    12837578.99949   9991257.54545  24126271.700    24126277.645
  22744908.569    -5191813.10649  -3845630.13046  22744908.577    22744912.787
  22091725.309   -13802739.09549 -10738112.12647  22091725.067    22091728.844
  23712451.863    11652380.95649   9071812.29545  23712451.132    23712456.603
  20902710.491    -6031980.82049  -4525382.73947  20902710.105    20902712.543
  20321307.240    -1809308.46649  -1401668.52048  20321307.212    20321310.805
  21937141.031   -10742769.59149  -8352177.87346  21937141.253    21937145.567
  23146181.230   -10412745.54549  -8096638.75845  23146180.763    23146186.392
  24028084.905    -4198481.70549  -2707496.11645  24028084.634    24028091.369
  23552730.213    -9321556.63449  -7240443.81045  23552730.014    23552733.845
 03  6  5 17  9 30.0000000  0 11G17G30G29G18G10G21G 6G26G15G23G16
  20774423.298    -2810911.48549  -2181663.22747  20774422.846    20774427.161
  24146092.613    12941739.52249  10072421.47145  24146092.967    24146098.829
  22744098.059    -5196072.49149  -3848949.12846  22744098.068    22744102.261
  22075873.585   -13886040.28749 -10803022.10147  22075873.361    22075877.079
  23732107.887    11755674.00049   9152300.30545  23732107.144    23732112.627
  20897197.156    -6060953.61049  -4547958.93247  20897196.762    20897199.218
  20324722.377    -1791362.07049  -1387684.32248  20324722.337    20324725.908
  21927226.767   -10794869.55349  -8392775.19846  21927226.947    21927231.270
  23132313.130   -10485622.39349  -8153425.85345  23132312.683    23132318.252
  24009552.586    -4295869.87949  -2783382.80745  24009552.243    24009558.982
  23544848.085    -9362977.35649  -7272719.70345  23544847.881    23544851.694
 03  6  5 17 10  0.0000000  0 11G17G30G29G18G10G21G 6G26G15G23G16
  20773456.810    -2815990.48049  -2185620.89347  20773456.345    20773460.668
  24165911.024    13045885.43349  10153573.99145  24165911.427    24165917.308
  22743390.402    -5199791.39749  -3851846.99646  22743390.378    22743394.526
  22060084.655   -13969011.92149 -10867675.29347  22060084.411    22060088.034
  23751785.309    11859079.06649   9232875.63645  23751784.581    23751790.061
  20891722.304    -6089724.11049  -4570377.50547  20891721.922    20891724.345
  20328228.482    -1772937.37649  -1373327.43148  20328228.450    20328232.026
  21917412.611   -10846443.00849  -8432962.26146  21917412.791    21917417.155
  23118464.671   -10558396.64749  -8210133.02145  23118464.221    23118469.623
  23991058.322    -4393057.55749  -2859113.29245  23991057.857    23991064.912
  23537064.491    -9403879.94849  -7304591.84745  23537064.339    23537068.210
 03  6  5 17 10 30.0000000  0 11G17G30G29G18G10G21G 6G26G15G23G16
  20772526.845    -2820877.66349  -2189429.09247  20772526.389    20772530.692
  24185726.233    13150014.03849  10234713.03645  24185726.570    24185732.476
  22742785.683    -5202969.24649  -3854323.25446  22742785.677    22742789.829
  22044358.728   -14051652.44049 -10932070.44947  22044358.438    22044361.976
  23771483.566    11962593.80849   9313536.40545  23771482.745    23771488.302
  20886285.994    -6118292.07749  -4592638.25847  20886285.595    20886288.026
  20331825.659    -1754034.06349  -1358597.58848  20331825.620    20331829.209
  21907699.114   -10897487.19249  -8472736.90646  21907699.326    21907703.754
  23104635.774   -10631068.17749  -8266760.13045  23104635.274    23104640.648
  23972602.358    -4490043.13749  -2934686.35345  23972601.804    23972608.962
  23529379.853    -9444263.25949  -7336059.36845  23529379.710    23529383.574
 03  6  5 17 11  0.0000000  0 11G17G30G29G18G10G21G 6G26G15G23G16
  20771633.260    -2825573.43849  -2193088.13947  20771632.828    20771637.111
  24205537.656    13254122.45149  10315836.34145  24205537.984    24205543.770
  22742284.097    -5205605.25849  -3856377.29346  22742284.074    22742288.190
  22028696.010   -14133960.25349 -10996206.36947  22028695.741    22028699.242
  23791202.300    12066215.84149   9394280.79745  23791201.484    23791206.918
  20880888.233    -6146657.47649  -4614741.16647  20880887.852    20880890.265
  20335514.010    -1734651.67149  -1343494.43648  20335513.977    20335517.554
  21898086.997   -10947999.49449  -8512097.10946  21898087.169    21898091.634
  23090826.479   -10703636.75749  -8323307.03546  23090825.994    23090831.353
  23954185.009    -4586824.83349  -3010100.56745  23954184.454    23954191.829
  23521794.168    -9484126.20949  -7367121.41645  23521794.041    23521797.819
 03  6  5 17 11 30.0000000  0 11G17G30G29G18G10G21G 6G26G15G23G16
  20770776.179    -2830077.53449  -2196597.82447  20770775.741    20770780.015
  24225344.770    13358208.22349  10396942.00545  24225345.102    24225350.873
  22741885.767    -5207698.75549  -3858008.59446  22741885.730    22741889.829
  22013096.927   -14215933.74649 -11060081.77347  22013096.670    22013100.104
  23810940.947    12169942.86649   9475106.97745  23810940.090    23810945.629
  20875529.007    -6174820.56249  -4636686.43147  20875528.632    20875531.008
  20339293.648    -1714789.53649  -1328017.46348  20339293.620    20339297.202
  21888576.519   -10997977.02849  -8551040.59646  21888576.694    21888581.185
  23077036.804   -10776102.24049  -8379773.61146  23077036.291    23077041.628
  23935806.859    -4683400.77249  -3085354.43945  23935806.327    23935813.840
  23514307.711    -9523467.35549  -7397776.84545  23514307.574    23514311.501
 03  6  5 17 12  0.0000000  0 11G17G30G29G18G10G21G 6G26G15G23G16
  20769955.544    -2834390.12949  -2199958.28447  20769955.129    20769959.383
  24245146.856    13462268.68649  10478027.95145  24245147.134    24245153.126
  22741590.735    -5209249.11549  -3859216.68246  22741590.714    22741594.808
  21997561.741   -14297571.70549 -11123695.73647  21997561.465    21997564.893
  23830699.101    12273772.54949   9556013.14445  23830698.321    23830703.807
  20870208.276    -6202781.39449  -4658474.09347  20870207.886    20870210.260
  20343164.687    -1694447.38249  -1312166.44848  20343164.660    20343168.235
  21879168.302   -11047417.13949  -8589565.31346  21879168.497    21879172.993
  23063266.613   -10848464.71149  -8436159.90946  23063266.183    23063271.482
  23917468.335    -4779769.47349  -3160446.80945  23917467.992    23917475.290
  23506920.877    -9562285.83649  -7428025.01245  23506920.668    23506924.552
 03  6  5 17 12 30.0000000  0 11G17G30G29G18G10G21G 6G26G15G23G16
  20769171.296    -2838511.32149  -2203169.60347  20769170.882    20769175.134
  24264943.524    13566300.96349  10559091.92545  24264943.949    24264949.931
  22741399.090    -5210255.95049  -3860001.23746  22741399.157    22741403.212
  21982090.691   -14378872.52749 -11187046.99647  21982090.435    21982093.898
  23850476.287    12377702.69549   9636997.63345  23850475.579    23850481.024
  20864926.141    -6230539.18449  -4680103.54247  20864925.762    20864928.114
  20347127.128    -1673624.82749  -1295941.10348  20347127.087    20347130.647
  21869862.784   -11096317.40749  -8627669.38046  21869863.029    21869867.552
  23049516.130   -10920724.00249  -8492465.81146  23049515.702    23049520.982
  23899169.774    -4875929.26149  -3235376.39945  23899169.379    23899176.570
  23499633.758    -9600580.62449  -7457865.11245  23499633.443    23499637.269
 03  6  5 17 13  0.0000000  0 11G17G30G29G18G10G21G 6G26G15G23G16
  20768423.420    -2842441.41249  -2206232.00647  20768423.010    20768427.280
  24284734.423    13670302.22649  10640131.74445  24284734.758    24284740.893
  22741311.092    -5210718.67649  -3860361.80546  22741311.098    22741315.181
  21966684.056   -14459834.91049 -11250134.53647  21966683.751    21966687.325
  23870272.140    12481730.49749   9718058.18645  23870271.475    23870277.009
  20859682.599    -6258094.21649  -4701575.00447  20859682.203    20859684.543
  20351180.968    -1652321.75849  -1279341.33048  20351180.921    20351184.483
  21860660.610   -11144675.22049  -8665350.75846  21860660.869    21860665.283
  23035785.190   -10992880.18149  -8548691.36746  23035784.749    23035789.999
  23880911.288    -4971878.49449  -3310141.87845  23880910.909    23880918.056
  23492446.334    -9638350.66849  -7487296.30945  23492446.008    23492449.956
 03  6  5 17 13 30.0000000  0 11G17G30G29G18G10G21G 6G26G15G23G16
  20767711.938    -2846180.57049  -2209145.63747  20767711.502    20767715.788
  24304518.851    13774269.66949  10721145.18545  24304519.121    24304525.476
  22741326.600    -5210636.95649  -3860298.13446  22741326.697    22741330.798
  21951342.101   -14540457.52949 -11312957.32047  21951341.812    21951345.405
  23890086.321    12585853.73649   9799193.13045  23890085.518    23890091.054
  20854477.575    -6285446.69049  -4722888.62347  20854477.196    20854479.548
  20355326.282    -1630537.93949  -1262366.94348  20355326.251    20355329.829
  21851562.178   -11192488.05349  -8702607.46846  21851562.428    21851566.771
  23022073.903   -11064933.12649  -8604836.49046  23022073.470    23022078.669
  23862693.333    -5067615.57849  -3384742.07345  23862692.851    23862699.918
  23485359.060    -9675594.96149  -7516317.84045  23485358.745    23485362.682
 03  6  5 17 14  0.0000000  0 11G17G30G29G18G10G21G 6G26G15G23G16
  20767036.644    -2849729.27649  -2211910.86247  20767036.190    20767040.499
  24324296.380    13878200.28949  10802129.98645  24324296.670    24324302.955
  22741445.654    -5210010.67049  -3859810.12446  22741445.885    22741450.011
  21936064.904   -14620739.52149 -11375514.67247  21936064.619    21936068.193
  23909917.954    12690069.70349   9880400.33845  23909917.179    23909922.822
  20849311.097    -6312596.73549  -4744044.50647  20849310.713    20849313.110
  20359563.147    -1608273.28649  -1245017.88248  20359563.098    20359566.676
  21842567.921   -11239753.81849  -8739437.88346  21842568.095    21842572.368
  23008382.290   -11136883.07549  -8660901.35546  23008381.809    23008386.894
  23844515.906    -5163139.20649  -3459175.93945  23844515.325    23844522.283
  23478371.760    -9712313.02949  -7544929.31245  23478371.452    23478375.592
 03  6  5 17 14 30.0000000  0 11G17G30G29G18G10G21G 6G26G15G23G16
  20766397.721    -2853086.66349  -2214527.01147  20766397.292    20766401.596
  24344066.506    13982092.26449  10883084.64345  24344066.783    24344073.264
  22741668.815    -5208838.57149  -3858896.79146  22741668.910    22741673.012
  21920853.036   -14700678.39849 -11437804.68147  21920852.739    21920856.308
  23929766.863    12794376.67249   9961678.44145  23929766.208    23929771.842
  20844183.261    -6339543.42949  -4765041.93047  20844182.882    20844185.339
  20363891.667    -1585526.77849  -1227293.35148  20363891.621    20363895.214
  21833678.210   -11286469.16649  -8775839.40846  21833678.399    21833682.700
  22994710.435   -11208729.20449  -8716885.31346  22994709.943    22994714.955
  23826379.232    -5258447.03349  -3533441.67245  23826378.672    23826385.578
  23471484.999    -9748503.01849  -7573129.31845  23471484.689    23471488.818
 03  6  5 17 15  0.0000000  0 11G17G30G29G18G10G21G 6G26G15G23G16
  20765795.188    -2856252.99349  -2216994.28147  20765794.750    20765799.071
  24363828.699    14085942.59549  10964006.83345  24363828.962    24363835.449
  22741995.773    -5207120.34549  -3857557.90946  22741995.804    22741999.995
  21905706.615   -14780273.04849 -11499826.45247  21905706.325    21905709.875
  23949632.708    12898772.32749  10043025.62545  23949632.024    23949637.789
  20839094.119    -6366287.00249  -4785881.07647  20839093.746    20839096.240
  20368311.908    -1562298.29849  -1209193.26548  20368311.871    20368315.439
  21824893.754   -11332631.62449  -8811810.11246  21824893.950    21824898.236
  22981058.370   -11280471.58449  -8772788.42946  22981057.815    22981062.780
  23808283.925    -5353537.57349  -3607538.09445  23808283.459    23808290.477
  23464698.912    -9784164.34049  -7600917.38345  23464698.627    23464702.636
 03  6  5 17 15 30.0000000  0 11G17G30G29G18G10G21G 6G26G15G23G16
  20765228.934    -2859228.56049  -2219312.90847  20765228.501    20765232.792
  24383582.347    14189748.63549  11044894.49245  24383582.646    24383589.234
  22742426.783    -5204855.64649  -3855793.20046  22742426.795    22742430.945
  21890625.913   -14859522.35749 -11561579.12647  21890625.636    21890629.183
  23969515.029    13003254.18249  10124439.99345  23969514.410    23969520.093
  20834043.703    -6392827.27749  -4806561.81447  20834043.342    20834045.831
  20372823.888    -1538587.73449  -1190717.52848  20372823.848    20372827.440
  21816214.943   -11378238.80349  -8847348.13646  21816215.119    21816219.489
  22967425.915   -11352110.07249  -8828610.58646  22967425.432    22967430.467
  23790230.178    -5448409.30849  -3681464.00345  23790229.807    23790236.790
  23458013.551    -9819295.97449  -7628292.67345  23458013.335    23458017.341
 03  6  5 17 16  0.0000000  0 11G17G30G29G18G10G21G 6G26G15G23G16
  20764699.016    -2862013.31649  -2221482.85347  20764698.578    20764702.897
  24403327.130    14293507.79449  11125745.61845  24403327.408    24403334.016
  22742961.805    -5202044.01049  -3853602.30646  22742961.805    22742965.980
  21875611.234   -14938424.85249 -11623061.55447  21875610.970    21875614.513
  23989413.441    13107820.07249  10205919.83045  23989412.706    23989418.518
  20829032.015    -6419164.16349  -4827084.06947  20829031.641    20829034.112
  20377427.699    -1514394.46649  -1171865.65748  20377427.660    20377431.278
  21807642.242   -11423288.20349  -8882451.52846  21807642.473    21807646.817
  22953813.318   -11423644.33849  -8884351.53746  22953812.816    22953817.999
  23772218.515    -5543060.28849  -3755217.89345  23772218.116    23772225.070
  23451429.170    -9853896.77549  -7655254.32645  23451429.043    23451432.967
 03  6  5 17 16 30.0000000  0 11G17G30G29G18G10G21G 6G26G15G23G16
  20764205.395    -2864607.27649  -2223504.12547  20764204.970    20764209.272
  24423062.341    14397217.05249  11206557.85145  24423062.695    24423069.484
  22743601.080    -5198685.48849  -3850985.25746  22743600.972    22743605.106
  21860662.754   -15016979.26749 -11684272.75747  21860662.488    21860666.020
  24009327.125    13212467.27149  10287463.01745  24009326.369    24009332.267
  20824058.918    -6445297.90749  -4847448.02847  20824058.534    20824061.002
  20382123.339    -1489718.63649  -1152637.75448  20382123.320    20382126.943
  21799176.161   -11467777.73649  -8917118.65646  21799176.354    21799180.693
  22940220.464   -11495074.71849  -8940011.54646  22940219.967    22940225.247
  23754249.179    -5637489.45549  -3828798.95945  23754248.695    23754255.705
  23444945.888    -9887966.55749  -7681802.22945  23444945.782    23444949.654
 03  6  5 17 17  0.0000000  0 11G17G30G29G18G10G21G 6G26G15G23G16
  20763748.124    -2867010.29549  -2225376.61247  20763747.687    20763751.996
  24442787.637    14500874.05449  11287329.38445  24442788.129    24442794.884
  22744344.386    -5194779.32949  -3847941.47946  22744344.309    22744348.401
  21845780.904   -15095184.04649 -11745211.51747  21845780.641    21845784.092
  24029255.920    13317193.82049  10369068.06545  24029255.223    24029261.055
  20819124.580    -6471227.97749  -4867653.28547  20819124.220    20819126.665
  20386910.960    -1464559.79049  -1133033.48348  20386910.945    20386914.552
  21790817.152   -11511704.54949  -8951347.30546  21790817.371    21790821.636
  22926647.395   -11566400.76949  -8995590.24746  22926646.923    22926652.380
  23736322.427    -5731694.85849  -3902205.70345  23736322.077    23736328.922
  23438563.924    -9921504.11349  -7707935.39245  23438563.799    23438567.714
 03  6  5 17 17 30.0000000  0 11G17G30G29G18G10G21G 6G26G15G23G16
  20763327.206    -2869222.28649  -2227100.25247  20763326.768    20763331.097
  24462502.567    14604476.19349  11368058.19445  24462503.051    24462509.848
  22745191.959    -5190325.11249  -3844470.64146  22745191.891    22745196.005
  21830965.822   -15173037.75349 -11805876.70947  21830965.547    21830968.995
  24049199.373    13421997.57849  10450733.23345  24049198.656    24049204.753
  20814229.029    -6496954.23749  -4887699.72147  20814228.659    20814231.106
  20391790.544    -1438917.76149  -1113052.70648  20391790.517    20391794.091
  21782565.723   -11555066.27549  -8985135.62246  21782565.894    21782570.125
  22913094.412   -11637622.32749  -9051087.52646  22913093.855    22913099.363
  23718438.446    -5825674.85149  -3975436.76145  23718438.177    23718445.067
  23432283.484    -9954508.46349  -7733653.07146  23432283.328    23432287.304
 03  6  5 17 18  0.0000000  0 11G17G30G29G18G10G21G 6G26G15G23G16
  20762942.515    -2871243.69949  -2228675.38547  20762942.084    20762946.418
  24482206.517    14708020.64849  11448742.00445  24482206.961    24482213.823
  22746143.855    -5185322.83349  -3840572.74546  22746143.783    22746147.936
  21816217.668   -15250539.44249 -11866267.60547  21816217.397    21816220.886
  24069157.238    13526876.02449  10532456.63745  24069156.559    24069162.464
  20809372.291    -6522476.80249  -4907587.43947  20809371.912    20809374.374
  20396762.026    -1412792.53349  -1092695.41148  20396761.995    20396765.568
  21774422.163   -11597860.69149  -9018481.88046  21774422.361    21774426.576
  22899561.324   -11708739.33649  -9106503.34846  22899560.704    22899566.249
  23700597.636    -5919427.99949  -4048491.05345  23700597.358    23700604.397
  23426104.625    -9986978.82349  -7758954.67446  23426104.416    23426108.412
 03  6  5 17 18 30.0000000  0 11G17G30G29G18G10G21G 6G26G15G23G16
  20762594.082    -2873074.82249  -2230102.24747  20762593.656    20762598.004
  24501899.049    14811504.56549  11529378.73545  24501899.368    24501906.160
  22747200.050    -5179772.34849  -3836247.67446  22747199.981    22747204.128
  21801536.695   -15327688.01049 -11926383.34047  21801536.441    21801539.973
  24089128.878    13631826.78349  10614236.39445  24089128.074    24089133.940
  20804554.251    -6547795.76749  -4927316.50647  20804553.877    20804556.340
  20401825.458    -1386184.20649  -1071961.67348  20401825.430    20401829.009
  21766386.925   -11640085.71749  -9051384.45046  21766387.114    21766391.366
  22886048.048   -11779752.00149  -9161837.86646  22886047.429    22886052.933
  23682800.358    -6012952.89249  -4121367.51545  23682800.058    23682807.025
  23420027.323   -10018914.87349  -7783839.89546  23420027.212    23420031.252
 03  6  5 17 19  0.0000000  0 11G17G30G29G18G10G21G 6G26G15G23G16
  20762281.939    -2874715.19049  -2231380.46347  20762281.502    20762285.854
  24521579.654    14914925.66849  11609966.44345  24521579.973    24521586.604
  22748360.651    -5173673.03749  -3831494.93746  22748360.618    22748364.803
  21786923.318   -15404481.59949 -11986222.47147  21786923.067    21786926.631
  24109113.766    13736847.72749  10696070.81745  24109112.988    24109118.903
  20799775.049    -6572910.60949  -4946886.51447  20799774.676    20799777.173
  20406980.874    -1359092.25049  -1050851.08948  20406980.841    20406984.463
  21758460.585   -11681738.62949  -9083841.23146  21758460.841    21758465.017
  22872554.667   -11850659.63449  -9217090.52646  22872554.120    22872559.607
  23665046.949    -6106247.65649  -4194064.69545  23665046.709    23665053.490
  23414052.091   -10050315.37449  -7808307.83046  23414051.949    23414055.949
 03  6  5 17 19 30.0000000  0 11G17G30G29G18G10G21G 6G26G15G23G16
  20762005.978    -2876165.34449  -2232510.45647  20762005.553    20762009.893
  24541247.660    15018280.84049  11690502.75345  24541247.937    24541254.526
  22749625.632    -5167025.36449  -3826314.90546  22749625.612    22749629.793
  21772377.666   -15480919.60549 -12045784.52647  21772377.387    21772380.935
  24129111.503    13841936.33949  10777957.98545  24129110.784    24129116.690
  20795034.635    -6597821.75049  -4966297.79747  20795034.257    20795036.755
  20412228.304    -1331516.93749  -1029363.85648  20412228.268    20412231.882
  21750643.510   -11722817.67749  -9115850.84746  21750643.713    21750647.889
  22859081.292   -11921462.63649  -9272261.65846  22859080.828    22859086.186
  23647337.552    -6199311.26149  -4266581.74545  23647337.259    23647344.040
  23408178.825   -10081180.03449  -7832358.20645  23408178.565    23408182.540
 03  6  5 17 20  0.0000000  0 11G17G30G29G18G10G21G 6G26G15G23G16
  20761766.388    -2877424.52049  -2233491.63447  20761765.949    20761770.299
  24560902.938    15121568.31849  11770986.31445  24560902.880    24560909.655
  22750995.119    -5159828.32049  -3820706.80046  22750995.134    22750999.363
  21757900.066   -15556999.91249 -12105067.85447  21757899.809    21757903.316
  24149121.737    13947091.12249  10859896.69245  24149121.091    24149126.993
  20790333.189    -6622528.20549  -4985549.58047  20790332.792    20790335.272
  20417567.891    -1303457.44649  -1007499.34748  20417567.862    20417571.466
  21742936.131   -11763319.83449  -9147410.93546  21742936.349    21742940.546
  22845628.003   -11992160.30149  -9327350.72346  22845627.491    22845632.827
  23629672.511    -6292141.39149  -4338916.83045  23629672.178    23629678.950
  23402407.608   -10111507.41549  -7855989.94845  23402407.470    23402411.408
 03  6  5 17 20 30.0000000  0 11G17G30G29G18G10G21G 6G26G15G23G16
  20761563.087    -2878492.80449  -2234324.06747  20761562.669    20761566.996
  24580544.473    15224784.90349  11851414.67045  24580544.314    24580551.174
  22752469.284    -5152081.84949  -3814670.56546  22752469.274    22752473.415
  21743490.678   -15632721.74149 -12164071.84247  21743490.415    21743493.895
  24169144.248    14052309.36849  10941884.89445  24169143.610    24169149.397
  20785670.588    -6647030.34749  -5004642.16147  20785670.210    20785672.646
  20422999.548    -1274913.97949   -985257.71348  20422999.512    20423003.149
  21735339.064   -11803242.98049  -9178519.85246  21735339.248    21735343.427
  22832194.699   -12062752.66249  -9382357.71446  22832194.221    22832199.548
  23612052.061    -6384736.78049  -4411068.97845  23612051.737    23612058.673
  23396738.889   -10141297.19349  -7879202.76645  23396738.595    23396742.637
 03  6  5 17 21  0.0000000  0 11G17G30G29G18G10G21G 6G26G15G23G16
  20761396.030    -2879370.66649  -2235008.12047  20761395.605    20761399.980
  24600172.045    15327928.17549  11931785.86045  24600171.895    24600178.970
  22754047.813    -5143786.14449  -3808206.36146  22754047.841    22754052.004
  21729149.782   -15708083.62949 -12222795.35847  21729149.503    21729152.995
  24189178.328    14157588.91649  11023920.81445  24189177.631    24189183.596
  20781046.945    -6671327.98549  -5023575.39047  20781046.561    20781048.952
  20428523.296    -1245886.67049   -962639.05948  20428523.278    20428526.897
  21727852.509   -11842585.10249  -9209176.01946  21727852.701    21727856.862
  22818781.403   -12133239.76749  -9437282.69346  22818780.917    22818786.281
  23594476.585    -6477096.02449  -4483037.12645  23594476.274    23594483.309
  23391172.458   -10170548.86249  -7901996.27545  23391172.159    23391176.218
 03  6  5 17 21 30.0000000  0 11G17G30G29G18G10G21G 6G26G15G23G16
  20761265.376    -2880057.20349  -2235543.08847  20761264.965    20761269.334
  24619785.311    15430995.74949  12012098.08545  24619785.317    24619792.140
  22755731.017    -5134940.73349  -3801313.81146  22755731.055    22755735.218
  21714877.600   -15783084.18149 -12281237.31447  21714877.343    21714880.845
  24209223.711    14262927.88849  11106003.04145  24209223.053    24209228.951
  20776462.248    -6695420.66849  -5042348.90647  20776461.865    20776464.286
  20434139.188    -1216375.06349   -939643.02248  20434139.160    20434142.792
  21720477.045   -11881343.55749  -9239377.37246  21720477.217    21720481.328
  22805388.229   -12203621.11749  -9492125.26346  22805387.739    22805393.102
  23576946.329    -6569217.26649  -4554819.81645  23576946.090    23576953.130
  23385708.657   -10199261.12849  -7924369.48046  23385708.461    23385712.521
 03  6  5 17 22  0.0000000  0 11G17G30G29G18G10G21G 6G26G15G23G16
  20761171.007    -2880553.16649  -2235929.55347  20761170.561    20761174.950
  24639383.674    15533984.56749  12092348.94245  24639383.729    24639390.354
  22757518.778    -5125545.90249  -3793993.14246  22757518.837    22757522.961
  21700674.292   -15857722.88649 -12339397.31647  21700674.036    21700677.566
  24229279.977    14368323.62549  11188129.52545  24229279.309    24229285.128
  20771916.495    -6719308.48749  -5060962.79247  20771916.112    20771918.584
  20439847.142    -1186379.59649   -916269.95448  20439847.108    20439850.781
  21713212.916   -11919516.82849  -9269122.75546  21713213.085    21713217.189
  22792015.168   -12273897.01249  -9546885.66446  22792014.657    22792020.079
  23559461.742    -6661099.30449  -4626416.15145  23559461.424    23559468.406
  23380347.464   -10227434.05149  -7946322.39645  23380347.213    23380351.413
 03  6  5 17 22 30.0000000  0 11G17G30G29G18G10G21G 6G26G15G23G16
  20761112.888    -2880858.65849  -2236167.59947  20761112.451    20761116.825
  24658966.596    15636892.43749  12172536.75445  24658966.633    24658973.091
  22759411.223    -5115601.26249  -3786244.05446  22759411.227    22759415.330
  21686540.245   -15931997.98549 -12397273.98847  21686539.991    21686543.507
  24249346.529    14473774.15149  11270298.69245  24249345.937    24249351.756
  20767409.815    -6742991.11549  -5079416.78347  20767409.462    20767411.898
  20445647.232    -1155899.94349   -892519.59348  20445647.193    20445650.867
  21706060.584   -11957102.31549  -9298410.12246  21706060.747    21706064.893
  22778662.276   -12344066.74249  -9601563.34446  22778661.810    22778667.243
  23542023.072    -6752740.43349  -4697824.75545  23542022.727    23542029.562
  23375089.078   -10255066.64949  -7967854.30245  23375088.893    23375093.051
 03  6  5 17 23  0.0000000  0 11G17G30G29G18G10G21G 6G26G15G23G16
  20761090.962    -2880973.84849  -2236257.36147  20761090.536    20761094.884
  24678533.471    15739716.53049  12252659.26645  24678533.377    24678540.098
  22761408.204    -5105106.81349  -3778066.54446  22761408.195    22761412.329
  21672475.643   -16005908.19449 -12454866.32847  21672475.367    21672478.823
  24269423.174    14579277.19649  11352508.84945  24269422.598    24269428.203
  20762942.197    -6766468.82049  -5097711.09647  20762941.844    20762944.268
  20451539.474    -1124936.29549   -868392.10248  20451539.434    20451543.107
  21699020.483   -11994098.04449  -9327237.94146  21699020.641    21699024.856
  22765329.706   -12414130.42549  -9656158.39046  22765329.110    22765334.484
  23524630.333    -6844139.33949  -4769044.59945  23524630.028    23524636.871
  23369933.770   -10282158.54449  -7988964.87745  23369933.531    23369937.641
 03  6  5 17 23 30.0000000  0 11G17G30G29G18G10G21G 6G26G15G23G16
  20761105.436    -2880898.06649  -2236198.31647  20761104.996    20761109.335
  24698083.791    15842454.50149  12332714.70345  24698083.782    24698090.605
  22763509.812    -5094062.65749  -3769460.70046  22763509.830    22763513.976
  21658480.621   -16079452.53449 -12512173.57447  21658480.316    21658483.755
  24289509.394    14684830.51249  11434758.18945  24289508.784    24289514.321
  20758513.590    -6789741.16549  -5115845.38747  20758513.220    20758515.660
  20457523.826    -1093488.51449   -843887.36148  20457523.781    20457527.450
  21692093.000   -12030501.78249  -9355604.47446  21692093.226    21692097.437
  22752017.179   -12484087.95349  -9710670.69546  22752016.617    22752021.939
  23507284.039    -6935294.47849  -4840074.46945  23507283.716    23507290.560
  23364881.311   -10308708.93549  -8009653.48945  23364881.050    23364885.337
 03  6  5 17 24  0.0000000  0 11G17G30G29G18G10G21G 6G26G15G23G16
  20761156.306    -2880630.89849  -2235990.14547  20761155.871    20761160.167
  24717617.341    15945104.15149  12412701.27645  24717617.329    24717624.373
  22765716.082    -5082468.28449  -3760426.11546  22765716.163    22765720.313
  21644555.406   -16152629.52949 -12569194.57847  21644555.116    21644558.569
  24309604.599    14790432.49249  11517045.38345  24309604.053    24309609.849
  20754124.209    -6812807.62949  -5133819.25447  20754123.829    20754126.270
  20463600.324    -1061556.37449   -819005.19948  20463600.294    20463603.975
  21685278.698   -12066311.19749  -9383507.89546  21685278.934    21685283.140
  22738724.947   -12553938.73349  -9765099.84146  22738724.438    22738729.713
  23489984.556    -7026204.07449  -4910913.03545  23489984.223    23489991.082
  23359932.204   -10334716.99949  -8029919.51446  23359931.915    23359936.175
 03  6  5 17 24 30.0000000  0 11G17G30G29G18G10G21G 6G26G15G23G16
  20761243.525    -2880172.61749  -2235633.05147  20761243.090    20761247.368
  24737133.526    16047662.44949  12492616.65945  24737133.649    24737140.668
  22768027.034    -5070324.19749  -3750963.18446  22768027.083    22768031.209
  21630700.235   -16225438.32449 -12625928.67347  21630699.998    21630703.424
  24329708.778    14896080.72849  11599368.60145  24329708.234    24329714.180
  20749773.942    -6835668.35849  -5151632.80447  20749773.561    20749776.017
  20469768.906    -1029140.17049   -793745.83548  20469768.874    20469772.577
  21678577.822   -12101524.57349  -9410946.86346  21678578.063    21678582.211
  22725453.106   -12623682.91449  -9819445.91546  22725452.587    22725457.789
  23472731.924    -7116866.96449  -4981559.34745  23472731.606    23472738.542
  23355086.249   -10360182.73549  -8049762.94246  23355085.940    23355090.195
 03  6  5 17 25  0.0000000  0 11G17G30G29G18G10G21G 6G26G15G23G16
  20761366.934    -2879524.10549  -2235127.73147  20761366.495    20761370.789
  24756632.003    16150126.70249  12572458.75345  24756632.089    24756639.186
  22770442.547    -5057630.64049  -3741072.10146  22770442.651    22770446.752
  21616915.359   -16297878.13849 -12682375.24547  21616915.141    21616918.551
  24349821.243    15001772.77849  11681725.96545  24349820.589    24349826.754
  20745462.743    -6858323.63849  -5169286.26847  20745462.385    20745464.840
  20476029.575     -996240.26949   -768109.56948  20476029.560    20476033.257
  21671990.671   -12136140.00149  -9437919.90946  21671990.913    21671995.043
  22712201.463   -12693320.65549  -9873709.06046  22712200.940    22712206.104
  23455526.554    -7207281.88549  -5052012.45345  23455526.237    23455533.098
  23350343.450   -10385105.96449  -8069183.64846  23350343.204    23350347.457
 03  6  5 17 25 30.0000000  0 11G17G30G29G18G10G21G 6G26G15G23G16
  20761526.714    -2878684.50949  -2234473.51047  20761526.274    20761530.586
  24776112.151    16252494.82649  12652225.92045  24776112.393    24776119.498
  22772962.740    -5044387.10449  -3730752.45746  22772962.846    22772966.949
  21603201.112   -16369947.16949 -12738532.90247  21603200.855    21603204.251
  24369941.669    15107506.93949  11764116.17745  24369941.080    24369947.205
  20741190.843    -6880772.49549  -5186778.88047  20741190.473    20741192.964
  20482382.347     -962856.30449   -742096.11348  20482382.312    20482386.027
  21665517.824   -12170155.12549  -9464425.18046  21665518.044    21665522.203
  22698970.190   -12762851.27349  -9927888.74446  22698969.690    22698974.792
  23438368.678    -7297446.80549  -5122270.73745  23438368.286    23438375.203
  23345704.250   -10409485.51549  -8088180.70546  23345703.965    23345708.241
 03  6  5 17 26  0.0000000  0 11G17G30G29G18G10G21G 6G26G15G23G16
  20761722.734    -2877654.49849  -2233670.91547  20761722.289    20761726.614
  24795573.450    16354763.47649  12731915.58645  24795573.770    24795580.823
  22775587.320    -5030594.57449  -3720005.04746  22775587.449    22775591.573
  21589557.459   -16441645.04249 -12794401.34147  21589557.201    21589560.634
  24390069.886    15213280.21849  11846536.84245  24390069.266    24390075.303
  20736958.130    -6903015.58449  -5204111.14947  20736957.763    20736960.242
  20488827.025     -928989.14749   -715706.14148  20488827.000    20488830.737
  21659159.374   -12203568.72449  -9490461.73346  21659159.616    21659163.778
  22685759.291   -12832275.35949  -9981985.41146  22685758.746    22685763.788
  23421258.355    -7387361.17449  -5192333.78845  23421257.981    23421264.892
  23341168.431   -10433321.65449  -8106754.34346  23341168.205    23341172.305
 03  6  5 17 26 30.0000000  0 10G17G29G18G10G21G 6G26G15G23G16
  20761955.830    -2876429.53549  -2232716.40847  20761955.377    20761959.729
  22778317.271    -5016248.57349  -3708826.34446  22778317.399    22778321.545
  21575985.468   -16512966.08149 -12849976.15247  21575985.196    21575988.664
  24410206.027    15319095.28149  11928990.06745  24410205.327    24410211.338
  20732765.533    -6925047.89449  -5221279.17647  20732765.155    20732767.639
  20495364.558     -894634.26449   -688936.12448  20495364.534    20495368.292
  21652916.694   -12236374.26249  -9516024.47746  21652916.898    21652921.050
  22672569.475   -12901588.12049 -10035995.34046  22672568.937    22672573.994
  23404196.738    -7477019.00449  -5262196.92145  23404196.422    23404203.404
  23336737.042   -10456609.44549  -8124900.68146  23336736.714    23336740.828
 03  6  5 17 27  0.0000000  0 10G17G29G18G10G21G 6G26G15G23G16
  20762225.318    -2875013.37349  -2231612.91547  20762224.881    20762229.234
  22781151.784    -5001353.07149  -3697219.46146  22781151.846    22781156.054
  21562484.674   -16583912.88149 -12905259.34747  21562484.433    21562487.944
  24430348.794    15424945.97549  12011471.06645  24430348.232    24430354.056
  20728612.195    -6946873.85249  -5238286.41047  20728611.811    20728614.302
  20501994.164     -859795.69149   -661789.19848  20501994.125    20501997.887
  21646789.363   -12268573.65249  -9541114.89246  21646789.569    21646793.727
  22659400.170   -12970793.06049 -10089921.23246  22659399.684    22659404.708
  23387183.786    -7566422.73549  -5331862.09745  23387183.390    23387190.286
  23332409.194   -10479352.38849  -8142622.45946  23332408.939    23332413.040
 03  6  5 17 27 30.0000000  0 10G17G29G18G10G21G 6G26G15G23G16
  20762530.860    -2873407.85449  -2230361.87347  20762530.409    20762534.765
  22784090.462    -4985910.23049  -3685186.09646  22784090.493    22784094.741
  21549054.932   -16654486.37549 -12960251.64947  21549054.670    21549058.196
  24450497.637    15530828.54149  12093976.91145  24450497.053    24450503.094
  20724497.847    -6968494.87949  -5255133.95547  20724497.469    20724499.974
  20508715.328     -824475.65549   -634267.12148  20508715.302    20508719.097
  21640777.357   -12300166.93349  -9565733.02546  21640777.561    21640781.666
  22646251.071   -13039891.99849 -10143764.52946  22646250.537    22646255.556
  23370219.119    -7655572.91349  -5401329.69045  23370218.734    23370225.405
  23328184.806   -10501551.95649  -8159920.83246  23328184.474    23328188.576
 03  6  5 17 28  0.0000000  0 10G17G29G18G10G21G 6G26G15G23G16
  20762872.667    -2871611.61049  -2228962.21447  20762872.243    20762876.584
  22787133.335    -4969919.43849  -3672725.74946  22787133.456    22787137.706
  21535696.669   -16724684.58749 -13014951.52547  21535696.408    21535699.905
  24470652.249    15636741.51749  12176506.42245  24470651.680    24470657.783
  20720422.767    -6989909.56349  -5271820.71547  20720422.380    20720424.893
  20515528.314     -788673.27049   -606369.18148  20515528.295    20515532.057
  21634881.208   -12331151.38849  -9589876.74746  21634881.383    21634885.434
  22633122.229   -13108884.12449 -10197524.59046  22633121.686    22633126.713
  23353303.133    -7744467.01549  -5470597.72245  23353302.655    23353309.260
  23324063.941   -10523206.86749  -8176794.80546  23324063.686    23324067.675
 03  6  5 17 28 30.0000000  0 10G17G29G18G10G21G 6G26G15G23G16
  20763250.829    -2869624.38049  -2227413.73447  20763250.381    20763254.733
  22790280.724    -4953379.86049  -3659837.77446  22790280.787    22790285.000
  21522410.114   -16794505.90849 -13069357.71747  21522409.836    21522413.318
  24490812.297    15742683.73649  12259058.71545  24490811.724    24490818.047
  20716387.098    -7011116.93149  -5288345.93147  20716386.734    20716389.234
  20522433.164     -752388.06349   -578095.01848  20522433.145    20522436.913
  21629101.352   -12361524.32449  -9613543.95646  21629101.575    21629105.645
  22620013.907   -13177768.48149 -10251200.68246  22620013.431    22620018.386
  23336436.294    -7833103.07149  -5539664.68545  23336435.762    23336442.299
  23320046.996   -10544316.11749  -8193243.57846  23320046.758    23320050.729
 03  6  5 17 29  0.0000000  0 10G17G29G18G10G21G 6G26G15G23G16
  20763665.368    -2867445.97649  -2225716.28347  20763664.904    20763669.278
  22793532.499    -4936291.97449  -3646522.55346  22793532.516    22793536.710
  21509195.436   -16863949.55349 -13123469.61747  21509195.154    21509198.617
  24510977.657    15848653.04049  12341632.13645  24510977.133    24510983.318
  20712390.908    -7032117.10749  -5304709.70347  20712390.541    20712393.040
  20529429.812     -715620.39449   -549444.90848  20529429.792    20529433.606
  21623438.231   -12391284.23049  -9636733.49046  21623438.455    21623442.483
  22606926.134   -13246544.87749 -10304792.65446  22606925.671    22606930.613
  23319618.634    -7921479.94849  -5608529.68645  23319618.154    23319624.604
  23316133.807   -10564879.69149  -8209267.14746  23316133.616    23316137.685
 03  6  5 17 29 30.0000000  0 10G17G29G18G10G21G 6G26G15G23G16
  20764116.339    -2865076.09249  -2223869.62747  20764115.922    20764120.290
  22796888.549    -4918655.98649  -3632780.23846  22796888.522    22796892.689
  21496052.837   -16933014.17749 -13177286.17747  21496052.553    21496056.041
  24531147.927    15954647.25049  12424224.95545  24531147.251    24531153.370
  20708434.221    -7052909.65249  -5320911.68447  20708433.850    20708436.365
  20536518.248     -678370.42249   -520418.98248  20536518.214    20536522.069
  21617892.212   -12420428.95449  -9659443.66446  21617892.434    21617896.417
  22593858.889   -13315212.97649 -10358300.23246  22593858.417    22593863.483
  23302850.716    -8009595.96949  -5677191.45245  23302850.263    23302856.553
  23312324.848   -10584897.06049  -8224865.09746  23312324.504    23312328.558
 03  6  5 17 30  0.0000000  0 10G17G29G18G10G21G 6G26G15G23G16
  20764603.783    -2862514.66949  -2221873.71647  20764603.354    20764607.746
  22800348.897    -4900472.03549  -3618610.94846  22800348.827    22800353.025
  21482982.610   -17001698.54849 -13230806.43847  21482982.351    21482985.787
  24551322.470    16060664.78349  12506835.91845  24551321.683    24551328.029
  20704517.001    -7073494.73049  -5336952.00747  20704516.641    20704519.130
  20543698.481     -640638.18949   -491017.27548  20543698.453    20543702.332
  21612463.526   -12448956.78849  -9681673.14146  21612463.763    21612467.764
  22580812.410   -13383772.58849 -10411723.30246  22580811.900    22580816.985
  23286132.590    -8097449.90849  -5745648.97645  23286132.186    23286138.447
  23308619.666   -10604367.92349  -8240037.20846  23308619.319    23308623.344
 03  6  5 17 30 30.0000000  0 10G17G29G18G10G21G 6G26G15G23G16
  20765127.731    -2859761.34349  -2219728.27447  20765127.302    20765131.692
  22803913.438    -4881740.03849  -3604014.61146  22803913.409    22803917.636
  21469985.011   -17070001.38549 -13284029.40847  21469984.769    21469988.173
  24571501.112    16166704.14249  12589463.93545  24571500.404    24571506.764
  20700639.574    -7093871.15149  -5352829.73547  20700639.196    20700641.631
  20550970.541     -602423.42849   -461239.55648  20550970.519    20550974.394
  21607152.716   -12476865.56949  -9703420.24747  21607152.909    21607156.954
  22567786.776   -13452222.91149 -10465061.16346  22567786.267    22567791.371
  23269464.598    -8185039.75149  -5813900.72945  23269464.305    23269470.553
  23305018.463   -10623291.38349  -8254782.75646  23305018.301    23305022.275
 03  6  5 17 31  0.0000000  0 10G17G29G18G10G21G 6G26G15G23G16
  20765688.236    -2856816.10349  -2217433.28947  20765687.774    20765692.167
  22807582.225    -4862460.53649  -3588991.64246  22807582.210    22807586.416
  21457060.117   -17137922.02049 -13336954.55147  21457059.867    21457063.234
  24591683.363    16272762.73549  12672106.93845  24591682.642    24591689.035
  20696801.705    -7114039.24449  -5368545.13347  20696801.313    20696803.737
  20558334.246     -563726.92449   -431086.45548  20558334.231    20558338.117
  21601959.966   -12504153.76449  -9724683.77847  21601960.144    21601964.132
  22554781.901   -13520564.02849 -10518313.95546  22554781.400    22554786.493
  23252847.184    -8272364.46749  -5881945.86145  23252846.819    23252853.145
  23301521.574   -10641667.73549  -8269102.00645  23301521.402    23301525.409
 03  6  5 17 31 30.0000000  0 10G17G29G18G10G21G 6G26G15G23G16
  20766285.176    -2853678.95549  -2214988.75847  20766284.750    20766289.127
  22811355.093    -4842634.19849  -3573542.56746  22811355.037    22811359.273
  21444208.173   -17205459.43549 -13389581.08247  21444207.924    21444211.264
  24611869.026    16378838.41949  12754763.24345  24611868.448    24611874.472
  20693003.556    -7133998.62149  -5384097.89347  20693003.182    20693005.613
  20565789.546     -524549.03249   -400558.25148  20565789.520    20565793.434
  21596885.596   -12530819.90249  -9745462.58847  21596885.777    21596889.777
  22541797.810   -13588795.78249 -10571481.51746  22541797.308    22541802.361
  23236280.401    -8359422.83349  -5949783.47845  23236280.048    23236286.309
  23298128.866   -10659496.95849  -8282994.90745  23298128.621    23298132.589
 03  6  5 17 32  0.0000000  0 10G17G29G18G10G21G 6G26G15G23G16
  20766918.698    -2850349.89949  -2212394.69047  20766918.262    20766922.660
  22815231.931    -4822261.27649  -3557667.58846  22815231.903    22815236.163
  21431429.273   -17272612.72949 -13441908.29647  21431429.030    21431432.377
  24632057.507    16484929.11949  12837431.24045  24632056.951    24632063.118
  20689245.116    -7153749.31549  -5399488.04247  20689244.754    20689247.168
  20573336.417     -484890.03349   -369655.15947  20573336.396    20573340.333
  21591929.832   -12556862.37549  -9765755.42047  21591930.038    21591934.027
  22528834.587   -13656918.19049 -10624563.88546  22528834.093    22528839.088
  23219764.668    -8446213.56849  -6017412.54745  23219764.311    23219770.513
  23294840.231   -10676779.04649  -8296461.46945  23294839.888    23294843.949
 03  6  5 17 32 30.0000000  0 10G17G29G18G10G21G 6G26G15G23G16
  20767588.800    -2846828.58549  -2209650.81047  20767588.348    20767592.736
  22819212.720    -4801342.01449  -3541366.88446  22819212.688    22819216.963
  21418723.680   -17339380.87249 -13493935.39547  21418723.446    21418726.799
  24652248.647    16591033.13049  12920109.59645  24652248.014    24652254.050
  20685526.443    -7173291.06649  -5414715.38047  20685526.088    20685528.513
  20580974.769     -444750.21149   -338377.39848  20580974.758    20580978.699
  21587093.083   -12582279.50049  -9785560.97347  21587093.296    21587097.298
  22515892.205   -13724930.68349 -10677560.60246  22515891.713    22515896.778
  23203300.129    -8532735.30449  -6084832.00845  23203299.760    23203305.884
  23291655.641   -10693513.43449  -8309501.27245  23291655.343    23291659.582
 03  6  5 17 33  0.0000000  0 10G17G29G18G10G21G 6G26G15G23G16
  20768295.512    -2843114.84549  -2206756.99147  20768295.059    20768299.448
  22823297.505    -4779876.50949  -3524640.53246  22823297.450    22823301.772
  21406091.649   -17405762.48649 -13545661.30647  21406091.391    21406094.774
  24672441.774    16697148.80749  13002797.04345  24672441.154    24672447.141
  20681847.730    -7192622.95549  -5429779.19247  20681847.345    20681849.765
  20588704.674     -404129.53949   -306724.95148  20588704.666    20588708.575
  21582375.755   -12607069.22649  -9804877.65147  21582375.982    21582379.985
  22502970.787   -13792832.75249 -10730471.27846  22502970.338    22502975.475
  23186887.050    -8618986.23149  -6152040.44545  23186886.653    23186892.871
  23288575.471   -10709699.51749  -8322113.82145  23288575.185    23288579.504
 03  6  5 17 33 30.0000000  0 10G17G29G18G10G21G 6G26G15G23G16
  20769038.835    -2839208.85549  -2203713.36347  20769038.364    20769042.740
  22827486.058    -4757865.44149  -3507489.07146  22827486.060    22827490.320
  21393533.331   -17471756.93949 -13597085.53247  21393533.095    21393536.434
  24692636.732    16803273.98949  13085491.89844  24692636.092    24692641.830
  20678208.892    -7211745.28449  -5444679.70247  20678208.504    20678210.898
  20596525.966     -363028.64049   -274698.30048  20596525.952    20596529.861
  21577778.099   -12631230.15649  -9823704.34847  21577778.305    21577782.344
  22490070.539   -13860624.37849 -10783295.89946  22490070.018    22490075.180
  23170525.581    -8704965.42149  -6219037.13846  23170525.150    23170531.517
  23285599.552   -10725337.71449  -8334299.44845  23285599.335    23285603.611
 03  6  5 17 34  0.0000000  0 10G17G29G18G10G21G 6G26G15G23G16
  20769818.810    -2835110.00349  -2200519.45047  20769818.364    20769822.734
  22831778.372    -4735309.49149  -3489913.02246  22831778.349    22831782.631
  21381048.848   -17537363.47649 -13648207.48047  21381048.588    21381051.918
  24712833.246    16909406.59149  13168192.62545  24712832.662    24712838.049
  20674609.970    -7230657.79049  -5459416.71347  20674609.575    20674611.940
  20604438.466     -321448.07349   -242297.88147  20604438.464    20604442.403
  21573300.262   -12654761.04749  -9842040.11347  21573300.525    21573304.561
  22477191.178   -13928305.65249 -10836034.52846  22477190.665    22477195.821
  23154216.049    -8790671.75649  -6285821.21146  23154215.620    23154222.108
  23282727.911   -10740428.09549  -8346058.19545  23282727.703    23282731.989
 03  6  5 17 34 30.0000000  0  9G17G29G18G21G 6G26G15G23G16
  20770635.974    -2830815.82549  -2197173.33747  20770635.508    20770639.876
  22836174.707    -4712206.43449  -3471910.67846  22836174.735    22836179.049
  21368638.804   -17602578.58549 -13699024.42747  21368638.559    21368641.865
  20671051.512    -7249357.72149  -5473988.08347  20671051.099    20671053.480
  20612442.686     -279385.72849   -209522.05147  20612442.683    20612446.645
  21568943.189   -12677657.76249  -9859881.71747  21568943.411    21568947.474
  22464333.388   -13995873.56249 -10888684.82146  22464332.916    22464337.995
  23137959.220    -8876101.37549  -6352389.67246  23137958.855    23137965.350
  23279961.075   -10754968.18249  -8357388.15145  23279960.858    23279965.166
 03  6  5 17 35  0.0000000  0  9G17G29G18G21G 6G26G15G23G16
  20771489.839    -2826328.71449  -2193676.88647  20771489.377    20771493.729
  22840674.678    -4688559.42449  -3453484.46146  22840674.610    22840678.903
  21356302.973   -17667403.83349 -13749537.58047  21356302.729    21356306.011
  20667533.076    -7267846.96449  -5488395.27947  20667532.695    20667535.085
  20620538.035     -236844.34449   -176372.93947  20620538.029    20620541.986
  21564706.623   -12699921.14549  -9877229.80747  21564706.814    21564710.915
  22451496.831   -14063330.34649 -10941248.51946  22451496.333    22451501.372
  23121754.856    -8961255.28649  -6418743.27246  23121754.503    23121761.055
  23277298.674   -10768960.03749  -8368290.92445  23277298.371    23277302.578
 03  6  5 17 35 30.0000000  0  9G17G29G18G21G 6G26G15G23G16
  20772380.205    -2821649.79049  -2190030.97047  20772379.741    20772384.086
  22845277.667    -4664370.15549  -3434635.68846  22845277.643    22845281.957
  21344041.215   -17731839.52049 -13799747.18447  21344040.958    21344044.282
  20664054.524    -7286126.74649  -5502639.26647  20664054.143    20664056.525
  20628724.269     -193825.74149   -142851.97747  20628724.251    20628728.190
  21560590.561   -12721551.21249  -9894084.40947  21560590.754    21560594.870
  22438681.138   -14130677.06449 -10993726.46246  22438680.664    22438685.712
  23105602.986    -9046133.65849  -6484882.17546  23105602.645    23105609.158
  23274740.170   -10782405.04749  -8378767.58045  23274739.873    23274744.135
 03  6  5 17 36  0.0000000  0  9G17G29G18G21G 6G26G15G23G16
  20773307.293    -2816777.95749  -2186234.73347  20773306.819    20773311.175
  22849983.951    -4639638.14049  -3415364.00346  22849983.985    22849988.295
  21331853.986   -17795883.63949 -13849651.67247  21331853.735    21331857.086
  20660616.072    -7304195.94649  -5516719.15747  20660615.683    20660618.114
  20637001.400     -150329.41549   -108958.75447  20637001.371    20637005.277
  21556595.510   -12742545.41549  -9910443.53047  21556595.689    21556599.852
  22425886.650   -14197912.52149 -11046117.69746  22425886.122    22425891.294
  23089503.989    -9130734.23249  -6550804.61646  23089503.729    23089510.124
  23272285.849   -10795302.33049  -8388817.43645  23272285.632    23272289.838
 03  6  5 17 36 30.0000000  0  9G17G29G18G21G 6G26G15G23G16
  20774271.078    -2811713.31949  -2182288.26347  20774270.602    20774274.941
  22854793.441    -4614364.19049  -3395670.02346  22854793.556    22854797.779
  21319741.329   -17859535.72949 -13899250.68747  21319741.110    21319744.447
  20657217.733    -7322054.11849  -5530634.61947  20657217.366    20657219.817
  20645369.253     -106356.18249    -74693.92247  20645369.228    20645373.135
  21552721.659   -12762902.66249  -9926306.32847  21552721.851    21552725.951
  22413113.262   -14265036.56149 -11098422.11046  22413112.765    22413117.982
  23073458.173    -9215055.96749  -6616509.77946  23073457.848    23073464.147
  23269935.711   -10807652.03949  -8398440.60745  23269935.549    23269939.780
 03  6  5 17 37  0.0000000  0  9G17G29G18G21G 6G26G15G23G16
  20775271.589    -2806455.65949  -2178191.38047  20775271.129    20775275.460
  22859706.023    -4588549.07049  -3375554.35346  22859706.055    22859710.238
  21307703.533   -17922795.03249 -13948543.63047  21307703.264    21307706.589
  20653859.662    -7339701.17649  -5544385.57347  20653859.301    20653861.719
  20653827.782      -61906.37649    -40057.72847  20653827.753    20653831.667
  21548969.280   -12782621.60349  -9941671.73647  21548969.469    21548973.505
  22400361.138   -14332049.08949 -11150639.63546  22400360.713    22400365.899
  23057465.516    -9299097.64449  -6681996.71946  23057465.199    23057471.451
  23267689.795   -10819454.41849  -8407637.28545  23267689.674    23267693.926
 03  6  5 17 37 30.0000000  0  9G17G29G18G21G 6G26G15G23G16
  20776308.839    -2801004.72049  -2173943.89547  20776308.381    20776312.736
  22864721.478    -4562192.92449  -3355017.11446  22864721.513    22864725.694
  21295740.664   -17985660.40449 -13997529.61147  21295740.406    21295743.709
  20650541.752    -7357136.86349  -5557971.82447  20650541.408    20650543.810
  20662376.988      -16980.18549     -5050.32847  20662376.954    20662380.851
  21545338.717   -12801700.53849  -9956538.43847  21545338.912    21545342.907
  22387630.479   -14398949.28249 -11202769.62746  22387630.016    22387635.156
  23041526.459    -9382857.79949  -6747264.29946  23041526.163    23041532.324
  23265548.203   -10830709.21049  -8416407.26545  23265548.016    23265552.289
 03  6  5 17 38  0.0000000  0  9G17G29G18G21G 6G26G15G23G16
  20777382.938    -2795360.41949  -2169545.74347  20777382.477    20777386.824
  22869839.670    -4535296.79849  -3334059.11046  22869839.710    22869843.939
  21283852.857   -18048131.23849 -14046208.16247  21283852.585    21283855.890
  20647264.129    -7374360.95149  -5571393.19947  20647263.777    20647266.170
  20671016.665       28421.46549     30327.55247  20671016.623    20671020.501
  21541830.125   -12820138.53249  -9970905.70247  21541830.311    21541834.262
  22374921.137   -14465737.41649 -11254812.30346  22374920.664    22374925.713
  23025641.150    -9466335.59249  -6812311.85246  23025640.781    23025646.948
  23263510.833   -10841416.80149  -8424750.86145  23263510.507    23263514.747
 03  6  5 17 38 30.0000000  0  9G17G29G18G21G 6G26G15G23G16
  20778493.985    -2789521.83549  -2164996.19947  20778493.488    20778497.874
  22875060.479    -4507860.80949  -3312680.43946  22875060.555    22875064.841
  21272040.380   -18110206.21349 -14094578.25347  21272040.103    21272043.438
  20644026.995    -7391372.43049  -5584648.90047  20644026.618    20644029.018
  20679746.824       74298.80049     66076.09747  20679746.799    20679750.702
  21538443.758   -12837933.68949  -9984772.05147  21538443.946    21538447.932
  22362233.257   -14532412.57049 -11306766.94446  22362232.798    22362237.773
  23009809.949    -9549529.00549  -6877137.83246  23009809.580    23009815.709
  23261577.704   -10851576.54749  -8432667.55745  23261577.135    23261581.328
 03  6  5 17 39  0.0000000  0  9G17G29G18G21G 6G26G15G23G16
  20779641.931    -2783489.06649  -2160295.34247  20779641.464    20779645.842
  22880384.039    -4479885.50349  -3290881.51746  22880384.110    22880388.416
  21260303.333   -18171884.61449 -14142639.32747  21260303.069    21260306.397
  20640830.347    -7408170.75849  -5597738.50647  20640829.991    20640832.376
  20688567.416      120651.21149    102194.83647  20688567.373    20688571.328
  21535180.010   -12855084.81649  -9998136.56247  21535180.195    21535184.216
  22349566.971   -14598974.34749 -11358633.22646  22349566.487    22349571.460
  22994033.024    -9632436.93549  -6941741.34046  22994032.732    22994038.885
  23259748.454   -10861189.00949  -8440157.80045  23259748.032    23259752.191
 03  6  5 17 39 30.0000000  0 10G17G29G18G21G 6G26G15G23G 2G16
  20780826.784    -2777262.43149  -2155443.41647  20780826.323    20780830.716
  22885809.911    -4451372.60149  -3268663.69046  22885809.973    22885814.219
  21248641.805   -18233166.36749 -14190391.32147  21248641.542    21248644.889
  20637674.097    -7424756.88049  -5610662.74847  20637673.736    20637676.132
  20697478.084      167477.21949    138682.61247  20697478.074    20697482.060
  21532038.865   -12871591.43649 -10010998.85147  21532039.069    21532043.087
  22336922.156   -14665423.38649 -11410411.67546  22336921.671    22336926.579
  22978310.544    -9715059.16149  -7006122.23346  22978310.177    22978316.307
  25240633.300    -4023818.45359  -3127769.09245  25240632.884    25240639.509
  23258023.144   -10870255.01249  -8447222.23146  23258022.836    23258027.073
 03  6  5 17 40  0.0000000  0 10G17G29G18G21G 6G26G15G23G 2G16
  20782047.838    -2770845.88449  -2150443.51547  20782047.368    20782051.789
  22891337.255    -4422326.62549  -3246030.47446  22891337.247    22891341.452
  21237055.160   -18294054.72749 -14237836.76647  21237054.893    21237058.180
  20634557.532    -7441134.47449  -5623424.50347  20634557.183    20634559.596
  20706478.008      214772.19549    175535.81347  20706478.004    20706481.984
  21529019.873   -12887456.38749 -10023361.14047  21529020.099    21529024.085
  22324298.090   -14731763.29549 -11462105.08446  22324297.580    22324302.527
  22962641.808    -9797398.33449  -7070282.55046  22962641.424    22962647.577
  25232674.580    -4065641.82149  -3160358.71345  25232674.123    25232680.783
  23256401.257   -10878778.62449  -8453864.01946  23256400.909    23256405.109
 03  6  5 17 40 30.0000000  0 10G17G29G18G21G 6G26G15G23G 2G16
  20783306.359    -2764232.32949  -2145290.09747  20783305.897    20783310.304
  22896967.134    -4392741.65849  -3222977.26446  22896967.110    22896971.279
  21225544.799   -18354541.96349 -14284969.64747  21225544.511    21225547.805
  20631482.096    -7457296.16349  -5636018.02247  20631481.712    20631484.133
  20715568.441      262542.47549    212759.38347  20715568.430    20715572.376
  21526124.556   -12902671.60249 -10035217.13747  21526124.774    21526128.739
  22311696.142   -14797986.91949 -11513707.87746  22311695.654    22311700.602
  22947028.542    -9879446.48149  -7134216.11146  22947028.153    22947034.196
  25224792.703    -4107061.31148  -3192633.64445  25224792.430    25224798.406
  23254883.720   -10886753.43049  -8460078.15046  23254883.389    23254887.608
 03  6  5 17 41  0.0000000  0 10G17G29G18G21G 6G26G15G23G 2G16
  20784602.400    -2757421.63349  -2139983.06747  20784601.949    20784606.341
  22902699.312    -4362618.61249  -3199504.76746  22902699.291    22902703.464
  21214110.769   -18414627.97049 -14331789.89747  21214110.507    21214113.808
  20628447.672    -7473242.13449  -5648443.44747  20628447.303    20628449.721
  20724749.142      310786.95049    250352.45647  20724749.115    20724753.014
  21523352.986   -12917236.27749 -10046566.22847  21523353.183    21523357.195
  22299116.276   -14864094.54949 -11565220.28646  22299115.793    22299120.768
  22931470.655    -9961202.87249  -7197922.36046  22931470.294    22931476.333
  25216987.552    -4148076.57549  -3224593.54945  25216987.364    25216993.343
  23253470.437   -10894179.96349  -8465865.07246  23253470.108    23253474.414
 03  6  5 17 41 30.0000000  0 10G17G29G18G21G 6G26G15G23G 2G16
  20785935.752    -2750414.70249  -2134523.12447  20785935.326    20785939.710
  22908533.530    -4331959.47549  -3175614.55446  22908533.542    22908537.789
  21202753.051   -18474312.77149 -14378297.50447  21202752.820    21202756.130
  20625454.234    -7488972.89849  -5660701.18447  20625453.865    20625456.270
  20734019.740      359504.15749    288313.89447  20734019.707    20734023.606
  21520705.177   -12931150.43449 -10057408.41947  21520705.356    21520709.407
  22286558.416   -14930086.56949 -11616642.61546  22286557.907    22286562.909
  22915968.441   -10042667.20749  -7261400.98546  22915968.116    22915974.096
  25209259.778    -4188687.27449  -3256238.22345  25209259.592    25209265.465
  23252161.306   -10901059.40849  -8471225.70246  23252160.984    23252165.272
 03  6  5 17 42  0.0000000  0 10G17G29G18G21G 6G26G15G23G 2G16
  20787306.344    -2743212.46749  -2128910.99747  20787305.907    20787310.267
  22914469.473    -4300765.66449  -3151307.70246  22914469.553    22914473.766
  21191471.791   -18533596.29049 -14424492.42947  21191471.549    21191474.829
  20622501.645    -7504488.85849  -5672791.54147  20622501.269    20622503.678
  20743379.988      408692.66749    326642.58347  20743379.947    20743383.922
  21518181.281   -12944413.56149 -10067743.31247  21518181.473    21518185.526
  22274022.465   -14995963.25549 -11667975.07046  22274021.976    22274026.966
  22900521.880   -10123839.25949  -7324651.89246  22900521.589    22900527.448
  25201608.923    -4228893.65249  -3287567.86945  25201608.610    25201614.688
  23250956.123   -10907392.76449  -8476160.79946  23250955.818    23250960.136
 03  6  5 17 42 30.0000000  0 10G17G29G18G21G 6G26G15G23G 2G16
  20788714.185    -2735814.23749  -2123146.14147  20788713.763    20788718.103
  22920507.070    -4269038.12849  -3126584.95846  22920507.133    22920511.312
  21180267.014   -18592477.93749 -14470374.21147  21180266.756    21180270.006
  20619589.995    -7519789.61949  -5684714.20947  20619589.615    20619592.049
  20752829.813      458351.75849    365337.95647  20752829.785    20752833.768
  21515781.445   -12957024.69249 -10077570.14247  21515781.624    21515785.687
  22261508.539   -15061724.31849 -11719217.44646  22261508.029    22261512.996
  22885131.186   -10204717.99449  -7387674.23946  22885130.854    22885136.748
  25194035.089    -4268694.62649  -3318581.63145  25194034.764    25194040.738
  23249854.669   -10913180.55049  -8480670.79646  23249854.421    23249858.758
 03  6  5 17 43  0.0000000  0 10G17G29G18G21G 6G26G15G23G 2G16
  20790159.257    -2728220.31549  -2117228.80447  20790158.813    20790163.170
  22926646.076    -4236777.96349  -3101447.17546  22926646.133    22926650.277
  21169138.746   -18650957.39649 -14515942.59247  21169138.470    21169141.732
  20616719.251    -7534875.35949  -5696469.32347  20616718.883    20616721.327
  20762368.984      508480.33949    404399.16247  20762368.951    20762372.974
  21513505.814   -12968983.19649 -10086888.43947  21513505.990    21513510.074
  22249016.576   -15127369.82749 -11770369.75246  22249016.066    22249021.008
  22869796.497   -10285302.53849  -7450467.35046  22869796.109    22869802.015
  25186538.576    -4308089.67949  -3349279.08345  25186538.202    25186544.138
  23248857.074   -10918423.30549  -8484756.08846  23248856.821    23248861.166
 03  6  5 17 43 30.0000000  0 10G17G29G18G21G 6G26G15G23G 2G16
  20791641.645    -2720430.51749  -2111158.83447  20791641.216    20791645.542
  22932886.315    -4203985.62849  -3075894.71646  22932886.323    22932890.393
  21158087.191   -18709033.46349 -14561196.64347  21158086.921    21158090.190
  20613889.606    -7549745.02949  -5708056.07747  20613889.251    20613891.734
  20771997.445      559078.23249    443826.06347  20771997.435    20772001.440
  21511354.581   -12980287.71749 -10095697.14147  21511354.799    21511358.918
  22236546.729   -15192899.21049 -11821431.57746  22236546.249    22236551.203
  22854517.995   -10365591.26649  -7513029.93546  22854517.647    22854523.537
  25179119.087    -4347077.49149  -3379659.19945  25179118.760    25179125.037
  23247963.162   -10923120.92249  -8488416.58845  23247962.900    23247967.244
 03  6  5 17 44  0.0000000  0 10G17G29G18G21G 6G26G15G23G 2G16
  20793161.375    -2712444.30649  -2104935.81447  20793160.934    20793165.270
  22939227.533    -4170662.21349  -3049928.42946  22939227.543    22939231.646
  21147112.460   -18766705.78649 -14606136.08847  21147112.239    21147115.483
  20611101.152    -7564398.54449  -5719474.39547  20611100.792    20611103.281
  20781715.046      610144.45749    483617.89647  20781715.038    20781719.035
  21509328.009   -12990937.44749 -10103995.61847  21509328.182    21509332.350
  22224099.026   -15258312.31149 -11872402.79046  22224098.517    22224103.492
  22839295.876   -10445583.44749  -7575361.44546  22839295.595    22839301.521
  25171777.725    -4385657.31149  -3409721.43545  25171777.349    25171783.423
  23247172.766   -10927274.19949  -8491652.93545  23247172.627    23247176.885
 03  6  5 17 44 30.0000000  0 10G17G29G18G21G 6G26G15G23G 2G16
  20794718.541    -2704261.36149  -2098559.49947  20794718.096    20794722.459
  22945669.632    -4136808.75549  -3023549.13046  22945669.633    22945673.765
  21136214.706   -18823973.92949 -14650760.58447  21136214.473    21136217.729
  20608353.835    -7578835.83649  -5730724.22847  20608353.474    20608355.945
  20791521.614      661678.17949    523774.02047  20791521.599    20791525.585
  21507426.228   -13000931.45249 -10111783.14047  21507426.428    21507430.534
  22211673.373   -15323609.02349 -11923283.32846  22211672.879    22211677.957
  22824130.339   -10525278.02349  -7637461.02346  22824130.094    22824136.156
  25164514.187    -4423828.73949  -3439465.42845  25164513.850    25164519.733
  23246486.091   -10930883.53249  -8494465.43545  23246485.843    23246490.017
 03  6  5 17 45  0.0000000  0 10G17G29G18G21G 6G26G15G23G 2G16
  20796313.131    -2695881.51649  -2092029.75347  20796312.732    20796317.080
  22952212.411    -4102426.07249  -2996757.45046  22952212.414    22952216.628
  21125394.047   -18880836.92349 -14695069.38547  21125393.814    21125397.003
  20605647.767    -7593056.41149  -5741805.19047  20605647.387    20605649.861
  20801417.035      713678.75449    564293.92647  20801417.019    20801420.991
  21505649.353   -13010268.87549 -10119059.04447  21505649.559    21505653.701
  22199269.964   -15388788.83349 -11974072.77846  22199269.446    22199274.637
  22809021.742   -10604673.89549  -7699327.85846  22809021.454    22809027.559
  25157328.350    -4461590.72749  -3468890.38545  25157328.015    25157333.913
  23245902.593   -10933949.35049  -8496854.41145  23245902.397    23245906.599
 03  6  5 17 45 30.0000000  0 10G17G29G18G21G 6G26G15G23G 2G16
  20797945.357    -2687304.29349  -2085346.21147  20797944.942    20797949.323
  22958855.724    -4067515.12949  -2969554.14946  22958855.755    22958860.027
  21114650.576   -18937294.14849 -14739062.00547  21114650.352    21114653.539
  20602983.018    -7607059.80949  -5752716.92647  20602982.632    20602985.100
  20811401.057      766145.27749    605176.90247  20811401.057    20811405.064
  21503997.616   -13018948.73249 -10125822.54947  21503997.802    21504001.945
  22186888.989   -15453851.01149 -12024770.55546  22186888.467    22186893.703
  22793970.209   -10683770.07049  -7760961.19046  22793969.913    22793975.931
  25150220.276    -4498942.23349  -3497995.46845  25150220.026    25150226.140
  23245422.457   -10936472.06149  -8498820.17145  23245422.299    23245426.508
 03  6  5 17 46  0.0000000  0 10G17G29G18G21G 6G26G15G23G 2G16
  20799615.095    -2678529.68549  -2078508.86047  20799614.666    20799619.066
  22965599.292    -4032077.13049  -2941940.13446  22965599.386    22965603.658
  21103984.385   -18993345.29749 -14782738.20547  21103984.136    21103987.337
  20600359.627    -7620845.76149  -5763459.22047  20600359.238    20600361.708
  20821473.620      819076.82949    646422.23747  20821473.604    20821477.661
  21502471.104   -13026970.55249 -10132073.28547  21502471.309    21502475.443
  22174530.347   -15518795.63749 -12075376.72346  22174529.863    22174535.082
  22778975.974   -10762565.52049  -7822360.14246  22778975.703    22778981.571
  25143190.849    -4535882.91349  -3526780.45545  25143190.442    25143196.591
  23245045.820   -10938452.25849  -8500363.20645  23245045.530    23245049.688
 03  6  5 17 46 30.0000000  0 10G17G29G18G21G 6G26G15G23G 2G16
  20801322.421    -2669557.73649  -2071517.73547  20801321.994    20801326.396
  22972443.086    -3996113.46849  -2913916.52446  22972443.109    22972447.338
  21093395.540   -19048989.95949 -14826097.66047  21093395.306    21093398.502
  20597777.615    -7634414.30149  -5774032.10247  20597777.255    20597779.702
  20831634.428      872472.10849    688028.92447  20831634.429    20831638.520
  21501069.912   -13034333.71049 -10137810.78647  21501070.129    21501074.249
  22162194.211   -15583622.59549 -12125891.21146  22162193.743    22162198.863
  22764039.043   -10841059.68349  -7883524.34846  22764038.764    22764044.590
  25136239.563    -4572412.24749  -3555244.88645  25136239.124    25136245.483
  23244771.935   -10939890.83549  -8501484.21245  23244771.819    23244776.009
 03  6  5 17 47  0.0000000  0 10G17G29G18G21G 6G26G15G23G 2G16
  20803067.387    -2660387.94949  -2064372.44947  20803066.956    20803071.337
  22979386.676    -3959624.74449  -2885483.78046  22979386.682    22979390.914
  21082884.214   -19104227.39549 -14869139.79447  21082883.973    21082887.147
  20595237.091    -7647764.82949  -5784435.10847  20595236.744    20595239.199
  20841883.359      926330.46549    729996.45447  20841883.344    20841887.451
  21499794.221   -13041037.35349 -10143034.37647  21499794.452    21499798.557
  22149880.552   -15648331.39349 -12176313.61446  22149880.077    22149885.149
  22749159.658   -10919251.22049  -7944452.75746  22749159.335    22749165.194
  25129366.961    -4608529.34748  -3583388.10445  25129366.363    25129372.467
  23244601.309   -10940788.12749  -8502183.42145  23244601.107    23244605.278
 03  6  5 17 47 30.0000000  0 10G17G29G18G21G 6G26G15G23G 2G16
  20804850.052    -2651020.05949  -2057072.79347  20804849.592    20804854.006
  22986430.012    -3922611.97349  -2856642.69446  22986430.035    22986434.240
  21072450.527   -19159056.79649 -14911863.97647  21072450.286    21072453.443
  20592738.184    -7660896.62449  -5794667.67647  20592737.814    20592740.268
  20852220.342      980651.48549    772324.49447  20852220.338    20852224.407
  21498644.251   -13047080.49149 -10147743.29447  21498644.468    21498648.552
  22137589.528   -15712921.26249 -12226643.37446  22137589.046    22137594.069
  22734337.983   -10997138.99349  -8005144.47346  22734337.676    22734343.607
  25122572.529    -4644233.29549  -3611209.29445  25122571.936    25122578.250
  23244533.514   -10941144.61849  -8502461.22645  23244533.245    23244537.391
 03  6  5 17 48  0.0000000  0 10G17G29G18G21G 6G26G15G23G 2G16
  20806670.401    -2641453.85449  -2049618.61347  20806669.942    20806674.384
  22993572.810    -3885076.34649  -2827394.19146  22993572.870    22993577.121
  21062094.545   -19213477.83949 -14954269.95847  21062094.296    21062097.443
  20590280.963    -7673809.46949  -5804729.63447  20590280.605    20590283.053
  20862645.234     1035434.27949    815012.34947  20862645.221    20862649.263
  21497620.079   -13052462.37549 -10151936.95247  21497620.297    21497624.388
  22125321.204   -15777391.81349 -12276880.14746  22125320.729    22125325.715
  22719574.375   -11074721.85349  -8065598.58046  22719574.076    22719580.041
  25115857.069    -4679523.36349  -3638707.99245  25115856.534    25115863.112
  23244568.447   -10940960.78749  -8502318.01545  23244568.200    23244572.400
 03  6  5 17 48 30.0000000  0 10G17G29G18G21G 6G26G15G23G 2G16
  20808528.637    -2631688.87649  -2042009.53747  20808528.196    20808532.630
  23000815.027    -3847018.48849  -2797738.73646  23000815.097    23000819.248
  21051816.437   -19267489.46149 -14996356.90647  21051816.181    21051819.357
  20587865.536    -7686502.72449  -5814620.47447  20587865.167    20587867.622
  20873157.830     1090678.15249    858059.50047  20873157.804    20873161.844
  21496721.920   -13057182.13349 -10155614.67047  21496722.129    21496726.268
  22113075.690   -15841742.71349 -12327023.68346  22113075.177    22113080.077
  22704868.993   -11151998.70149  -8125814.24846  22704868.756    22704874.664
  25109220.523    -4714398.45349  -3665883.42745  25109220.029    25109226.526
  23244706.274   -10940236.94349  -8501754.00145  23244705.945    23244710.088
 03  6  5 17 49  0.0000000  0 10G17G29G18G21G 6G26G15G23G 2G16
  20810424.736    -2621724.81249  -2034245.33447  20810424.263    20810428.705
  23008156.358    -3808440.03049  -2767677.63146  23008156.405    23008160.466
  21041616.231   -19321091.80049 -15038124.93947  21041615.972    21041619.141
  20585491.882    -7698976.48149  -5824340.28047  20585491.511    20585493.953
  20883757.888     1146381.76649    901464.88747  20883757.855    20883761.916
  21495949.713   -13061239.78349 -10158776.46747  21495949.964    21495954.112
  22100852.845   -15905973.90549 -12377073.94646  22100852.338    22100857.189
  22690221.974   -11228969.12149  -8185791.12146  22690221.707    22690227.630
  25102662.863    -4748858.39549  -3692735.28645  25102662.469    25102669.211
  23244946.379   -10938974.29449  -8500770.13645  23244946.299    23244950.386
 03  6  5 17 49 30.0000000  0 10G17G29G18G21G 6G26G15G23G 2G16
  20812358.704    -2611561.62849  -2026325.97347  20812358.254    20812362.702
  23015596.329    -3769342.27649  -2737211.87446  23015596.414    23015600.522
  21031493.977   -19374284.31749 -15079573.62747  21031493.730    21031496.885
  20583160.023    -7711230.38849  -5833888.77347  20583159.635    20583162.076
  20894445.229     1202544.00749    945227.64047  20894445.187    20894449.262
  21495303.720   -13064634.79749 -10161421.92047  21495303.961    21495308.090
  22088652.892   -15970085.24449 -12427030.81146  22088652.404    22088657.142
  22675633.462   -11305632.25149  -8245528.55646  22675633.166    22675639.013
  25096184.408    -4782902.80449  -3719263.41145  25096184.034    25096190.520
  23245289.138   -10937173.61849  -8499367.04045  23245288.882    23245293.087
 03  6  5 17 50  0.0000000  0 10G17G29G18G21G 6G26G15G23G 2G16
  20814330.523    -2601199.42049  -2018251.52447  20814330.079    20814334.525
  23023135.019    -3729726.16649  -2706342.21546  23023135.055    23023139.307
  21021449.862   -19427066.53149 -15120702.60047  21021449.593    21021452.709
  20580870.062    -7723264.24149  -5843265.79347  20580869.680    20580872.124
  20905219.662     1259164.00749    989347.08947  20905219.638    20905223.732
  21494783.933   -13067366.43149 -10163550.45347  21494784.131    21494788.249
  22076475.871   -16034076.09449 -12476893.79246  22076475.354    22076480.072
  22661103.645   -11381986.96049  -8305025.65646  22661103.315    22661109.128
  25089785.181    -4816531.04749  -3745467.23845  25089784.823    25089791.153
  23245734.079   -10934835.57649  -8497545.22445  23245733.913    23245738.047
 03  6  5 17 50 30.0000000  0 10G17G29G18G21G 6G26G15G23G 2G16
  20816340.319    -2590637.72549  -2010021.63547  20816339.908    20816344.369
  23030772.202    -3689593.09149  -2675069.71946  23030772.178    23030776.386
  21011483.867   -19479438.17149 -15161511.65047  21011483.593    21011486.695
  20578622.105    -7735077.17249  -5852470.67747  20578621.717    20578624.153
  20916080.997     1316240.74949   1033822.43947  20916080.978    20916085.113
  21494390.422   -13069434.31649 -10165161.77547  21494390.633    21494394.719
  22064321.848   -16097946.11149 -12526662.61246  22064321.308    22064326.022
  22646632.668   -11458032.42349  -8364281.79846  22646632.353    22646638.149
  25083465.458    -4849742.45349  -3771346.28845  25083465.069    25083471.125
  23246281.212   -10931960.86349  -8495305.21745  23246280.945    23246285.175
 03  6  5 17 51  0.0000000  0 10G17G29G18G21G 6G26G15G23G 2G16
  20818388.230    -2579875.88349  -2001635.79147  20818387.820    20818392.269
  23038507.381    -3648944.23049  -2643395.31646  23038507.423    23038511.649
  21001596.163   -19531398.44949 -15202000.15147  21001595.898    21001598.979
  20576416.183    -7746669.18249  -5861503.40847  20576415.824    20576418.252
  20927029.134     1373773.39049   1078653.03347  20927029.119    20927033.265
  21494123.327   -13070837.77949 -10166255.37147  21494123.538    21494127.617
  22052190.812   -16161695.07349 -12576337.11546  22052190.286    22052194.992
  22632220.692   -11533767.76149  -8423296.27746  22632220.350    22632226.150
  25077224.931    -4882536.22549  -3796899.87145  25077224.748    25077230.695
  23246930.279   -10928550.09749  -8492647.48945  23246930.045    23246934.277
 03  6  5 17 51 30.0000000  0 10G17G29G18G21G 6G26G15G23G 2G16
  20820474.370    -2568913.24149  -1993093.47747  20820473.956    20820478.372
  23046340.730    -3607780.31349  -2611319.55146  23046340.720    23046344.890
  20991786.874   -19582946.55049 -15242167.48047  20991786.609    20991789.692
  20574252.568    -7758039.14649  -5870363.12047  20574252.172    20574254.650
  20938063.942     1431761.24949   1123838.35147  20938063.900    20938068.048
  21493982.851   -13071576.03749 -10166830.62247  21493983.035    21493987.144
  22040082.880   -16225322.06349 -12625916.55646  22040082.428    22040087.195
  22617868.000   -11609191.48549  -8482067.94546  22617867.656    22617873.447
  25071064.053    -4914911.44349  -3822127.34945  25071063.904    25071069.565
  23247681.137   -10924603.65849  -8489572.37045  23247680.955    23247685.319
 03  6  5 17 52  0.0000000  0 10G17G29G18G21G 6G26G15G23G 2G16
  20822598.670    -2557750.16549  -1984394.98047  20822598.235    20822602.642
  23054271.551    -3566103.15149  -2578843.87446  23054271.590    23054275.818
  20982055.979   -19634082.66949 -15282013.77847  20982055.685    20982058.833
  20572131.134    -7769187.41249  -5879050.08147  20572130.740    20572133.227
  20949185.050     1490202.81049   1169377.19547  20949185.011    20949189.162
  21493968.935   -13071649.18349 -10166887.60947  21493969.115    21493973.229
  22027998.357   -16288826.84649 -12675400.78846  22027997.884    22028002.706
  22603574.576   -11684303.38449  -8540596.64146  22603574.231    22603580.053
  25064983.033    -4946868.02749  -3847028.60345  25064982.784    25064988.476
  23248533.850   -10920122.98049  -8486080.95945  23248533.655    23248537.968
 03  6  5 17 52 30.0000000  0 10G17G29G18G21G 6G26G15G23G 2G16
  20824761.304    -2546385.70849  -1975539.56547  20824760.878    20824765.247
  23062300.054    -3523913.25949  -2545968.66246  23062300.082    23062304.335
  20972403.650   -19684805.75049 -15321538.23447  20972403.357    20972406.512
  20570052.122    -7780112.81449  -5887563.38147  20570051.730    20570054.188
  20960392.398     1549097.63549   1215269.23247  20960392.342    20960396.485
  21494081.773   -13071056.04349 -10166425.41747  21494081.967    21494086.081
  22015937.191   -16352208.66949 -12724789.20746  22015936.704    22015941.559
  22589340.796   -11759101.96949  -8598881.18546  22589340.445    22589346.208
  25058981.591    -4978404.95049  -3871602.84745  25058981.178    25058987.208
  23249488.137   -10915108.15949  -8482173.33746  23249488.004    23249492.338
 03  6  5 17 53  0.0000000  0 10G17G29G18G21G 6G26G15G23G 2G16
  20826962.177    -2534820.09649  -1966527.39947  20826961.724    20826966.095
  23070425.732    -3481212.66149  -2512695.48446  23070425.747    23070430.028
  20962829.884   -19735116.01449 -15360741.00947  20962829.605    20962832.752
  20568015.442    -7790815.51149  -5895903.14547  20568015.059    20568017.508
  20971685.597     1608443.92749   1261513.06047  20971685.564    20971689.698
  21494321.337   -13069797.10649 -10165444.41747  21494321.501    21494325.615
  22003899.372   -16415467.77749 -12774081.98946  22003898.838    22003903.742
  22575166.720   -11833587.05449  -8656921.45446  22575166.338    22575172.070
  25053060.022    -5009522.47149  -3895850.29745  25053059.678    25053065.962
  23250544.006   -10909560.81649  -8477850.76346  23250543.743    23250548.021
 03  6  5 17 53 30.0000000  0 10G17G29G18G21G 6G26G15G23G 2G16
  20829201.460    -2523052.60049  -1957357.93047  20829201.024    20829205.412
  23078648.432    -3438002.08749  -2479024.92946  23078648.474    23078652.750
  20953334.823   -19785012.80849 -15399621.60847  20953334.538    20953337.679
  20566021.258    -7801294.85149  -5904068.86547  20566020.890    20566023.329
  20983064.622     1668240.98149   1308108.12647  20983064.567    20983068.734
  21494687.734   -13067871.46849 -10163943.91547  21494687.907    21494692.050
  21991885.007   -16478603.24949 -12823278.43946  21991884.495    21991889.458
  22561052.511   -11907757.32549  -8714716.41946  22561052.109    22561057.818
  25047218.869    -5040219.42449  -3919770.04245  25047218.460    25047224.460
  23251700.801   -10903481.24449  -8473113.45646  23251700.633    23251704.942
 03  6  5 17 54  0.0000000  0 10G17G29G18G21G 6G26G15G23G 2G16
  20831479.088    -2511083.50749  -1948031.37047  20831478.657    20831483.074
  23086967.855    -3394283.59949  -2444958.60946  23086967.885    23086972.176
  20943918.443   -19834496.13249 -15438180.02347  20943918.167    20943921.304
  20564069.703    -7811550.46549  -5912060.25647  20564069.341    20564071.761
  20994529.162     1728487.47249   1355053.40847  20994529.120    20994533.269
  21495181.057   -13065279.19349 -10161923.95247  21495181.226    21495185.357
  21979894.154   -16541615.16949 -12872378.61546  21979893.696    21979898.692
  22546998.343   -11981612.27249  -8772265.66046  22546997.948    22547003.599
  25041457.625    -5070495.95649  -3943362.15245  25041457.060    25041463.096
  23252958.677   -10896870.75049  -8467962.43246  23252958.572    23252962.861
 03  6  5 17 54 30.0000000  0 10G17G29G18G21G 6G26G15G23G 2G16
  20833795.275    -2498912.12849  -1938547.18447  20833794.814    20833799.208
  23095383.699    -3350058.11349  -2410497.21446  23095383.768    23095388.041
  20934580.892   -19883565.18349 -15476415.62547  20934580.621    20934583.765
  20562160.829    -7821581.74049  -5919876.82947  20562160.453    20562162.905
  21006079.094     1789182.53349   1402348.22347  21006079.054    21006083.179
  21495801.248   -13062019.99949 -10159384.31547  21495801.436    21495805.548
  21967927.024   -16604502.83149 -12921381.96746  21967926.531    21967931.550
  22533004.442   -12055150.87649  -8829568.41246  22533004.076    22533009.635
  25035776.239    -5100351.01549  -3966625.85345  25035775.664    25035781.860
  23254317.597   -10889730.07349  -8462398.29746  23254317.401    23254321.745
 03  6  5 17 55  0.0000000  0 10G17G29G18G21G 6G26G15G23G 2G16
  20836150.008    -2486538.10549  -1928905.09647  20836149.534    20836153.950
  23103895.838    -3305326.66849  -2375641.56446  23103895.856    23103900.181
  20925322.281   -19932219.33849 -15514327.92747  20925322.001    20925325.167
  20560294.706    -7831388.23949  -5927518.25747  20560294.334    20560296.770
  21017714.213     1850325.24349   1449991.84547  21017714.179    21017718.292
  21496548.492   -13058093.31349 -10156324.55747  21496548.689    21496552.799
  21955983.652   -16667265.60749 -12970288.00446  21955983.179    21955988.168
  22519070.915   -12128372.12549  -8886623.88146  22519070.512    22519076.040
  25030175.414    -5129783.95049  -3989560.62845  25030174.811    25030181.108
  23255777.314   -10882060.05949  -8456421.69846  23255776.991    23255781.247
 03  6  5 17 55 30.0000000  0 10G17G29G18G21G 6G26G15G23G 2G16
  20838543.337    -2473961.06149  -1919104.81647  20838542.877    20838547.278
  23112503.792    -3260090.92549  -2340392.95246  23112503.846    23112508.263
  20916142.642   -19980458.53849 -15551916.88947  20916142.346    20916145.524
  20558471.376    -7840970.03149  -5934984.59547  20558471.007    20558473.447
  21029434.257     1911914.32749   1497983.29647  21029434.226    21029438.363
  21497422.749   -13053499.13849 -10152744.68547  21497422.924    21497427.041
  21944064.157   -16729903.20749 -13019096.50546  21944063.651    21944068.602
  22505197.866   -12201275.36649  -8943431.52246  22505197.406    22505203.003
  25024654.634    -5158794.42249  -4012166.19645  25024654.152    25024660.440
  23257337.420   -10873861.52749  -8450033.25046  23257337.160    23257341.451
 03  6  5 17 56  0.0000000  0 10G17G29G18G21G 6G26G15G23G 2G16
  20840975.346    -2461180.68749  -1909146.08847  20840974.883    20840979.296
  23121207.562    -3214352.18549  -2304752.37146  23121207.651    23121212.120
  20907042.007   -20028282.51249 -15589182.30547  20907041.736    20907044.894
  20556690.971    -7850326.03549  -5942274.98547  20556690.599    20556693.050
  21041238.978     1973948.61449   1546321.66247  21041238.934    21041243.147
  21498424.024   -13048237.22749 -10148644.50147  21498424.191    21498428.331
  21932168.517   -16792415.15649 -13067807.10046  21932168.026    21932172.947
  22491385.346   -12273859.87049  -8999990.81146  22491384.959    22491390.573
  25019214.786    -5187382.02149  -4034442.29945  25019214.348    25019220.454
  23258997.868   -10865135.51049  -8443233.75946  23258997.672    23259002.092
 03  6  5 17 56 30.0000000  0 10G17G29G18G21G 6G26G15G23G 2G16
  20843446.155    -2448196.50149  -1899028.55147  20843445.703    20843450.096
  23130006.798    -3168111.72449  -2268720.89446  23130006.929    23130011.461
  20898020.493   -20075690.74349 -15626123.76547  20898020.232    20898023.402
  20554953.554    -7859456.24449  -5949389.43547  20554953.192    20554955.643
  21053128.163     2036426.95649   1595006.05247  21053128.133    21053132.444
  21499552.382   -13042307.34949 -10144023.81647  21499552.620    21499556.766
  21920296.850   -16854800.92249 -13116419.37746  21920296.385    21920301.314
  22477633.702   -12346124.71949  -9056301.02346  22477633.388    22477638.961
  25013855.482    -5215546.36749  -4056388.52345  25013855.127    25013860.854
  23260758.406   -10855883.07749  -8436024.10645  23260758.272    23260762.733
 03  6  5 17 57  0.0000000  0 10G17G29G18G21G 6G26G15G23G 2G16
  20845955.750    -2435008.48949  -1888752.19047  20845955.315    20845959.707
  23138901.237    -3121371.39749  -2232299.85446  23138901.362    23138905.807
  20889078.063   -20122683.46549 -15662741.44547  20889077.822    20889080.991
  20553259.204    -7868360.17049  -5956327.56347  20553258.825    20553261.288
  21065101.546     2099347.77449   1644035.21947  21065101.524    21065105.929
  21500807.905   -13035709.75949 -10138882.84247  21500808.120    21500812.232
  21908449.316   -16917060.19049 -13164933.08946  21908448.857    21908453.797
  22463942.996   -12418069.48349  -9112361.80546  22463942.646    22463948.210
  25008576.499    -5243287.39949  -4078004.89845  25008576.104    25008582.295
  23262619.001   -10846105.56149  -8428405.29045  23262618.904    23262623.516
 03  6  5 17 57 30.0000000  0 10G17G29G18G21G 6G26G15G23G 2G16
  20848504.281    -2421615.99549  -1878316.48847  20848503.821    20848508.188
  23147890.574    -3074132.43549  -2195490.28846  23147890.619    23147895.112
  20880214.814   -20169260.16149 -15699034.94647  20880214.548    20880217.695
  20551608.028    -7877037.19049  -5963088.87747  20551607.648    20551610.104
  21077159.041     2162710.07249   1693408.39847  21077159.036    21077163.447
  21502190.505   -13028444.25149 -10133221.40247  21502190.693    21502194.823
  21896625.916   -16979192.38049 -13213347.78146  21896625.452    21896630.366
  22450313.393   -12489693.39849  -9168172.59346  22450313.082    22450318.540
  25003378.279    -5270604.32549  -4099290.85045  25003377.892    25003384.113
  23264579.511   -10835803.69849  -8420377.90145  23264579.247    23264583.897
 03  6  5 17 58  0.0000000  0 10G17G29G18G21G 6G26G15G23G 2G16
  20851091.598    -2408019.60049  -1867721.90847  20851091.160    20851095.516
  23156974.456    -3026396.88049  -2158293.77746  23156974.500    23156978.874
  20871430.706   -20215420.96949 -15735004.37847  20871430.430    20871433.591
  20549999.989    -7885487.50449  -5969673.53447  20549999.591    20550002.037
  21089300.321     2226512.37049   1743124.43547  21089300.291    21089304.647
  21503700.150   -13020511.00349 -10127039.66347  21503700.328    21503704.466
  21884826.804   -17041197.46049 -13261663.42146  21884826.310    21884831.209
  22436744.966   -12560995.89449  -9223732.92446  22436744.605    22436750.065
  24998260.461    -5297497.58449  -4120246.61845  24998260.235    24998266.657
  23266639.523   -10824978.92249  -8411943.04645  23266639.161    23266643.837
 03  6  5 17 58 30.0000000  0 10G17G29G18G21G 6G26G15G23G 2G16
  20853717.882    -2394218.22449  -1856967.59847  20853717.472    20853721.823
  23166152.641    -2978165.45949  -2120710.86246  23166152.646    23166156.983
  20862725.839   -20261165.25749 -15770649.25247  20862725.556    20862728.716
  20548435.378    -7893709.68849  -5976080.42447  20548434.994    20548437.411
  21101525.243     2290754.03249   1793182.82747  21101525.188    21101529.442
  21505336.935   -13011909.73149 -10120337.37747  21505337.145    21505341.255
  21873051.979   -17103074.53549 -13309879.30246  21873051.472    21873056.353
  22423237.938   -12631975.69949  -9279041.81346  22423237.576    22423243.012
  24993223.720    -5323966.08549  -4140871.43045  24993223.472    24993229.915
  23268798.652   -10813632.06949  -8403101.37345  23268798.316    23268803.036
 03  6  5 17 59  0.0000000  0 10G17G29G18G21G 6G26G15G23G 2G16
  20856383.323    -2380211.49749  -1846053.27447  20856382.897    20856387.255
  23175424.823    -2929440.38049  -2082743.29646  23175424.837    23175429.106
  20854100.179   -20306493.05249 -15805969.58647  20854099.907    20854103.074
  20546914.156    -7901703.94349  -5982309.71147  20546913.758    20546916.169
  21113833.401     2355433.37149   1843582.27847  21113833.337    21113837.539
  21507100.778   -13002640.68949 -10113114.74847  21507100.994    21507105.100
  21861301.577   -17164823.25749 -13357995.12946  21861301.046    21861305.960
  22409792.301   -12702632.54249  -9334099.04346  22409791.974    22409797.435
  24988267.682    -5350009.91349  -4161165.30545  24988267.373    24988273.887
  23271057.059   -10801764.36849  -8393853.86145  23271056.672    23271061.413
 03  6  5 17 59 30.0000000  0 10G17G29G18G21G 6G26G15G23G 2G16
  20859087.877    -2365998.77049  -1834978.42947  20859087.464    20859091.847
  23184790.686    -2880222.41149  -2044391.63646  23184790.663    23184795.005
  20845553.958   -20351403.77149 -15840964.93147  20845553.674    20845556.810
  20545436.470    -7909469.21249  -5988360.57147  20545436.091    20545438.482
  21126224.486     2420549.37849   1894321.98147  21126224.469    21126228.703
  21508991.789   -12992703.59349 -10105371.56047  21508991.945    21508996.057
  21849575.677   -17226443.10749 -13406010.58746  21849575.174    21849580.038
  22396408.331   -12772965.29849  -9388903.75046  22396408.019    22396413.531
  24983392.724    -5375628.16749  -4181127.58645  24983392.457    24983398.923
  23273414.395   -10789376.94149  -8384201.34545  23273414.030    23273418.669
 03  6  5 18  0  0.0000000  0 10G17G29G18G21G 6G26G15G23G 2G16
  20861831.794    -2351579.51649  -1823742.65647  20861831.355    20861835.755
  23194250.014    -2830513.07249  -2005657.08646  23194250.025    23194254.289
  20837087.192   -20395896.87349 -15875634.85247  20837086.915    20837090.019
  20544002.451    -7917005.06849  -5994232.66647  20544002.083    20544004.458
  21138698.522     2486101.02749   1945401.15147  21138698.504    21138702.753
  21511009.884   -12982098.27549 -10097107.67547  21511010.077    21511014.165
  21837874.549   -17287933.29549 -13453925.01746  21837874.024    21837878.836
  22383086.223   -12842973.15249  -9443455.27246  22383085.912    22383091.455
  24978598.895    -5400820.40749  -4200757.91245  24978598.496    24978605.063
  23275870.447   -10776470.49449  -8374144.38745  23275870.140    23275874.760
 03  6  5 18  0 30.0000000  0 10G17G29G18G21G 6G26G15G23G 2G16
  20864614.885    -2336954.09949  -1812346.23547  20864614.458    20864618.887
  23203802.610    -2780314.50649  -1966541.32146  23203802.522    23203806.782
  20828699.773   -20439972.94949 -15909979.82447  20828699.492    20828702.579
  20542612.047    -7924311.61649  -5999926.07647  20542611.666    20542614.042
  21151255.092     2552086.37149   1996818.25547  21151255.091    21151259.393
  21513155.080   -12970825.45149 -10088323.65547  21513155.223    21513159.301
  21826198.066   -17349293.77649 -13501738.33546  21826197.518    21826202.316
  22369825.954   -12912656.14849  -9497753.66446  22369825.652    22369831.138
  24973885.896    -5425587.03849  -4220056.60245  24973885.319    24973891.960
  23278424.818   -10763046.83049  -8363684.41445  23278424.512    23278429.231
 03  6  5 18  1  0.0000000  0 10G17G29G18G21G 6G26G15G23G 2G16
  20867437.379    -2322121.77649  -1800788.58947  20867436.974    20867441.388
  23213447.982    -2729627.96449  -1927045.32146  23213447.874    23213452.182
  20820391.859   -20483631.18549 -15943999.20647  20820391.613    20820394.679
  20541265.474    -7931388.00249  -6005440.14547  20541265.078    20541267.464
  21163894.124     2618504.47249   2048572.58447  21163894.121    21163898.413
  21515427.251   -12958884.99949 -10079019.40347  21515427.420    21515431.496
  21814546.346   -17410523.61949 -13549449.88346  21814545.794    21814550.597
  22356627.817   -12982013.08749  -9551797.97446  22356627.499    22356632.919
  24969254.054    -5449927.60249  -4239023.23345  24969253.475    24969260.123
  23281077.435   -10749106.75949  -8352822.05645  23281077.295    23281082.058
 03  6  5 18  1 30.0000000  0 10G17G29G18G21G 6G26G15G23G 2G16
  20870299.374    -2307081.93949  -1789069.24447  20870298.963    20870303.401
  23223185.819    -2678455.03049  -1887170.31246  23223185.763    23223190.087
  20812163.514   -20526871.51049 -15977692.94647  20812163.239    20812166.281
  20539962.695    -7938234.00849  -6010774.69547  20539962.320    20539964.709
  21176615.277     2685354.03249   2100663.11247  21176615.244    21176619.574
  21517826.504   -12946277.09949 -10069195.06447  21517826.668    21517830.713
  21802919.592   -17471622.50249 -13597059.38846  21802919.063    21802923.847
  22343491.823   -13051043.20749  -9605587.61346  22343491.473    22343496.884
  24964703.368    -5473841.59449  -4257657.56445  24964702.787    24964709.593
  23283828.391   -10734651.51249  -8341558.26945  23283828.091    23283832.818
 03  6  5 18  2  0.0000000  0 10G17G29G18G21G 6G26G15G23G 2G16
  20873200.828    -2291834.70149  -1777188.28947  20873200.424    20873204.870
  23233015.806    -2626797.49949  -1846917.70446  23233015.838    23233020.317
  20804014.545   -20569694.44049 -16011061.44047  20804014.281    20804017.330
  20538703.889    -7944848.97749  -6015929.21547  20538703.511    20538705.908
  21189418.178     2752633.26249   2153088.44147  21189418.131    21189422.471
  21520352.595   -12933002.11949 -10058850.92047  21520352.800    21520356.875
  21791317.836   -17532590.15249 -13644566.63446  21791317.285    21791322.085
  22330417.946   -13119746.54649  -9659122.63446  22330417.624    22330423.077
  24960233.734    -5497329.28049  -4275959.69545  24960233.070    24960239.654
  23286676.967   -10719682.81949  -8329894.38545  23286676.629    23286681.238
 03  6  5 18  2 30.0000000  0 10G17G29G18G21G 6G26G15G23G 2G16
  20876141.932    -2276379.17349  -1765145.03147  20876141.528    20876145.966
  23242937.894    -2574656.83849  -1806288.62746  23242937.900    23242942.318
  20795945.206   -20612099.14049 -16044104.04447  20795944.927    20795947.977
  20537489.182    -7951232.34349  -6020903.26847  20537488.802    20537491.222
  21202302.587     2820341.29449   2205847.90447  21202302.551    21202306.942
  21523005.650   -12919060.04749 -10047986.96347  21523005.883    21523009.936
  21779741.214   -17593425.62549 -13691970.88246  21779740.649    21779745.472
  22317406.481   -13188121.99249  -9712402.14846  22317406.191    22317411.673
  24955845.539    -5520389.99749  -4293929.12845  24955845.008    24955851.020
  23289622.920   -10704201.34649  -8317830.93445  23289622.730    23289627.149
 03  6  5 18  3  0.0000000  0 10G17G29G18G21G 6G26G15G23G 2G16
  20879122.680    -2260715.17149  -1752939.32747  20879122.284    20879126.755
  23252951.520    -2522034.32149  -1765284.07046  23252951.546    23252956.027
  20787955.487   -20654085.32049 -16076820.53147  20787955.228    20787958.244
  20536318.673    -7957383.29249  -6025696.22147  20536318.323    20536320.723
  21215268.325     2888476.81049   2258940.47347  21215268.315    21215272.725
  21525785.590   -12904451.05849 -10036603.33347  21525785.848    21525789.944
  21768189.825   -17654128.35849 -13739271.69947  21768189.286    21768194.137
  22304457.550   -13256168.62149  -9765425.44146  22304457.246    22304462.789
  24951538.571    -5543023.52949  -4311565.66045  24951538.090    24951543.953
  23292666.181   -10688208.48149  -8305369.01345  23292666.043    23292670.500
 03  6  5 18  3 30.0000000  0 10G17G29G18G21G 6G26G15G23G 2G16
  20882143.198    -2244842.53249  -1740571.04747  20882142.773    20882147.239
  23263056.716    -2468932.06949  -1723905.72246  23263056.690    23263061.031
  20780045.338   -20695653.33849 -16109211.17647  20780045.074    20780048.106
  20535192.492    -7963301.62249  -6030307.90547  20535192.132    20535194.511
  21228315.131     2957038.25149   2312364.94047  21228315.133    21228319.578
  21528692.370   -12889175.68349 -10024700.43247  21528692.646    21528696.764
  21756663.821   -17714698.03849 -13786468.83747  21756663.286    21756668.111
  22291571.335   -13323886.00249  -9818192.17746  22291571.026    22291576.557
  24947312.826    -5565229.90349  -4328869.33445  24947312.286    24947318.331
  23295806.576   -10671705.71849  -8292509.75045  23295806.419    23295810.839
 03  6  5 18  4  0.0000000  0 10G17G29G18G21G 6G26G15G23G 2G16
  20885203.451    -2228760.87049  -1728039.90047  20885203.025    20885207.492
  23273252.746    -2415351.96649  -1682154.98946  23273252.662    23273256.923
  20772214.743   -20736803.49649 -16141276.21947  20772214.455    20772217.473
  20534110.507    -7968987.50549  -6034738.46747  20534110.121    20534112.508
  21241442.656     3026023.87049   2366119.92747  21241442.665    21241447.068
  21531725.796   -12873234.73949 -10012278.92247  21531726.076    21531730.199
  21745163.160   -17775134.46649 -13833562.14047  21745162.607    21745167.409
  22278747.762   -13391274.11449  -9870702.34346  22278747.474    22278752.926
  24943168.464    -5587009.29649  -4345840.30645  24943167.944    24943174.086
  23299043.720   -10654694.73649  -8279254.48745  23299043.508    23299048.016
 03  6  5 18  4 30.0000000  0 10G17G29G18G21G 6G26G15G23G 2G16
  20888303.609    -2212469.53749  -1715345.37347  20888303.209    20888307.676
  23283539.417    -2361295.58249  -1640033.16846  23283539.341    23283543.493
  20764463.725   -20777535.28349 -16173015.26447  20764463.451    20764466.447
  20533073.006    -7974439.62949  -6038986.88047  20533072.640    20533075.043
  21254650.699     3095432.44949   2420204.50447  21254650.682    21254655.096
  21534885.911   -12856628.11949  -9999338.69447  21534886.189    21534890.327
  21733688.057   -17835436.75149 -13880550.91947  21733687.491    21733692.248
  22265987.034   -13458331.99049  -9922955.17446  22265986.718    22265992.146
  24939105.260    -5608361.26149  -4362478.21545  24939104.768    24939111.118
  23302377.360   -10637176.40249  -8265603.86845  23302377.190    23302381.601
 03  6  5 18  5  0.0000000  0 10G17G29G18G21G 6G26G15G23G 2G16
  20891443.788    -2195968.00249  -1702487.04747  20891443.365    20891447.836
  23293916.314    -2306764.41049  -1597541.37946  23293916.228    23293920.473
  20756792.346   -20817848.62249 -16204428.23747  20756792.062    20756795.105
  20532080.054    -7979657.68349  -6043052.89447  20532079.687    20532082.056
  21267938.965     3165262.79149   2474617.72747  21267938.952    21267943.417
  21538172.708   -12839356.08449  -9985879.96247  21538172.973    21538177.092
  21722238.481   -17895604.31149 -13927434.71347  21722237.938    21722242.733
  22253289.301   -13525058.98649  -9974950.18446  22253288.979    22253294.378
  24935123.440    -5629285.64349  -4378782.94045  24935122.943    24935129.368
  23305807.245   -10619152.12349  -8251559.00645  23305807.165    23305811.520
 03  6  5 18  5 30.0000000  0 10G17G29G18G21G 6G26G15G23G 2G16
  20894623.927    -2179256.30449  -1689464.94847  20894623.483    20894627.967
  23304383.204    -2251760.54849  -1554681.25146  23304383.181    23304387.337
  20749200.590   -20857743.46949 -16235515.11247  20749200.318    20749203.360
  20531131.719    -7984641.35149  -6046936.27247  20531131.334    20531133.720
  21281307.118     3235513.12949   2529358.22747  21281307.108    21281311.631
  21541585.899   -12821419.48949  -9971903.39047  21541586.180    21541590.270
  21710814.613   -17955636.85549 -13974213.30547  21710814.086    21710818.903
  22240654.551   -13591454.76549 -10026687.10646  22240654.226    22240659.637
  24931223.142    -5649782.57349  -4394754.60045  24931222.723    24931228.957
  23309333.313   -10600623.57749  -8237121.21845  23309333.114    23309337.424
 03  6  5 18  6  0.0000000  0 10G17G29G18G21G 6G26G15G23G 2G16
  20897844.174    -2162333.81349  -1676278.59847  20897843.744    20897848.221
  23314939.859    -2196285.45849  -1511453.90846  23314939.803    23314944.016
  20741688.460   -20897219.89949 -16266275.94847  20741688.188    20741691.214
  20530228.113    -7989389.90049  -6050636.44447  20530227.719    20530230.086
  21294754.927     3306181.97849   2584424.83147  21294754.938    21294759.535
  21545125.520   -12802818.88049  -9957409.40247  21545125.760    21545129.854
  21699416.586   -18015533.77649 -14020886.21047  21699416.057    21699420.892
  22228082.973   -13657518.84349 -10078165.56846  22228082.629    22228088.017
  24927404.051    -5669852.09449  -4410393.19445  24927403.677    24927409.949
  23312954.744   -10581592.34849  -8222291.72945  23312954.717    23312959.017
 03  6  5 18  6 30.0000000  0 10G17G29G18G21G 6G26G15G23G 2G16
  20901104.688    -2145199.82049  -1662927.44447  20901104.247    20901108.737
  23325585.730    -2140340.50349  -1467860.47946  23325585.753    23325590.034
  20734256.128   -20936277.18349 -16296710.17547  20734255.843    20734258.808
  20529369.446    -7993902.32949  -6054152.62147  20529369.053    20529371.432
  21308282.322     3377268.55049   2639816.94747  21308282.313    21308286.891
  21548791.529   -12783553.89049  -9942397.71947  21548791.782    21548795.871
  21688044.574   -18075293.95249 -14067452.54747  21688044.040    21688048.888
  22215574.679   -13723250.04749 -10129384.64146  22215574.338    22215579.738
  24923666.539    -5689493.44849  -4425698.17345  24923665.946    24923672.247
  23316671.890   -10562059.13249  -8207071.07845  23316671.784    23316676.109
 03  6  5 18  7  0.0000000  0 10G17G29G18G21G 6G26G15G23G 2G16
  20904405.432    -2127854.28149  -1649411.45847  20904404.982    20904409.475
  23336320.807    -2083927.67049  -1423902.45546  23336320.802    23336325.060
  20726903.422   -20974915.80549 -16326818.17347  20726903.124    20726906.080
  20528555.675    -7998178.59649  -6057484.78447  20528555.287    20528557.670
  21321888.914     3448770.90349   2695533.03647  21321888.893    21321893.362
  21552583.771   -12763625.61649  -9926869.17647  21552584.006    21552588.098
  21676698.662   -18134917.04349 -14113912.07647  21676698.134    21676702.969
  22203129.754   -13788648.10549 -10180344.12046  22203129.433    22203134.838
  24920010.199    -5708706.84449  -4440669.65545  24920009.657    24920016.047
  23320484.267   -10542025.71949  -8191460.65245  23320484.055    23320488.446
 03  6  5 18  7 30.0000000  0 10G17G29G18G21G 6G26G15G23G 2G16
  20907746.523    -2110296.73149  -1635730.26947  20907746.079    20907750.560
  23347144.328    -2027048.91349  -1379581.39446  23347144.348    23347148.858
  20719630.364   -21013136.06049 -16356600.17447  20719630.069    20719633.004
  20527786.941    -8002218.36149  -6060632.65447  20527786.539    20527788.920
  21335574.286     3520687.29149   2751571.74847  21335574.249    21335578.666
  21556502.129   -12743034.58649  -9910824.20847  21556502.354    21556506.412
  21665378.870   -18194402.68949 -14160264.50847  21665378.361    21665383.192
  22190748.297   -13853712.87549 -10231043.89446  22190747.945    22190753.340
  24916435.429    -5727492.44749  -4455307.81045  24916434.821    24916441.318
  23324391.461   -10521493.93849  -8175461.92345  23324391.199    23324395.510
 03  6  5 18  8  0.0000000  0 10G17G29G18G21G 6G26G15G23G 2G16
  20911128.014    -2092527.08249  -1621883.81747  20911127.578    20911132.050
  23358056.356    -1969706.45749  -1334898.96546  23358056.334    23358060.798
  20712436.850   -21050937.97849 -16386056.20447  20712436.569    20712439.501
  20527063.236    -8006021.44249  -6063596.09647  20527062.850    20527065.216
  21349338.049     3593016.05449   2807931.79147  21349338.031    21349342.385
  21560546.444   -12721781.58249  -9894263.41147  21560546.664    21560550.736
  21654085.351   -18253750.65749 -14206509.65547  21654084.839    21654089.657
  22178430.299   -13918444.07949 -10281483.74146  22178429.982    22178435.324
  24912942.161    -5745850.26549  -4469612.61945  24912941.639    24912947.845
  23328393.192   -10500465.29149  -8159076.00245  23328392.879    23328397.229
 03  6  5 18  8 30.0000000  0 10G17G29G18G21G 6G26G15G23G 2G16
  20914549.985    -2074544.70449  -1607871.58847  20914549.539    20914553.998
  23369056.152    -1911901.66849  -1289856.31246  23369056.109    23369060.649
  20705323.100   -21088321.21449 -16415185.98347  20705322.813    20705325.732
  20526384.747    -8009586.79449  -6066374.28647  20526384.370    20526386.746
  21363179.972     3665755.93049   2864612.18547  21363179.948    21363184.340
  21564716.646   -12699867.15049  -9877187.22647  21564716.817    21564720.905
  21642818.204   -18312959.98049 -14252646.77447  21642817.669    21642822.464
  22166176.027   -13982840.97549 -10331663.09746  22166175.686    22166180.938
  24909530.105    -5763780.38749  -4483584.17145  24909529.452    24909535.852
  23332489.086   -10478941.10149  -8142303.95045  23332488.794    23332493.119
 03  6  5 18  9  0.0000000  0 10G17G29G18G21G 6G26G15G23G 2G16
  20918012.612    -2056348.62649  -1593692.83947  20918012.162    20918016.607
  23380143.784    -1853636.13149  -1244454.62646  23380143.723    23380148.276
  20698288.954   -21125285.82249 -16443989.56347  20698288.663    20698291.584
  20525751.692    -8012913.51449  -6068966.53647  20525751.328    20525753.701
  21377099.812     3738905.76149   2921612.02347  21377099.782    21377104.291
  21569012.625   -12677291.52849  -9859595.82747  21569012.793    21569016.858
  21631577.557   -18372029.72749 -14298675.12847  21631577.071    21631581.841
  22153985.432   -14046902.73549 -10381581.31046  22153985.105    22153990.356
  24906199.540    -5781282.20349  -4497221.98445  24906199.057    24906205.320
  23336679.120   -10456922.70149  -8125146.80546  23336678.793    23336683.123
 03  6  5 18  9 30.0000000  0 10G17G29G18G21G 6G26G15G23G 2G16
  20921515.857    -2037938.85349  -1579347.58747  20921515.426    20921519.920
  23391318.625    -1794911.98449  -1198695.58946  23391318.557    23391323.038
  20691334.446   -21161831.92049 -16472467.02947  20691334.147    20691337.109
  20525164.076    -8016001.59549  -6071372.83147  20525163.685    20525166.077
  21391097.250     3812463.44249   2978929.67047  21391097.262    21391101.853
  21573434.229   -12654055.73349  -9841490.00147  21573434.402    21573438.501
  21620363.611   -18430959.52149 -14344594.42947  21620363.114    21620367.867
  22141858.658   -14110629.30749 -10431238.33246  22141858.311    22141863.568
  24902950.511    -5798356.33549  -4510526.50445  24902949.797    24902956.099
  23340962.874   -10434411.91149  -8107605.97546  23340962.548    23340966.907
 03  6  5 18 10  0.0000000  0 10G17G29G18G21G 6G26G15G23G 2G16
  20925059.932    -2019314.63649  -1564835.22647  20925059.503    20925063.984
  23402580.459    -1735731.09049  -1152580.64346  23402580.380    23402584.808
  20684459.522   -21197959.59749 -16500618.45647  20684459.237    20684462.206
  20524621.975    -8018850.41249  -6073592.68647  20524621.580    20524623.975
  21405172.138     3886427.50049   3036563.96347  21405172.128    21405176.748
  21577981.338   -12630160.51449  -9822870.34447  21577981.504    21577985.590
  21609176.350   -18489748.83049 -14390404.25747  21609175.829    21609180.598
  22129795.752   -14174020.16449 -10480633.76746  22129795.402    22129800.640
  24899782.938    -5815002.78049  -4523497.80045  24899782.140    24899788.445
  23345339.930   -10411410.42149  -8089682.78446  23345339.678    23345344.012
 03  6  5 18 10 30.0000000  0 10G17G29G18G21G 6G26G15G23G 2G16
  20928644.865    -2000475.83249  -1550155.64647  20928644.431    20928648.944
  23413928.780    -1676095.22249  -1106111.18845  23413928.714    23413933.198
  20677664.227   -21233668.96849 -16528443.92747  20677663.971    20677666.941
  20524125.566    -8021459.10349  -6075625.43847  20524125.184    20524127.550
  21419324.224     3960796.69149   3094513.94447  21419324.200    21419328.785
  21582653.825   -12605606.46349  -9803737.31347  21582654.020    21582658.079
  21598016.019   -18548396.85449 -14436104.00347  21598015.525    21598020.216
  22117796.828   -14237074.74149 -10529767.16046  22117796.508    22117801.701
  24896696.548    -5831221.43949  -4536135.72245  24896695.716    24896702.435
  23349810.025   -10387919.59749  -8071378.28946  23349809.853    23349814.219
 03  6  5 18 11  0.0000000  0 10G17G29G18G21G 6G26G15G23G 2G16
  20932270.776    -1981421.48349  -1535308.11247  20932270.351    20932274.886
  23425363.309    -1616005.99949  -1059288.43045  23425363.368    23425367.758
  20670948.615   -21268959.78449 -16555943.24747  20670948.330    20670951.313
  20523674.980    -8023827.11449  -6077470.63947  20523674.586    20523676.977
  21433553.091     4035569.30649   3152778.26347  21433553.060    21433557.531
  21587451.540   -12580394.09649  -9784091.31547  21587451.768    21587455.791
  21586882.700   -18606903.10549 -14481693.27147  21586882.163    21586886.808
  22105861.991   -14299792.49049 -10578638.09946  22105861.681    22105866.876
  24893691.657    -5847012.28549  -4548440.29245  24893690.917    24893697.541
  23354373.013   -10363941.06249  -8052693.76746  23354372.805    23354377.174
 03  6  5 18 11 30.0000000  0 10G17G29G18G21G 6G26G15G23G 2G16
  20935937.680    -1962152.02249  -1520292.96647  20935937.222    20935941.786
  23436883.773    -1555465.77449  -1012114.25445  23436883.743    23436888.216
  20664312.508   -21303832.80749 -16583117.02047  20664312.204    20664315.182
  20523270.136    -8025954.47249  -6079128.31747  20523269.736    20523272.126
  21447858.374     4110743.24449   3211355.31647  21447858.317    21447862.726
  21592374.351   -12554524.77949  -9763933.39847  21592374.570    21592378.581
  21575776.346   -18665267.09949 -14527171.68847  21575775.811    21575780.481
  22093991.267   -14362173.46949 -10627246.61846  22093990.949    22093996.082
  24890767.755    -5862375.99649  -4560411.99645  24890767.111    24890773.860
  23359028.549   -10339476.74649  -8033630.70545  23359028.242    23359032.641
 03  6  5 18 12  0.0000000  0 10G17G29G18G21G 6G26G15G23G 2G16
  20939645.663    -1942666.54849  -1505109.49247  20939645.185    20939649.778
  23448489.694    -1494476.28149   -964590.01945  23448489.679    23448494.206
  20657755.930   -21338287.79149 -16609965.04347  20657755.633    20657758.600
  20522911.336    -8027840.06349  -6080597.61347  20522910.954    20522913.309
  21462239.709     4186317.29449   3270244.15647  21462239.641    21462244.069
  21597422.065   -12527998.89749  -9743263.87247  21597422.286    21597426.300
  21564697.247   -18723488.02649 -14572538.62847  21564696.681    21564701.366
  22082184.760   -14424216.88249 -10675592.10246  22082184.462    22082189.583
  24887925.573    -5877312.09549  -4572050.51145  24887924.868    24887931.681
  23363776.069   -10314527.95849  -8014190.12945  23363775.844    23363780.346
 03  6  5 18 12 30.0000000  0 10G17G29G18G21G 6G26G15G23G 2G16
  20943394.855    -1922964.39749  -1489757.18147  20943394.410    20943399.003
  23460180.740    -1433039.58549   -916717.30145  23460180.704    23460185.200
  20651278.815   -21372325.08149 -16636487.59547  20651278.537    20651281.517
  20522598.541    -8029483.78149  -6081878.43647  20522598.151    20522600.511
  21476696.810     4262289.67449   3329443.36547  21476696.752    21476701.226
  21602594.443   -12500817.73749  -9722083.74647  21602594.675    21602598.685
  21553645.441   -18781565.26349 -14617793.60447  21553644.872    21553649.619
  22070442.523   -14485922.48349 -10723674.35846  22070442.211    22070447.391
  24885164.744    -5891821.17849  -4583356.30345  24885164.129    24885171.006
  23368615.268   -10289096.70549  -7994373.61745  23368615.284    23368619.778
 03  6  5 18 13  0.0000000  0 10G17G29G18G21G 6G26G15G23G 2G16
  20947185.312    -1903045.65549  -1474236.10347  20947184.836    20947189.424
  23471956.480    -1371157.79849   -868497.77745  23471956.522    23471960.989
  20644881.155   -21405944.83949 -16662684.79747  20644880.886    20644883.878
  20522331.878    -8030885.10749  -6082970.38247  20522331.486    20522333.862
  21491229.259     4338658.53249   3388951.51747  21491229.222    21491233.807
  21607891.382   -12472982.17549  -9700393.69247  21607891.568    21607895.633
  21542621.048   -18839498.41849 -14662936.30247  21542620.514    21542625.282
  22058764.692   -14547290.03249 -10771493.19646  22058764.355    22058769.510
  24882485.203    -5905903.47149  -4594329.54145  24882484.564    24882491.292
  23373546.228   -10263184.79249  -7974182.56145  23373546.121    23373550.690
 03  6  5 18 13 30.0000000  0 10G17G29G18G21G 6G26G15G23G 2G16
  20951017.102    -1882909.42149  -1458545.54947  20951016.643    20951021.233
  23483816.630    -1308832.58449   -819932.71845  23483816.582    23483821.106
  20638563.013   -21439146.76649 -16688556.41447  20638562.740    20638565.719
  20522111.524    -8032043.05949  -6083872.67847  20522111.128    20522113.503
  21505836.885     4415422.38149   3448767.45547  21505836.879    21505841.546
  21613312.636   -12444492.91549  -9678194.26947  21613312.875    21613316.977
  21531624.364   -18897286.37949 -14707965.87347  21531623.857    21531628.593
  22047151.230   -14608318.92549 -10819048.14246  22047150.905    22047156.064
  24879886.535    -5919558.90349  -4604970.17945  24879886.063    24879892.730
  23378568.298   -10236793.69849  -7953618.12045  23378568.164    23378572.754
 03  6  5 18 14  0.0000000  0 10G17G29G18G21G 6G26G15G23G 2G16
  20954890.408    -1862555.11849  -1442685.06847  20954889.951    20954894.510
  23495760.736    -1246065.94349   -771023.69245  23495760.713    23495765.105
  20632324.317   -21471931.40549 -16714102.87447  20632324.029    20632327.016
  20521937.563    -8032957.19049  -6084584.97647  20521937.179    20521939.566
  21520519.462     4492579.56249   3508889.89047  21520519.464    21520524.106
  21618858.176   -12415350.79149  -9655486.11447  21618858.406    21618862.505
  21520655.464   -18954928.43149 -14752881.73447  21520654.961    21520659.680
  22035602.277   -14669008.89149 -10866338.98846  22035601.940    22035607.087
  24877369.202    -5932787.70149  -4615278.33845  24877368.636    24877375.360
  23383681.265   -10209925.07949  -7932681.56745  23383681.154    23383685.785
 03  6  5 18 14 30.0000000  0 10G17G29G18G21G 6G26G15G23G 2G16
  20958805.307    -1841982.37849  -1426654.38147  20958804.841    20958809.398
  23507788.509    -1182859.87649   -721772.24845  23507788.466    23507792.899
  20626165.024   -21504298.90149 -16739324.28647  20626164.723    20626167.676
  20521810.099    -8033627.00949  -6085106.91247  20521809.707    20521812.074
  21535276.518     4570128.31449   3569317.43947  21535276.548    21535281.150
  21624527.742   -12385556.96949  -9632270.14747  21624527.991    21624532.086
  21509714.388   -19012424.13949 -14797683.57347  21509713.905    21509718.607
  22024117.888   -14729359.59249 -10913365.46746  22024117.551    22024122.733
  24874933.131    -5945590.00449  -4625254.19045  24874932.482    24874939.200
  23388884.742   -10182580.96949  -7911374.50345  23388884.672    23388889.183
 03  6  5 18 15  0.0000000  0 10G17G29G18G21G 6G26G15G23G 2G16
  20962761.747    -1821191.08749  -1410453.39347  20962761.302    20962765.864
  23519899.481    -1119216.25449   -672179.86445  23519899.542    23519903.935
  20620084.995   -21536249.43149 -16764220.79047  20620084.722    20620087.665
  20521729.237    -8034051.88549  -6085437.98747  20521728.853    20521731.239
  21550107.795     4648066.80749   3630048.66247  21550107.811    21550112.381
  21630321.134   -12355112.59049  -9608547.25147  21630321.350    21630325.435
  21498801.282   -19069773.01649 -14842370.99347  21498800.810    21498805.471
  22012698.069   -14789370.80749 -10960127.40346  22012697.736    22012702.973
  24872578.039    -5957966.13149  -4634897.95145  24872577.382    24872584.007
  23394178.354   -10154763.03749  -7889698.23945  23394178.237    23394182.840
 03  6  5 18 15 30.0000000  0 10G17G29G18G21G 6G26G15G23G 2G16
  20966759.898    -1800180.76449  -1394081.73147  20966759.444    20966764.002
  23532093.375    -1055137.56449   -622248.44245  23532093.391    23532097.755
  20614084.286   -21567783.43349 -16788792.73048  20614084.017    20614086.945
  20521695.034    -8034231.51749  -6085577.95647  20521694.656    20521697.070
  21565012.925     4726393.26049   3691082.20747  21565012.932    21565017.449
  21636238.096   -12324018.63949  -9584318.19647  21636238.314    21636242.411
  21487916.215   -19126974.50149 -14886943.56247  21487915.716    21487920.388
  22001342.897   -14849042.44249 -11006624.74146  22001342.558    22001347.782
  24870304.177    -5969916.45149  -4644209.90145  24870303.597    24870309.928
  23399561.760   -10126473.50449  -7867654.49445  23399561.610    23399566.152
 03  6  5 18 16  0.0000000  0 10G17G29G18G21G 6G26G15G23G 2G16
  20970799.824    -1778950.84749  -1377538.95547  20970799.388    20970803.932
  23544369.574     -990625.51749   -571979.37745  23544369.612    23544374.094
  20608162.801   -21598901.02549 -16813040.19948  20608162.526    20608165.435
  20521707.632    -8034165.41149  -6085526.44647  20521707.238    20521709.665
  21579991.491     4805105.90049   3752416.66247  21579991.453    21579995.994
  21642278.464   -12292276.28649  -9559583.88947  21642278.682    21642282.784
  21477059.303   -19184027.81549 -14931400.67547  21477058.802    21477063.514
  21990052.391   -14908374.10849 -11052857.16746  21990052.074    21990057.301
  24868111.185    -5981441.33249  -4653190.36745  24868110.485    24868116.820
  23405034.542   -10097714.04249  -7845244.58145  23405034.392    23405038.948
 03  6  5 18 16 30.0000000  0 10G17G29G18G21G 6G26G15G23G 2G16
  20974881.700    -1757500.53949  -1360824.44247  20974881.282    20974885.801
  23556727.971     -925682.06249   -521374.11645  23556728.027    23556732.412
  20602320.579   -21629602.14949 -16836963.14148  20602320.300    20602323.179
  20521767.147    -8033852.50349  -6085282.62347  20521766.767    20521769.199
  21595043.287     4884203.47849   3814051.06947  21595043.272    21595047.794
  21648442.167   -12259886.19349  -9534344.84647  21648442.325    21648446.392
  21466230.828   -19240931.75649 -14975741.38947  21466230.328    21466235.055
  21978826.789   -14967365.10649 -11098824.13547  21978826.455    21978831.638
  24865999.037    -5992540.63149  -4661839.19345  24865998.428    24866004.873
  23410596.551   -10068485.98849  -7822469.52845  23410596.381    23410600.840
 03  6  5 18 17  0.0000000  0 10G17G29G18G21G 6G26G15G23G 2G16
  20979005.486    -1735830.06749  -1343938.37347  20979005.047    20979009.572
  23569167.991     -860309.10149   -470434.18345  23569168.035    23569172.529
  20596557.533   -21659887.13549 -16860561.82748  20596557.250    20596560.139
  20521873.727    -8033292.47949  -6084846.24047  20521873.343    20521875.748
  21610167.926     4963683.87049   3875983.76447  21610167.932    21610172.431
  21654728.806   -12226849.69449  -9508602.11747  21654728.963    21654733.033
  21455430.829   -19297685.83849 -15019965.33147  21455430.335    21455435.050
  21967665.993   -15026015.41649 -11144525.63447  21967665.642    21967670.799
  24863967.725    -6003214.79749  -4670156.75145  24863967.154    24863973.459
  23416247.255   -10038791.31649  -7799330.86845  23416247.189    23416251.635
 03  6  5 18 17 30.0000000  0 10G17G29G18G21G 6G26G15G23G 2G16
  20983171.356    -1713938.29349  -1326879.86247  20983170.923    20983175.465
  23581689.387     -794509.03649   -419161.46045  23581689.356    23581693.939
  20590873.578   -21689756.40149 -16883836.56948  20590873.295    20590876.232
  20522027.434    -8032484.79549  -6084216.87747  20522027.046    20522029.452
  21625365.061     5043545.09049   3938213.21947  21625365.071    21625369.542
  21661138.222   -12193168.10249  -9482356.71947  21661138.386    21661142.421
  21444659.487   -19354289.64949 -15064072.17247  21444659.001    21444663.683
  21956570.028   -15084324.98249 -11189961.61247  21956569.693    21956574.857
  24862017.273    -6013464.29749  -4678143.42145  24862016.734    24862022.891
  23421986.459   -10008632.22349  -7775830.34845  23421986.216    23421990.819
 03  6  5 18 18  0.0000000  0 10G17G29G18G21G 6G26G15G23G 2G16
  20987379.450    -1691824.57449  -1309648.40547  20987379.000    20987383.560
  23594291.726     -728283.58149   -367557.25945  23594291.623    23594296.193
  20585268.719   -21719210.14349 -16906787.51648  20585268.425    20585271.356
  20522228.397    -8031428.72849  -6083393.97047  20522227.997    20522230.406
  21640634.437     5123785.77249   4000738.35747  21640634.430    21640638.917
  21667670.196   -12158842.28549  -9455609.33646  21667670.364    21667674.411
  21433916.939   -19410742.00349 -15108060.99247  21433916.428    21433921.098
  21945539.068   -15142293.20549 -11235131.61347  21945538.700    21945543.834
  24860147.670    -6023289.38349  -4685799.37145  24860147.019    24860153.304
  23427813.592    -9978010.35149  -7751969.22045  23427813.392    23427818.012
 03  6  5 18 18 30.0000000  0 10G17G29G18G21G 6G26G15G23G 2G16
  20991629.757    -1669489.02649  -1292244.09947  20991629.307    20991633.874
  23606974.466     -661635.16949   -315623.48445  23606974.401    23606979.101
  20579742.859   -21748248.67349 -16929414.92848  20579742.571    20579745.494
  20522476.710    -8030123.83749  -6082377.18247  20522476.335    20522478.722
  21655975.567     5204403.97849   4063557.66847  21655975.580    21655980.158
  21674324.455   -12123873.74749  -9428361.13246  21674324.657    21674328.683
  21423203.339   -19467042.41849 -15151931.44147  21423202.835    21423207.450
  21934573.063   -15199920.04449 -11280035.60847  21934572.701    21934577.786
  24858358.640    -6032690.48549  -4693124.92045  24858358.146    24858364.498
  23433728.489    -9946927.78349  -7727749.08945  23433728.298    23433732.939
 03  6  5 18 19  0.0000000  0 10G17G29G18G21G 6G26G15G23G 2G16
  20995922.365    -1646931.38749  -1274666.72647  20995921.906    20995926.483
  23619737.342     -594565.83349   -263361.71145  23619737.386    23619742.136
  20574295.885   -21776872.49849 -16951719.19348  20574295.592    20574298.529
  20522772.534    -8028569.35049  -6081165.89747  20522772.160    20522774.529
  21671388.213     5285397.76649   4126669.65147  21671388.210    21671392.892
  21681100.834   -12088263.79449  -9400613.12246  21681101.016    21681105.036
  21412518.753   -19523190.30349 -15195683.01547  21412518.252    21412522.824
  21923671.998   -15257205.51949 -11324673.59747  21923671.608    21923676.666
  24856650.316    -6041668.14349  -4700120.50045  24856649.840    24856656.089
  23439730.622    -9915386.70949  -7703171.70645  23439730.442    23439734.957
 03  6  5 18 19 30.0000000  0 10G17G29G18G21G 6G26G15G23G 2G16
  21000257.336    -1624150.88149  -1256915.70947  21000256.915    21000261.477
  23632579.993     -527077.26149   -210773.26945  23632580.055    23632584.760
  20568927.875   -21805081.47749 -16973700.20548  20568927.598    20568930.539
  20523116.030    -8026764.45549  -6079759.49047  20523115.633    20523117.994
  21686872.050     5366765.70349   4190073.17347  21686872.011    21686876.829
  21687999.127   -12052013.31649  -9372365.99346  21687999.310    21688003.278
  21401863.426   -19579184.50849 -15239314.84247  21401862.889    21401867.419
  21912835.992   -15314149.00449 -11369045.09447  21912835.610    21912840.633
  24855022.519    -6050222.44449  -4706786.23645  24855022.026    24855028.303
  23445819.684    -9883388.60149  -7678238.18845  23445819.567    23445823.982
 03  6  5 18 20  0.0000000  0 10G17G29G18G21G 6G26G15G23G 2G16
  21004634.891    -1601146.64449  -1238990.34347  21004634.454    21004639.060
  23645502.049     -459172.30149   -157860.34845  23645501.990    23645506.723
  20563638.659   -21832876.48949 -16995358.64348  20563638.379    20563641.306
  20523507.185    -8024708.89849  -6078157.78647  20523506.782    20523509.154
  21702426.612     5448505.46749   4253766.42347  21702426.612    21702431.498
  21695018.926   -12015124.02149  -9343621.09446  21695019.101    21695023.055
  21391237.352   -19635024.71549 -15282826.66247  21391236.835    21391241.344
  21902064.974   -15370750.69949 -11413150.27347  21902064.596    21902069.584
  24853475.097    -6058354.26149  -4713122.71045  24853474.458    24853480.848
  23451995.266    -9850935.78349  -7652950.33445  23451995.131    23451999.618
 03  6  5 18 20 30.0000000  0 11G17G 3G29G18G21G 6G26G15G23G 2G16
  21009054.759    -1577920.19549  -1220891.82247  21009054.334    21009058.934
  24601483.441    -2277919.05859  -1747632.96145  24601483.307    24601488.888
  23658502.462     -390854.55249   -104625.80945  23658502.479    23658507.250
  20558427.904   -21860259.49849 -17016696.04348  20558427.607    20558430.492
  20523945.773    -8022404.15949  -6076361.86747  20523945.368    20523947.752
  21718051.286     5530613.35549   4317746.52047  21718051.316    21718056.180
  21702159.738   -11977599.01149  -9314380.82846  21702159.848    21702163.849
  21380640.369   -19690712.14749 -15326219.44247  21380639.861    21380644.336
  21891358.747   -15427012.11349 -11456990.28347  21891358.388    21891363.327
  24852007.579    -6066065.65449  -4719131.61645  24852007.123    24852013.730
  23458256.732    -9818032.25449  -7627311.26445  23458256.468    23458260.996
 03  6  5 18 21  0.0000000  0 11G17G 3G29G18G21G 6G26G15G23G 2G16
  21013517.501    -1554468.36649  -1202617.67147  21013517.075    21013521.678
  24582535.923    -2377488.24349  -1825219.28945  24582535.964    24582541.640
  23671581.589     -322123.44649    -51069.14645  23671581.695    23671586.325
  20553295.957   -21887228.03949 -17037710.47648  20553295.659    20553298.533
  20524432.440    -8019846.71349  -6074369.04747  20524432.051    20524434.423
  21733746.310     5613090.34849   4382014.22647  21733746.280    21733751.091
  21709421.742   -11939436.79249  -9284644.03946  21709421.880    21709425.929
  21370073.132   -19746243.13049 -15369490.30947  21370072.617    21370077.108
  21880717.877   -15482930.19249 -11500562.77647  21880717.505    21880722.416
  24850620.789    -6073354.27449  -4724811.06045  24850620.273    24850626.556
  23464604.047    -9784676.83949  -7601320.09845  23464603.773    23464608.375
 03  6  5 18 21 30.0000000  0 11G17G 3G29G18G21G 6G26G15G23G 2G16
  21018023.065    -1530791.42149  -1184168.13947  21018022.646    21018027.249
  24563618.957    -2476897.00949  -1902680.68545  24563619.170    24563624.715
  23684738.966     -252981.56149      2807.58145  23684739.017    23684743.710
  20548242.693   -21913783.06949 -17058402.70048  20548242.408    20548245.262
  20524967.212    -8017036.37549  -6072179.17847  20524966.821    20524969.195
  21749511.108     5695934.03849   4446567.67347  21749511.037    21749515.737
  21716804.631   -11900639.36449  -9254412.28946  21716804.789    21716808.835
  21359535.835   -19801617.34349 -15412639.03147  21359535.291    21359539.758
  21870142.237   -15538505.57549 -11543868.23747  21870141.846    21870146.807
  24849314.049    -6080221.13249  -4730161.89045  24849313.448    24849319.840
  23471036.935    -9750872.24449  -7574978.90745  23471036.640    23471041.207
 03  6  5 18 22  0.0000000  0 11G17G 3G29G18G21G 6G26G15G23G 2G16
  21022571.707    -1506888.39449  -1165542.42247  21022571.287    21022575.882
  24544733.078    -2576142.76649  -1980015.03345  24544733.195    24544738.776
  23697974.001     -183431.24449     57002.53445  23697974.103    23697978.669
  20543268.053   -21939924.76549 -17078772.84148  20543267.772    20543270.642
  20525550.231    -8013972.55649  -6069791.77847  20525549.848    20525552.237
  21765345.310     5779142.80049   4511405.58347  21765345.215    21765349.844
  21724308.171   -11861207.93249  -9223686.49746  21724308.324    21724312.398
  21349028.459   -19856833.89949 -15455664.89947  21349027.896    21349032.396
  21859631.843   -15593737.84149 -11586906.33447  21859631.452    21859636.446
  24848087.554    -6086666.51949  -4735184.28845  24848087.057    24848093.370
  23477554.579    -9716620.58149  -7548289.37945  23477554.647    23477559.144
 03  6  5 18 22 30.0000000  0 11G17G 3G29G18G21G 6G26G15G23G 2G16
  21027163.360    -1482759.11649  -1146740.39247  21027162.918    21027167.544
  24525878.605    -2675223.08049  -2057220.36445  24525878.579    24525884.291
  23711286.348     -113474.29649    111514.42145  23711286.439    23711291.013
  20538371.995   -21965653.68349 -17098821.33648  20538371.721    20538374.626
  20526181.581    -8010654.65849  -6067206.40847  20526181.220    20526183.605
  21781248.519     5862714.66649   4576526.43947  21781248.465    21781253.037
  21731932.062   -11821144.04649  -9192467.90246  21731932.227    21731936.313
  21338551.178   -19911892.14549 -15498567.41447  21338550.649    21338555.156
  21849186.716   -15648626.80949 -11629676.91447  21849186.333    21849191.353
  24846940.956    -6092691.22049  -4739878.87845  24846940.522    24846946.927
  23484157.324    -9681923.73749  -7521252.92245  23484157.296    23484161.878
 03  6  5 18 23  0.0000000  0 11G17G 3G29G18G21G 6G26G15G23G 2G16
  21031798.107    -1458403.38249  -1127761.89747  21031797.669    21031802.297
  24507056.067    -2774135.94649  -2134295.26345  24507055.938    24507061.833
  23724675.580      -43113.43749    166341.00345  23724675.718    23724680.308
  20533554.324   -21990970.60249 -17118548.79848  20533554.046    20533556.952
  20526861.370    -8007082.34449  -6064422.78747  20526860.990    20526863.360
  21797220.353     5946647.35349   4641928.46147  21797220.308    21797224.931
  21739675.966   -11780449.39549  -9160757.79646  21739676.155    21739680.221
  21328104.200   -19966791.49049 -15541346.11047  21328103.651    21328108.194
  21838806.925   -15703172.78649 -11672180.24547  21838806.589    21838811.526
  24845874.420    -6098296.09649  -4744246.35045  24845873.939    24845880.492
  23490844.170    -9646784.37949  -7493871.66145  23490844.187    23490848.770
 03  6  5 18 23 30.0000000  0 11G17G 3G29G18G21G 6G26G15G23G 2G16
  21036476.007    -1433820.85249  -1108606.69047  21036475.581    21036480.188
  24488265.922    -2872878.77249  -2211237.74045  24488265.806    24488271.710
  23738141.363       27649.22149    221480.67845  23738141.397    23738146.083
  20528815.030   -22015875.86849 -17137955.48348  20528814.747    20528817.678
  20527589.620    -8003255.33849  -6061440.70747  20527589.236    20527591.610
  21813260.519     6030938.96149   4707610.15447  21813260.484    21813265.189
  21747539.705   -11739125.49749  -9128557.37146  21747539.871    21747543.922
  21317687.474   -20021531.38249 -15584000.53347  21317686.923    21317691.572
  21828492.517   -15757375.57649 -11714416.14647  21828492.159    21828497.018
  24844887.698    -6103481.47349  -4748286.91345  24844887.102    24844893.700
  23497614.887    -9611204.38749  -7466147.05245  23497614.839    23497619.460
 03  6  5 18 24  0.0000000  0 11G17G 3G29G18G21G 6G26G15G23G 2G16
  21041197.175    -1409010.95549  -1089274.31847  21041196.782    21041201.373
  24469508.557    -2971449.65549  -2288046.23945  24469508.442    24469514.346
  23751682.910       98810.91249    276931.28545  23751682.952    23751687.718
  20524153.941   -22040370.17849 -17157041.95148  20524153.634    20524156.548
  20528366.452    -7999173.03849  -6058259.69647  20528366.068    20528368.470
  21829368.544     6115587.17849   4773569.72747  21829368.532    21829373.314
  21755522.774   -11697174.31449  -9095868.14646  21755522.985    21755526.985
  21307301.152   -20076111.50849 -15626530.49147  21307300.633    21307305.320
  21818243.279   -15811235.62849 -11756384.99247  21818242.915    21818247.778
  24843980.695    -6108248.42149  -4752001.45845  24843980.101    24843986.703
  23504469.012    -9575186.39149  -7438081.14045  23504468.834    23504473.520
 03  6  5 18 24 30.0000000  0 11G17G 3G29G18G21G 6G26G15G23G 2G16
  21045961.800    -1383972.71649  -1069763.99747  21045961.414    21045966.013
  24450784.294    -3069846.11449  -2364718.73645  24450783.955    24450790.100
  23765300.248      170369.87649    332691.45545  23765300.275    23765305.078
  20519570.988   -22064453.65349 -17175808.28448  20519570.667    20519573.577
  20529192.031    -7994834.55949  -6054879.06447  20529191.636    20529194.061
  21845544.173     6200590.53149   4839806.03447  21845544.164    21845548.995
  21763625.035   -11654596.94649  -9062690.98046  21763625.226    21763629.193
  21296945.531   -20130530.56849 -15668934.93947  21296945.032    21296949.732
  21808059.310   -15864752.40249 -11798086.34647  21808058.955    21808063.856
  24843153.135    -6112597.11349  -4755390.07445  24843152.534    24843159.331
  23511406.164    -9538731.97549  -7409675.16545  23511405.912    23511410.572
 03  6  5 18 25  0.0000000  0 11G17G 3G29G18G21G 6G26G15G23G 2G16
  21050769.825    -1358706.46449  -1050076.01647  21050769.415    21050774.031
  24432093.612    -3168065.77049  -2441253.45245  24432093.364    24432099.517
  23778992.566      242323.50849    388759.13745  23778992.586    23778997.531
  20515066.054   -22088127.18549 -17194255.18148  20515065.736    20515068.644
  20530066.438    -7990239.54949  -6051298.54747  20530066.061    20530068.496
  21861787.009     6285946.60749   4906317.18547  21861786.960    21861791.820
  21771846.023   -11611395.44549  -9029027.47346  21771846.195    21771850.168
  21286620.651   -20184788.00449 -15711213.43947  21286620.140    21286624.853
  21797940.629   -15917926.17349 -11839520.42347  21797940.290    21797945.217
  24842405.126    -6116528.58949  -4758453.59545  24842404.451    24842411.325
  23518425.723    -9501843.83249  -7380931.21345  23518425.493    23518430.153
 03  6  5 18 25 30.0000000  0 11G17G 3G29G18G21G 6G26G15G23G 2G16
  21055621.436    -1333211.04649  -1030209.46647  21055621.027    21055625.631
  24413437.184    -3266105.80349  -2517648.18645  24413436.939    24413443.165
  23792759.754      314670.04349    445132.87145  23792759.725    23792764.598
  20510639.175   -22111390.56749 -17212382.47948  20510638.860    20510641.762
  20530989.824    -7985387.07949  -6047517.42647  20530989.462    20530991.889
  21878096.602     6371653.96549   4973102.05647  21878096.579    21878101.503
  21780185.538   -11567570.72249  -8994878.35846  21780185.741    21780189.700
  21276326.809   -20238882.50749 -15753364.98847  21276326.336    21276331.000
  21787887.353   -15970756.37849 -11880686.78947  21787887.020    21787891.929
  24841736.126    -6120042.89249  -4761192.04845  24841735.574    24841742.453
  23525527.651    -9464523.41549  -7351850.40845  23525527.327    23525532.079
 03  6  5 18 26  0.0000000  0 11G17G 3G29G18G21G 6G26G15G23G 2G16
  21060516.696    -1307486.48049  -1010164.36447  21060516.258    21060520.864
  24394815.369    -3363964.09449  -2593901.35245  24394815.081    24394821.427
  23806601.438      387407.39649    501811.32145  23806601.313    23806606.198
  20506290.180   -22134244.76049 -17230190.93048  20506289.871    20506292.776
  20531962.292    -7980276.74149  -6043535.36647  20531961.948    20531964.370
  21894472.641     6457710.32449   5040158.87747  21894472.622    21894477.560
  21788643.293   -11523124.74749  -8960245.15046  21788643.526    21788647.492
  21266064.138   -20292813.56749 -15795389.17547  21266063.650    21266068.248
  21777899.483   -16023243.30049 -11921585.66347  21777899.114    21777903.963
  24841146.525    -6123140.82049  -4763606.04145  24841146.062    24841152.974
  23532711.300    -9426773.17649  -7322434.71045  23532711.033    23532715.737
 03  6  5 18 26 30.0000000  0 11G17G 3G29G18G21G 6G26G15G23G 2G16
  21065455.642    -1281532.13649   -989940.22247  21065455.209    21065459.805
  24376228.718    -3461638.30449  -2670011.07545  24376228.518    24376234.680
  23820516.825      460532.94849    558792.32545  23820516.709    23820521.538
  20502018.896   -22156690.32049 -17247680.96948  20502018.618    20502021.519
  20532983.973    -7974908.00949  -6039351.93447  20532983.601    20532986.017
  21910914.695     6544113.44349   5107485.89647  21910914.679    21910919.603
  21797218.946   -11478059.38249  -8925129.30746  21797219.159    21797223.163
  21255832.661   -20346580.46949 -15837285.44847  21255832.163    21255836.709
  21767976.840   -16075387.07849 -11962217.13947  21767976.483    21767981.312
  24840636.237    -6125823.28349  -4765696.31445  24840635.785    24840642.613
  23539976.301    -9388595.75649  -7292686.14645  23539975.984    23539980.697
 03  6  5 18 27  0.0000000  0 11G17G 3G29G18G21G 6G26G15G23G 2G16
  21070438.435    -1255347.49649   -969536.61747  21070437.999    21070442.578
  24357677.404    -3559125.91649  -2745975.42145  24357677.131    24357683.329
  23834505.612      534044.27749    616073.84545  23834505.505    23834510.260
  20497825.324   -22178727.61949 -17264852.88148  20497825.041    20497827.928
  20534054.911    -7969280.25849  -6034966.66947  20534054.520    20534056.948
  21927422.457     6630861.51549   5175081.70947  21927422.451    21927427.328
  21805912.249   -11432376.13349  -8889531.99046  21805912.451    21805916.422
  21245632.598   -20400182.18949 -15879053.01347  21245632.075    21245636.613
  21758119.498   -16127187.49749 -12002581.05847  21758119.148    21758123.994
  24840204.869    -6128090.76549  -4767463.20845  24840204.285    24840211.150
  23547322.133    -9349993.09749  -7262606.21645  23547321.908    23547326.585
 03  6  5 18 27 30.0000000  0 11G17G 3G29G18G21G 6G26G15G23G 2G16
  21075465.228    -1228931.76449   -948952.94547  21075464.789    21075469.349
  24339161.990    -3656424.38449  -2821792.35345  24339161.799    24339167.888
  23848567.288      607939.43649    673654.41945  23848567.191    23848572.121
  20493709.361   -22200357.11349 -17281707.02348  20493709.080    20493711.973
  20535175.235    -7963392.67849  -6030378.94647  20535174.854    20535177.303
  21943995.455     6717952.49049   5242944.72047  21943995.438    21944000.278
  21814722.733   -11386076.65749  -8853454.49646  21814722.951    21814726.973
  21235464.087   -20453618.05949 -15920691.34447  21235463.555    21235468.089
  21748327.485   -16178644.54649 -12042677.43947  21748327.146    21748332.019
  24839852.380    -6129944.09649  -4768907.39645  24839851.778    24839858.611
  23554748.423    -9310967.29949  -7232196.57045  23554748.347    23554753.049
 03  6  5 18 28  0.0000000  0 11G17G 3G29G18G21G 6G26G15G23G 2G16
  21080536.123    -1202284.21749   -928188.63447  21080535.649    21080540.223
  24320683.065    -3753530.83649  -2897459.65345  24320682.982    24320688.992
  23862701.784      682216.25849    731532.39945  23862701.695    23862706.677
  20489671.049   -22221578.77049 -17298243.37248  20489670.766    20489673.637
  20536345.236    -7957244.30549  -6025587.99847  20536344.874    20536347.299
  21960633.372     6805384.65349   5311073.58746  21960633.320    21960638.120
  21823650.281   -11339162.33249  -8816897.90346  21823650.441    21823654.491
  21225327.355   -20506886.81449 -15962199.44847  21225326.852    21225331.374
  21738600.933   -16229757.86149 -12082505.97147  21738600.600    21738605.463
  24839578.169    -6131383.58449  -4770029.12545  24839577.658    24839584.582
  23562255.147    -9271520.38549  -7201458.77345  23562254.890    23562259.614
 03  6  5 18 28 30.0000000  0 11G17G 3G29G18G21G 6G26G15G23G 2G16
  21085651.087    -1175404.75749   -907243.61847  21085650.618    21085655.219
  24302241.170    -3850443.19349  -2972975.74845  24302241.138    24302247.131
  23876908.462      756872.53849    789706.09145  23876908.350    23876913.212
  20485710.123   -22242393.61349 -17314462.72348  20485709.838    20485712.688
  20537564.906    -7950834.97849  -6020593.72747  20537564.530    20537566.949
  21977335.705     6893155.84749   5379466.62446  21977335.697    21977340.554
  21832694.473   -11291635.05849  -8779863.68846  21832694.640    21832698.686
  21215222.612   -20559987.72549 -16003576.77647  21215222.097    21215226.559
  21728939.748   -16280527.56149 -12122066.75447  21728939.428    21728944.253
  24839383.092    -6132410.07649  -4770829.00945  24839382.553    24839389.407
  23569841.417    -9231654.86949  -7170394.80645  23569841.049    23569845.850
 03  6  5 18 29  0.0000000  0 11G17G 3G29G18G21G 6G26G15G23G 2G16
  21090810.293    -1148293.06549   -886117.64747  21090809.836    21090814.428
  24283836.796    -3947159.28149  -3048338.90145  24283836.640    24283842.599
  23891186.729      831905.21249    848173.06945  23891186.675    23891191.492
  20481826.445   -22262802.36749 -17330365.63248  20481826.147    20481829.003
  20538834.300    -7944164.26049  -6015395.76347  20538833.901    20538836.327
  21994102.041     6981263.59049   5448121.92246  21994102.030    21994106.978
  21841854.853   -11243496.97249  -8742353.51246  21841855.038    21841859.071
  21205149.826   -20612920.39449 -16044823.00047  21205149.331    21205153.780
  21719343.865   -16330954.21349 -12161360.22847  21719343.521    21719348.346
  24839266.092    -6133024.68249  -4771307.94845  24839265.554    24839272.469
  23577506.811    -9191373.26749  -7139006.62045  23577506.562    23577511.217
 03  6  5 18 29 30.0000000  0 11G17G 3G29G18G21G 6G26G15G23G 2G16
  21096013.859    -1120948.01149   -864809.83947  21096013.414    21096018.032
  24265470.217    -4043675.99049  -3123546.63945  24265469.905    24265475.892
  23905536.402      907312.84849    906932.19245  23905536.302    23905541.246
  20478020.008   -22282805.24349 -17345952.28748  20478019.732    20478022.586
  20540153.667    -7937230.95349  -6009993.19747  20540153.278    20540155.709
  22010932.063     7069706.61949   5517038.46946  22010932.099    22010937.158
  21851131.286   -11194749.36649  -8704368.39646  21851131.446    21851135.495
  21195109.401   -20665683.26349 -16085936.91347  21195108.901    21195113.336
  21709813.385   -16381037.06849 -12200385.79447  21709813.019    21709817.855
  24839227.681    -6133227.76349  -4771466.24945  24839227.091    24839233.631
  23585250.994    -9150677.18649  -7107295.46145  23585250.741    23585255.529
 03  6  5 18 30  0.0000000  0 11G17G 3G29G18G21G 6G26G15G23G 2G16
  21101261.998    -1093369.04449   -843319.75447  21101261.561    21101266.156
  24247142.154    -4139990.62649  -3198596.97045  24247141.863    24247147.806
  23919956.827      983093.21949    965981.74445  23919956.878    23919961.727
  20474290.693   -22302402.79549 -17361223.10348  20474290.414    20474293.289
  20541523.108    -7930034.56549  -6004385.63247  20541522.720    20541525.171
  22027825.560     7158482.64149   5586214.50446  22027825.564    22027830.756
  21860523.269   -11145393.92449  -8665909.62746  21860523.455    21860527.524
  21185101.410   -20718275.48049 -16126917.85347  21185100.920    21185105.352
  21700348.341   -16430776.26449 -12239143.58147  21700347.982    21700352.817
  24839267.103    -6133019.99749  -4771304.38345  24839266.583    24839273.069
  23593073.623    -9109569.20949  -7075263.36045  23593073.366    23593078.110
 03  6  5 18 30 30.0000000  0 11G17G 3G29G18G21G 6G26G15G23G 2G16
  21106554.660    -1065555.98249   -821647.25947  21106554.217    21106558.826
  24228852.986    -4236101.35849  -3273488.45445  24228852.734    24228858.559
  23934447.815     1059243.67449   1025319.63045  23934447.876    23934452.775
  20470638.502   -22321595.33049 -17376178.31548  20470638.222    20470641.088
  20542942.742    -7922574.38349  -5998572.51847  20542942.357    20542944.825
  22044782.049     7247589.63549   5655648.43346  22044782.075    22044787.364
  21870030.501   -11095432.73849  -8626978.86346  21870030.722    21870034.811
  21175126.098   -20770696.14849 -16167765.10947  21175125.576    21175130.036
  21690948.591   -16480172.01849 -12277633.75747  21690948.229    21690953.078
  24839384.684    -6132402.09049  -4770822.95945  24839384.231    24839390.617
  23600974.156    -9068051.45749  -7042911.96545  23600973.955    23600978.906
 03  6  5 18 31  0.0000000  0 11G17G 3G29G18G21G 6G26G15G23G 2G16
  21111891.818    -1037508.87049   -799792.36947  21111891.382    21111896.028
  24210602.540    -4332006.66849  -3348219.75845  24210602.270    24210608.235
  23949008.721     1135761.42349   1084943.82645  23949008.727    23949013.670
  20467063.051   -22340384.45849 -17390819.18748  20467062.767    20467065.623
  20544412.516    -7914850.71749  -5992554.08847  20544412.119    20544414.576
  22061801.091     7337024.70049   5725338.00146  22061801.073    22061806.395
  21879652.499   -11044868.40749  -8587578.12546  21879652.761    21879656.893
  21165183.304   -20822945.68949 -16208479.02847  21165182.789    21165187.283
  21681614.077   -16529225.09449 -12315856.90947  21681613.721    21681618.575
  24839579.776    -6131375.78149  -4770023.24545  24839579.317    24839586.180
  23608952.311    -9026127.22249  -7010243.78945  23608951.933    23608956.871
 03  6  5 18 31 30.0000000  0 11G17G 3G29G18G21G 6G26G15G23G 2G16
  21117273.741    -1009226.81749   -777754.41647  21117273.316    21117277.953
  24192391.994    -4427702.96749  -3422788.22645  24192391.676    24192397.987
  23963639.326     1212644.74649   1144852.85845  23963639.267    23963644.243
  20463564.365   -22358770.05449 -17405145.62048  20463564.070    20463566.912
  20545932.759    -7906861.77549  -5986328.93947  20545932.367    20545934.827
  22078882.481     7426786.85749   5795282.44246  22078882.427    22078887.687
  21889389.165   -10993701.96649  -8547708.20746  21889389.391    21889393.581
  21155273.494   -20875021.86449 -16249057.84947  21155272.949    21155277.479
  21672344.970   -16577934.57949 -12353812.31547  21672344.588    21672349.420
  24839853.001    -6129940.85849  -4768905.18745  24839852.458    24839859.490
  23617007.107    -8983797.92949  -6977260.02745  23617006.927    23617011.961
 03  6  5 18 32  0.0000000  0 11G17G 3G29G18G21G 6G26G15G23G 2G16
  21122700.482     -980709.24749   -755532.94847  21122700.049    21122704.697
  24174221.724    -4523188.31249  -3497192.36645  24174221.464    24174227.466
  23978338.808     1289890.75549   1205044.51145  23978338.762    23978343.674
  20460142.278   -22376753.19949 -17419158.45348  20460141.989    20460144.843
  20547503.451    -7898607.67749  -5979897.18647  20547503.080    20547505.554
  22096025.570     7516873.23549   5865479.51846  22096025.500    22096030.650
  21899240.033   -10941935.83849  -8507370.98846  21899240.231    21899244.368
  21145396.691   -20926924.46049 -16289501.42447  21145396.197    21145400.724
  21663141.051   -16626301.30949 -12391500.64847  21663140.680    21663145.470
  24840203.292    -6128098.93449  -4767469.94945  24840202.935    24840209.768
  23625138.675    -8941066.63749  -6943963.02245  23625138.467    23625143.536
 03  6  5 18 32 30.0000000  0 11G17G 3G29G18G21G 6G26G15G23G 2G16
  21128172.022     -951956.00949   -733127.81647  21128171.601    21128176.277
  24156091.990    -4618460.25249  -3571430.18945  24156091.886    24156097.690
  23993106.714     1367496.93749   1265516.79845  23993106.728    23993111.706
  20456796.581   -22394334.75949 -17432858.36148  20456796.305    20456799.169
  20549124.650    -7890088.13149  -5973258.57647  20549124.297    20549126.753
  22113229.848     7607281.36849   5935927.30246  22113229.749    22113234.886
  21909204.619   -10889572.26249  -8466568.23346  21909204.743    21909208.878
  21135552.993   -20978653.23549 -16329809.54947  21135552.492    21135557.075
  21654002.332   -16674325.55149 -12428922.10247  21654001.966    21654006.730
  24840631.073    -6125851.18749  -4765718.53645  24840630.640    24840637.903
  23633346.431    -8897935.80349  -6910354.65045  23633346.145    23633351.227
 03  6  5 18 33  0.0000000  0 11G17G 3G29G18G21G 6G26G15G23G 2G16
  21133688.675     -922965.94749   -710538.17347  21133688.222    21133692.908
  24138003.635    -4713515.61949  -3645499.28145  24138003.488    24138009.369
  24007943.020     1445461.54749   1326268.37645  24007943.076    24007948.004
  20453527.348   -22411514.75749 -17446245.36748  20453527.078    20453529.941
  20550796.587    -7881302.05049  -5966412.29247  20550796.220    20550798.689
  22130495.044     7698009.74549   6006624.63946  22130494.927    22130500.038
  21919282.507   -10836612.67349  -8425301.04746  21919282.656    21919286.755
  21125742.808   -21030206.06249 -16369980.56747  21125742.313    21125746.902
  21644928.815   -16722006.94549 -12466076.41347  21644928.458    21644933.211
  24841136.099    -6123197.77849  -4763650.98445  24841135.679    24841142.230
  23641629.664    -8854407.14849  -6876436.30645  23641629.420    23641634.530
 03  6  5 18 33 30.0000000  0 11G17G 3G29G18G21G 6G26G15G23G 2G16
  21139250.375     -893738.96149   -687763.91047  21139249.912    21139254.651
  24119956.734    -4808352.28349  -3719397.90245  24119956.552    24119962.501
  24022846.953     1523782.09949   1387297.33045  24022846.880    24022851.887
  20450334.378   -22428293.84549 -17459319.97248  20450334.088    20450336.972
  20552519.322    -7872248.81949  -5959357.84147  20552518.987    20552521.465
  22147820.591     7789056.18549   6077569.82046  22147820.473    22147825.662
  21929473.396   -10783059.08849  -8383571.02146  21929473.631    21929477.680
  21115966.203   -21081582.42949 -16410014.09147  21115965.691    21115970.310
  21635920.549   -16769345.69749 -12502963.73547  21635920.184    21635924.933
  24841718.288    -6120139.97249  -4761268.28545  24841717.915    24841724.433
  23649988.157    -8810483.42949  -6842210.10945  23649987.994    23649992.996
 03  6  5 18 34  0.0000000  0 11G17G 3G29G18G21G 6G26G15G23G 2G16
  21144857.368     -864274.20849   -664804.37647  21144856.920    21144861.623
  24101951.941    -4902967.59949  -3793124.06245  24101951.726    24101957.813
  24037818.093     1602456.18349   1448601.74145  24037818.124    24037823.163
  20447217.610   -22444672.53049 -17472082.58048  20447217.346    20447220.202
  20554293.113    -7862927.67349  -5952094.62447  20554292.779    20554295.244
  22165206.296     7880418.83449   6148761.39346  22165206.227    22165211.545
  21939777.030   -10728913.32949  -8341379.55246  21939777.218    21939781.323
  21106223.346   -21132781.36549 -16449909.35447  21106222.836    21106227.438
  21626977.505   -16816341.70349 -12539583.97647  21626977.155    21626981.901
  24842377.287    -6116678.21049  -4758570.91645  24842376.761    24842383.143
  23658421.434    -8766166.85349  -6807677.79745  23658421.246    23658426.271
 03  6  5 18 34 30.0000000  0 11G17G 3G29G18G21G 6G26G15G23G 2G16
  21150509.638     -834571.37749   -641659.32747  21150509.177    21150513.866
  24083989.878    -4997359.10049  -3866675.84745  24083989.641    24083995.763
  24052856.312     1681481.55949   1510179.89545  24052856.294    24052861.189
  20444176.924   -22460651.60549 -17484533.79948  20444176.661    20444179.517
  20556118.018    -7853337.73349  -5944621.96047  20556117.676    20556120.134
  22182651.754     7972095.29549   6220197.50146  22182651.660    22182657.117
  21950192.850   -10674177.50249  -8298728.29346  21950193.087    21950197.218
  21096514.452   -21183801.98049 -16489665.65947  21096513.927    21096518.516
  21618099.623   -16862995.31549 -12575937.42147  21618099.261    21618103.957
  24843112.702    -6112813.55449  -4755559.53745  24843112.171    24843118.545
  23666929.030    -8721459.91649  -6772841.29045  23666928.815    23666933.728
 03  6  5 18 35  0.0000000  0 11G17G 3G29G18G21G 6G26G15G23G 2G16
  21156207.298     -804630.05349   -618328.44947  21156206.823    21156211.533
  24066070.772    -5091524.57549  -3940051.47645  24066070.626    24066076.592
  24067960.745     1760855.78349   1572029.88845  24067960.798    24067965.476
  20441212.084   -22476231.84849 -17496674.24048  20441211.814    20441214.686
  20557994.211    -7843478.66549  -5936939.58847  20557993.857    20557996.289
  22200156.475     8064083.43849   6291876.47646  22200156.461    22200161.921
  21960720.626   -10618853.81249  -8255618.95446  21960720.859    21960725.016
  21086839.649   -21234643.45449 -16529282.37747  21086839.125    21086843.685
  21609286.829   -16909306.78049 -12612024.24547  21609286.472    21609291.161
  24843924.533    -6108547.10049  -4752235.10645  24843924.109    24843930.292
  23675510.373    -8676365.18449  -6737702.63545  23675510.165    23675515.107
 03  6  5 18 35 30.0000000  0 11G17G 3G29G18G21G 6G26G15G23G 2G16
  21161950.466     -774449.29049   -594810.99247  21161950.027    21161954.766
  24048195.239    -5185461.13349  -4013248.75245  24048195.061    24048200.995
  24083131.140     1840576.63449   1634149.99545  24083131.216    24083135.909
  20438323.042   -22491413.61949 -17508504.19248  20438322.784    20438325.657
  20559921.772    -7833349.35749  -5929046.62047  20559921.413    20559923.850
  22217720.354     8156381.57449   6363796.99446  22217720.342    22217725.736
  21971359.993   -10562943.91549  -8212052.84346  21971360.174    21971364.335
  21077199.208   -21285304.49049 -16568758.50947  21077198.669    21077203.164
  21600539.133   -16955275.84149 -12647844.27147  21600538.798    21600543.530
  24844812.794    -6103879.36649  -4748597.94545  24844812.274    24844818.602
  23684165.068    -8630884.67549  -6702263.35445  23684164.854    23684169.874
 03  6  5 18 36  0.0000000  0 11G17G 3G29G18G21G 6G26G15G23G 2G16
  21167739.274     -744028.85249   -571106.76047  21167738.849    21167743.583
  24030363.577    -5279166.80749  -4086266.13845  24030363.486    24030369.325
  24098366.979     1920641.39149   1696538.04745  24098366.969    24098371.788
  20435509.665   -22506198.06749 -17520024.54048  20435509.401    20435512.253
  20561900.736    -7822949.83749  -5920943.09447  20561900.363    20561902.821
  22235342.879     8248987.03149   6435956.97946  22235342.842    22235348.154
  21982110.340   -10506450.49249  -8168032.02146  21982110.532    21982114.669
  21067593.158   -21335784.44649 -16608093.53747  21067592.629    21067597.095
  21591856.452   -17000903.26649 -12683398.08347  21591856.099    21591860.906
  24845777.070    -6098811.78449  -4744649.26845  24845776.596    24845783.249
  23692892.572    -8585021.36349  -6666525.79245  23692892.382    23692897.481
 03  6  5 18 36 30.0000000  0 11G17G 3G29G18G21G 6G26G15G23G 2G16
  21173573.734     -713368.69249   -547215.74747  21173573.330    21173578.049
  24012576.362    -5372639.35549  -4159101.84545  24012576.179    24012582.108
  24113667.816     2001047.41149   1759192.04045  24113667.835    24113672.570
  20432771.767   -22520585.96849 -17531235.89048  20432771.497    20432774.358
  20563931.226    -7812279.56149  -5912628.61247  20563930.857    20563933.300
  22253023.300     8341897.46249   6508354.60446  22253023.222    22253028.586
  21992971.380   -10449375.66849  -8123558.15946  21992971.583    21992975.687
  21058021.830   -21386082.34849 -16647286.69447  21058021.275    21058025.750
  21583238.777   -17046189.50649 -12718686.05447  21583238.425    21583243.223
  24846817.312    -6093345.74249  -4740390.07745  24846816.778    24846823.457
  23701692.446    -8538777.88949  -6630491.98545  23701692.220    23701697.364
 03  6  5 18 37  0.0000000  0 11G17G 3G29G18G21G 6G26G15G23G 2G16
  21179454.068     -682467.57949   -523136.96947  21179453.649    21179458.315
  23994834.168    -5465875.21249  -4231753.10545  23994834.051    23994839.899
  24129033.277     2081792.91949   1822110.57745  24129033.328    24129038.039
  20430109.256   -22534577.50549 -17542138.37948  20430108.980    20430111.831
  20566013.438    -7801337.53349  -5904102.37647  20566013.046    20566015.505
  22270761.326     8435111.31249   6580988.67846  22270761.283    22270766.676
  22003942.752   -10391721.00049  -8078632.47246  22003942.947    22003947.051
  21048485.420   -21436196.53149 -16686336.69247  21048484.877    21048489.318
  21574686.134   -17091133.94049 -12753707.67047  21574685.786    21574690.551
  24847932.688    -6087481.49349  -4735820.58945  24847932.534    24847939.528
  23710564.463    -8492155.98049  -6594163.27045  23710564.158    23710569.367
 03  6  5 18 37 30.0000000  0 11G17G 3G29G18G21G 6G26G15G23G 2G16
  21185380.276     -651325.24449   -498870.22647  21185379.857    21185384.519
  23977137.277    -5558872.60649  -4304218.58445  23977137.134    23977143.048
  24144462.727     2162875.31949   1885291.55545  24144462.807    24144467.721
  20427522.031   -22548173.30749 -17552732.50148  20427521.751    20427524.631
  20568147.479    -7790122.98849  -5895363.78047  20568147.098    20568149.557
  22288556.686     8528626.09249   6653857.24146  22288556.613    22288562.042
  22015024.050   -10333488.91449  -8033256.84846  22015024.216    22015028.286
  21038984.026   -21486126.59449 -16725243.22747  21038983.475    21038987.923
  21566198.448   -17135736.98149 -12788463.26347  21566198.102    21566202.835
  24849124.371    -6081220.05149  -4730941.59845  24849124.009    24849131.252
  23719507.805    -8445158.57749  -6557542.01145  23719507.566    23719512.737
 03  6  5 18 38  0.0000000  0 11G17G 3G29G18G21G 6G26G15G23G 2G16
  21191352.420     -619941.49849   -474415.37847  21191352.002    21191356.626
  23959486.138    -5651629.18349  -4376496.35345  23959485.923    23959492.008
  24159955.789     2244291.83349   1948732.90545  24159955.930    24159960.843
  20425009.874   -22561374.74549 -17563019.33648  20425009.610    20425012.476
  20570333.419    -7778635.83149  -5886412.77047  20570333.065    20570335.518
  22306408.643     8622439.20149   6726958.23246  22306408.605    22306414.189
  22026214.664   -10274681.77649  -7987433.12746  22026214.889    22026218.965
  21029517.798   -21535871.91849 -16764005.80047  21029517.248    21029521.703
  21557775.641   -17179999.05449 -12822953.16747  21557775.293    21557780.007
  24850391.385    -6074563.03949  -4725754.38545  24850390.852    24850398.150
  23728522.063    -8397788.40849  -6520630.26745  23728521.806    23728527.069
 03  6  5 18 38 30.0000000  0 11G17G 3G29G18G21G 6G26G15G23G 2G16
  21197370.631     -588315.66749   -449771.89547  21197370.216    21197374.822
  23941881.476    -5744142.19049  -4448584.37645  23941881.260    23941887.400
  24175512.123     2326040.27749   2012432.94845  24175512.252    24175517.086
  20422572.679   -22574182.45149 -17572999.35748  20422572.397    20422575.267
  20572571.427    -7766875.06349  -5877248.56147  20572571.045    20572573.518
  22324317.007     8716548.63149   6800290.16446  22324317.067    22324322.675
  22037514.351   -10215301.82949  -7941163.07146  22037514.536    22037518.595
  21020086.921   -21585431.52349 -16802623.65547  21020086.367    21020090.860
  21549417.601   -17223920.41349 -12857177.58347  21549417.279    21549422.042
  24851733.467    -6067511.43149  -4720259.72845  24851732.833    24851739.763
  23737606.748    -8350048.03749  -6483430.04345  23737606.567    23737611.796
 03  6  5 18 39  0.0000000  0 11G17G 3G29G18G21G 6G26G15G23G 2G16
  21203435.128     -556446.81149   -424939.03247  21203434.678    21203439.281
  23924323.461    -5836408.76149  -4520480.35045  23924323.466    23924329.418
  24191131.189     2408118.64249   2076390.00845  24191131.238    24191136.165
  20420210.392   -22586596.41249 -17582672.57548  20420210.103    20420212.944
  20574861.636    -7754839.83149  -5867870.46447  20574861.270    20574863.744
  22342281.565     8810952.74249   6873851.70446  22342281.590    22342287.138
  22048922.642   -10155350.56949  -7894447.83646  22048922.868    22048926.985
  21010691.668   -21634803.67849 -16841095.44147  21010691.131    21010695.627
  21541124.542   -17267500.96549 -12891136.44047  21541124.200    21541128.932
  24853150.576    -6060065.73749  -4714457.92845  24853149.972    24853156.826
  23746761.571    -8301939.39349  -6445942.86245  23746761.379    23746766.524
 03  6  5 18 39 30.0000000  0 11G17G 3G29G18G21G 6G26G15G23G 2G16
  21209545.812     -524335.13549   -399916.96647  21209545.337    21209549.969
  23906812.873    -5928427.32449  -4592183.05745  23906812.838    23906818.786
  24206812.558     2490523.72149   2140601.69745  24206812.663    24206817.517
  20417922.622   -22598618.71349 -17592040.58948  20417922.337    20417925.187
  20577204.123    -7742530.07449  -5858278.44547  20577203.768    20577206.235
  22360301.721     8905648.46049   6947640.46646  22360301.695    22360307.128
  22060439.085   -10094831.21449  -7847289.92246  22060439.335    22060443.424
  21001332.157   -21683988.32649 -16879421.13147  21001331.601    21001336.097
  21532896.135   -17310741.62349 -12924830.43147  21532895.776    21532900.488
  24854641.980    -6052227.87348  -4708350.54445  24854641.371    24854648.653
  23755985.950    -8253465.82549  -6408171.32345  23755985.723    23755990.771
 03  6  5 18 40  0.0000000  0 11G17G 3G29G18G21G 6G26G15G23G 2G16
  21215702.924     -491979.46249   -374704.78247  21215702.435    21215707.076
  23889350.171    -6020194.92849  -4663690.26945  23889349.958    23889355.803
  24222555.528     2573253.60249   2205066.46645  24222555.583    24222560.566
  20415709.332   -22610249.39849 -17601103.46448  20415709.069    20415711.914
  20579599.098    -7729944.62749  -5848471.61147  20579598.730    20579601.192
  22378377.044     9000633.97249   7021655.03046  22378377.051    22378382.336
  22072063.416   -10033745.46449  -7799690.67046  22072063.589    22072067.745
  20992008.559   -21732984.10149 -16917599.66647  20992007.995    20992012.503
  21524732.433   -17353642.17449 -12958259.41447  21524732.088    21524736.775
  24856207.675    -6043998.43249  -4701938.10045  24856207.285    24856214.785
  23765279.254    -8204629.49649  -6370117.13845  23765279.009    23765284.192
 03  6  5 18 40 30.0000000  0 11G17G 3G29G18G21G 6G26G15G23G 2G16
  21221906.395     -459379.94249   -349302.58247  21221905.910    21221910.552
  23871935.545    -6111709.28349  -4735000.13745  23871935.323    23871941.223
  24238359.759     2656305.31049   2269782.01145  24238359.912    24238364.889
  20413570.398   -22621489.56249 -17609862.02348  20413570.149    20413572.968
  20582046.500    -7717083.47349  -5838449.91747  20582046.126    20582048.575
  22396507.145     9095906.82849   7095893.51446  22396507.120    22396512.255
  22083794.911    -9972096.05749  -7751652.19746  22083795.097    22083799.284
  20982721.056   -21781790.11449 -16955630.33047  20982720.495    20982725.024
  21516633.290   -17396203.25949 -12991423.87147  21516632.945    21516637.628
  24857848.159    -6035378.96849  -4695221.69445  24857847.571    24857854.980
  23774641.086    -8155433.23549  -6331782.47345  23774640.838    23774645.959
 03  6  5 18 41  0.0000000  0 11G17G 3G29G18G21G 6G26G15G23G 2G16
  21228156.386     -426536.05449   -323709.97047  21228155.943    21228160.567
  23854569.599    -6202968.07849  -4806110.81245  23854569.405    23854575.179
  24254224.872     2739676.66049   2334746.63645  24254224.940    24254230.063
  20411505.664   -22632339.94549 -17618316.85648  20411505.389    20411508.224
  20584546.486    -7703945.99249  -5828212.91847  20584546.105    20584548.581
  22414691.354     9191464.72949   7170354.10546  22414691.352    22414696.417
  22095633.186    -9909885.32549  -7703176.34246  22095633.421    22095637.640
  20973469.835   -21830405.60349 -16993512.49447  20973469.289    20973473.824
  21508598.645   -17438425.29849 -13024324.13547  21508598.317    21508603.006
  24859562.485    -6026370.84949  -4688202.43845  24859561.862    24859569.206
  23784070.834    -8105879.82049  -6293169.48945  23784070.611    23784075.773
 03  6  5 18 41 30.0000000  0 11G17G 3G29G18G21G 6G26G15G23G 2G16
  21234453.123     -393446.44149   -297925.88547  21234452.704    21234457.355
  23837252.767    -6293967.87549  -4877019.67745  23837252.594    23837258.327
  24270150.289     2823365.52949   2399958.66645  24270150.325    24270155.618
  20409514.982   -22642801.09649 -17626468.39648  20409514.707    20409517.553
  20587099.226    -7690531.21949  -5817759.84647  20587098.848    20587101.337
  22432929.489     9287305.98549   7245035.49346  22432929.466    22432934.585
  22107578.014    -9847115.06849  -7654264.47146  22107578.212    22107582.416
  20964255.171   -21878829.03449 -17031245.04047  20964254.609    20964259.129
  21500628.610   -17480308.11249 -13056960.06947  21500628.265    21500632.958
  24861350.622    -6016974.56949  -4680880.74445  24861350.065    24861357.291
  23793568.141    -8055971.23849  -6254279.78145  23793567.816    23793573.116
 03  6  5 18 42  0.0000000  0 11G17G 3G29G18G21G 6G26G15G23G 2G16
  21240796.556     -360111.47349   -271950.61647  21240796.153    21240800.825
  23819985.801    -6384706.68249  -4947725.24445  23819985.547    23819991.361
  24286135.666     2907369.06849   2465415.88845  24286135.718    24286140.952
  20407598.167   -22652873.84749 -17634317.28548  20407597.904    20407600.753
  20589704.942    -7676838.24549  -5807089.99347  20589704.544    20589707.034
  22451220.932     9383427.99549   7319935.65146  22451220.943    22451226.217
  22119628.798    -9783787.82649  -7604918.60146  22119629.000    22119633.218
  20955077.171   -21927059.55849 -17068827.24547  20955076.622    20955081.120
  21492723.038   -17521852.06349 -13089331.95747  21492722.698    21492727.395
  24863212.401    -6007191.46148  -4673257.66645  24863211.965    24863219.194
  23803132.524    -8005710.43049  -6215115.60845  23803132.284    23803137.547
 03  6  5 18 42 30.0000000  0 11G17G 3G29G18G21G 6G26G15G23G 2G16
  21247186.881     -326530.01049   -245783.26747  21247186.489    21247191.210
  23802768.774    -6475181.66049  -5018225.12345  23802768.656    23802774.597
  24302180.566     2991685.26449   2531116.73645  24302180.640    24302185.920
  20405755.262   -22662558.54549 -17641863.79948  20405754.980    20405757.814
  20592363.708    -7662866.07149  -5796202.58947  20592363.314    20592365.815
  22469565.347     9479828.78049   7395053.03446  22469565.383    22469570.796
  22131785.244    -9719905.44849  -7555140.14646  22131785.474    22131789.660
  20945936.219   -21975095.64549 -17106257.94347  20945935.680    20945940.160
  21484881.919   -17563057.27549 -13121439.89147  21484881.596    21484886.292
  24865147.267    -5997022.48349  -4665333.87745  24865146.858    24865153.903
  23812763.531    -7955099.52049  -6175678.62145  23812763.197    23812768.607
 03  6  5 18 43  0.0000000  0 11G17G 3G29G18G21G 6G26G15G23G 2G16
  21253624.319     -292701.35649   -219423.30547  21253623.902    21253628.615
  23785602.636    -6565390.64249  -5088517.80445  23785602.520    23785608.450
  24318284.331     3076311.52149   2597059.21245  24318284.442    24318289.803
  20403985.919   -22671856.32149 -17649108.81848  20403985.645    20403988.488
  20595075.667    -7648614.62149  -5785097.56447  20595075.296    20595077.773
  22487962.377     9576505.82949   7470385.70146  22487962.358    22487967.943
  22144046.782    -9655470.77849  -7504931.34746  22144047.035    22144051.218
  20936832.332   -22022936.68749 -17143536.69147  20936831.793    20936836.293
  21477105.208   -17603924.22949 -13153284.25247  21477104.890    21477109.542
  24867155.558    -5986469.15949  -4657110.60745  24867155.015    24867162.244
  23822460.588    -7904141.28849  -6135970.99945  23822460.294    23822465.717
 03  6  5 18 43 30.0000000  0 11G17G 3G29G18G21G 6G26G15G23G 2G16
  21260108.775     -258625.72749   -192870.90247  21260108.303    21260113.022
  23768487.577    -6655331.48449  -5158601.54945  23768487.379    23768493.199
  24334446.686     3161245.15749   2663241.20545  24334446.873    24334452.156
  20402290.002   -22680768.39249 -17656053.28448  20402289.719    20402292.593
  20597840.847    -7634083.83849  -5773774.88747  20597840.472    20597842.906
  22506411.420     9673456.58949   7545931.63546  22506411.406    22506417.270
  22156412.922    -9590486.27449  -7454294.10546  22156413.134    22156417.392
  20927765.797   -22070581.64549 -17180662.59347  20927765.260    20927769.768
  21469392.733   -17644453.51049 -13184865.48347  21469392.399    21469397.042
  24869237.215    -5975533.03149  -4648588.97745  24869236.638    24869243.707
  23832223.075    -7852838.98949  -6095995.27745  23832222.836    23832228.389
 03  6  5 18 44  0.0000000  0 11G17G 3G29G18G21G 6G26G15G23G 2G16
  21266640.308     -224302.31549   -166125.41147  21266639.852    21266644.611
  23751424.062    -6745001.40849  -5228474.15745  23751423.881    23751429.554
  24350667.256     3246483.87949   2729661.00945  24350667.333    24350672.601
  20400667.376   -22689295.33449 -17662697.64248  20400667.092    20400669.986
  20600659.394    -7619272.38549  -5762233.48947  20600659.010    20600661.449
  22524912.218     9770678.97349   7621689.21346  22524912.208    22524918.240
  22168883.216    -9524954.25449  -7403230.21446  22168883.471    22168887.744
  20918736.807   -22118029.43149 -17217634.86347  20918736.240    20918740.732
  21461744.476   -17684645.29549 -13216183.73347  21461744.124    21461748.772
  24871390.796    -5964215.03949  -4639769.85445  24871390.203    24871397.275
  23842050.634    -7801194.86649  -6055753.20545  23842050.412    23842055.995
 03  6  5 18 44 30.0000000  0 11G17G 3G29G18G21G 6G26G15G23G 2G16
  21273219.140     -189730.44049   -139186.31547  21273218.687    21273223.441
  23734412.414    -6834397.90649  -5298133.72045  23734412.259    23734417.946
  24366945.167     3332024.97849   2796316.30845  24366945.095    24366950.580
  20399117.903   -22697437.90749 -17669042.50348  20399117.635    20399120.518
  20603531.440    -7604179.79749  -5750473.03047  20603531.052    20603533.468
  22543464.268     9868170.63649   7697656.63346  22543464.274    22543470.370
  22181457.273    -9458877.09949  -7351741.55146  22181457.546    22181461.789
  20909745.499   -22165278.99549 -17254452.69447  20909744.955    20909749.424
  21454160.343   -17724499.99249 -13247239.32247  21454160.014    21454164.660
  24873617.134    -5952516.41049  -4630654.08245  24873616.513    24873623.483
  23851942.830    -7749211.59649  -6015246.85545  23851942.663    23851948.117
 03  6  5 18 45  0.0000000  0 11G17G 3G29G18G21G 6G26G15G23G 2G16
  21279845.410     -154909.60049   -112053.22547  21279844.910    21279849.648
  23717453.310    -6923518.25449  -5367578.12845  23717453.278    23717458.885
  24383280.336     3417866.22149   2863205.54045  24383280.235    24383285.652
  20397641.415   -22705196.89449 -17675088.46248  20397641.137    20397644.025
  20606457.133    -7588805.15549  -5738492.79347  20606456.747    20606459.191
  22562067.258     9965929.58949   7773832.33146  22562067.295    22562073.340
  22194134.632    -9392257.16349  -7299829.94546  22194134.930    22194139.190
  20900792.171   -22212329.07249 -17291115.07347  20900791.643    20900796.070
  21446640.320   -17764017.68749 -13278032.31547  21446640.020    21446644.679
  24875915.246    -5940438.03349  -4621242.48245  24875914.853    24875922.201
  23861899.045    -7696891.73449  -5974478.23645  23861898.801    23861904.369
 03  6  5 18 45 30.0000000  0 11G17G 3G29G18G21G 6G26G15G23G 2G16
  21286518.959     -119839.72949    -84726.08147  21286518.490    21286523.238
  23700547.321    -7012360.37249  -5436805.67145  23700547.213    23700552.833
  24399672.312     3504005.16049   2930326.77445  24399671.879    24399677.364
  20396237.692   -22712573.60449 -17680836.54848  20396237.399    20396240.282
  20609436.533    -7573148.45549  -5726292.76747  20609436.134    20609438.584
  22580720.682    10063953.19749   7850214.24046  22580720.722    22580726.742
  22206914.756    -9325097.17449  -7247497.51046  22206915.032    22206919.320
  20891876.880   -22259179.14749 -17327621.61747  20891876.375    20891880.793
  21439184.342   -17803199.27349 -13308563.40047  21439184.022    21439188.671
  24878285.574    -5927981.67949  -4611536.28045  24878285.221    24878292.485
  23871918.686    -7644238.22249  -5933449.62945  23871918.524    23871924.032
 03  6  5 18 46  0.0000000  0 11G17G 3G29G18G21G 6G26G15G23G 2G16
  21293240.024      -84520.36549    -57204.53047  21293239.527    21293244.315
  23683694.535    -7100921.74549  -5505814.48545  23683694.479    23683700.109
  24416120.083     3590438.95049   2997677.73145  24416119.792    24416125.270
  20394906.514   -22719568.78449 -17686287.32948  20394906.230    20394909.099
  20612469.719    -7557208.90649  -5713872.34247  20612469.314    20612471.764
  22599424.104    10162239.01649   7926800.47446  22599424.124    22599430.021
  22219797.187    -9257399.67249  -7194746.25246  22219797.434    22219801.774
  20882999.859   -22305828.23249 -17363971.54347  20882999.320    20883003.751
  21431792.208   -17842045.25149 -13338832.96947  21431791.869    21431796.462
  24880727.857    -5915148.79049  -4601536.71845  24880727.351    24880734.675
  23882001.428    -7591253.89549  -5892163.23145  23882001.074    23882006.662
 03  6  5 18 46 30.0000000  0 11G17G 3G29G18G21G 6G26G15G23G 2G16
  21300008.797      -48950.59849    -29487.86047  21300008.291    21300013.073
  23666895.757    -7189200.07149  -5574602.76845  23666895.599    23666901.197
  24432623.508     3677164.97449   3065256.40745  24432623.138    24432628.637
  20393647.752   -22726183.65849 -17691441.78548  20393647.482    20393650.340
  20615556.843    -7540985.94449  -5701231.08447  20615556.437    20615558.930
  22618177.022    10260784.74549   8003589.22746  22618177.021    22618182.728
  22232781.511    -9189167.18549  -7141578.12046  22232781.726    22232786.051
  20874161.307   -22352275.15949 -17400163.96547  20874160.769    20874165.185
  21424463.894   -17880556.01949 -13368841.34647  21424463.552    21424468.096
  24883241.342    -5901940.71949  -4591244.78645  24883240.891    24883248.083
  23892146.426    -7537941.57949  -5850621.26645  23892146.261    23892151.755
 03  6  5 18 47  0.0000000  0 12G17G 3G29G18G14G21G 6G26G15G23G 2G16
  21306824.344      -13134.34649     -1579.11147  21306823.863    21306828.714
  23650150.380    -7277196.96749  -5643171.68845  23650150.262    23650155.959
  24449181.207     3764176.64049   3133057.58745  24449181.084    24449186.594
  20392460.435   -22732423.12249 -17696303.68948  20392460.154    20392463.007
  24648471.551    -5015744.80459  -3878820.47145  24648470.929    24648479.093
  20618697.154    -7524483.27449  -5688371.86447  20618696.773    20618699.333
  22636978.014    10359584.04449   8080575.57146  22636978.035    22636983.686
  22245866.334    -9120406.37449  -7087998.30746  22245866.527    22245870.860
  20865360.648   -22398522.94049 -17436201.18947  20865360.122    20865364.555
  21417198.483   -17918736.14549 -13398592.06947  21417198.092    21417202.669
  24885825.118    -5888363.02849  -4580664.84345  24885824.682    24885832.070
  23902352.756    -7484308.05149  -5808829.01645  23902352.576    23902357.988
 03  6  5 18 47 30.0000000  0 12G17G 3G29G18G14G21G 6G26G15G23G 2G16
  21313688.054       22934.83449     26526.71647  21313687.591    21313692.463
  23633460.488    -7364903.34949  -5711514.29545  23633460.326    23633465.829
  24465793.996     3851477.97549   3201084.59245  24465793.824    24465799.355
  20391345.599   -22738281.55049 -17700868.69748  20391345.325    20391348.197
  24626720.661    -5130045.37649  -3967885.67145  24626720.107    24626728.402
  20621892.088    -7507693.72249  -5675289.10647  20621891.711    20621894.286
  22655828.087    10458640.75949   8157762.50646  22655828.026    22655833.668
  22259052.401    -9051113.33549  -7034003.77746  22259052.599    22259056.926
  20856599.284   -22444564.11349 -17472077.43747  20856598.797    20856603.188
  21409997.118   -17956579.44649 -13428080.33647  21409996.748    21410001.331
  24888480.185    -5874410.57449  -4569792.88445  24888479.834    24888487.191
  23912620.834    -7430349.49049  -5766783.47645  23912620.607    23912626.044
 03  6  5 18 48  0.0000000  0 12G17G 3G29G18G14G21G 6G26G15G23G 2G16
  21320599.899       59256.73449     54829.46947  21320599.466    21320604.322
  23616825.925    -7452317.86749  -5779629.43445  23616825.792    23616831.431
  24482461.270     3939065.45749   3269334.52545  24482461.215    24482466.850
  20390302.907   -22743760.81449 -17705138.24248  20390302.637    20390305.507
  24604970.737    -5244340.66949  -4056946.76945  24604970.154    24604978.663
  20625141.587    -7490617.70549  -5661983.12447  20625141.222    20625143.769
  22674726.468    10557951.69649   8235147.53546  22674726.364    22674732.089
  22272339.115    -8981291.50849  -6979597.18446  22272339.281    22272343.611
  20847877.300   -22490398.47749 -17507792.49347  20847876.785    20847881.189
  21402859.562   -17994087.48549 -13457307.36147  21402859.169    21402863.802
  24891206.038    -5860085.69749  -4558630.71745  24891205.678    24891213.100
  23922949.945    -7376069.57249  -5724487.52645  23922949.747    23922955.222
 03  6  5 18 48 30.0000000  0 12G17G 3G29G18G14G21G 6G26G15G23G 2G16
  21327559.996       95831.82949     83329.51047  21327559.538    21327564.352
  23600247.539    -7539438.22749  -5847515.37445  23600247.399    23600252.813
  24499182.766     4026936.40449   3337805.33445  24499182.708    24499188.260
  20389332.181   -22748861.99549 -17709113.19048  20389331.909    20389334.798
  24583222.377    -5358627.97849  -4146001.64345  24583221.800    24583230.358
  20628445.706    -7473254.64749  -5648453.47947  20628445.315    20628447.853
  22693672.605    10657514.25349   8312728.62346  22693672.557    22693678.383
  22285725.834    -8910943.89849  -6924780.90346  22285726.053    22285730.373
  20839194.832   -22536025.27149 -17543345.80447  20839194.306    20839198.745
  21395785.658   -18031260.95249 -13486273.68247  21395785.276    21395789.927
  24894002.743    -5845390.07549  -4547179.63945  24894002.270    24894009.615
  23933339.745    -7321471.41549  -5681943.62845  23933339.473    23933344.967
 03  6  5 18 49  0.0000000  0 12G17G 3G29G18G14G21G 6G26G15G23G 2G16
  21334568.215      132660.18349    112026.90547  21334567.746    21334572.573
  23583725.343    -7626262.39449  -5915170.51445  23583725.157    23583730.541
  24515957.518     4115087.76049   3406494.62945  24515957.406    24515962.839
  20388433.109   -22753586.72049 -17712794.78948  20388432.822    20388435.683
  24561475.841    -5472905.62949  -4235048.99645  24561475.395    24561483.751
  20631804.417    -7455604.44649  -5634700.08247  20631804.039    20631806.569
  22712666.212    10757325.52249   8390503.51846  22712666.168    22712671.994
  22299212.055    -8840073.48949  -6869557.23046  22299212.276    22299216.585
  20830551.946   -22581444.11449 -17578737.08047  20830551.409    20830555.812
  21388775.226   -18068100.84249 -13514980.06547  21388774.849    21388779.470
  24896869.613    -5830325.55249  -4535441.11345  24896869.096    24896876.315
  23943789.526    -7266558.45949  -5639154.37945  23943789.200    23943794.509
 03  6  5 18 49 30.0000000  0 12G17G 3G29G18G14G21G 6G26G15G23G 2G16
  21341624.594      169741.74149    140921.59747  21341624.151    21341628.987
  23567259.999    -7712788.28449  -5982593.22945  23567259.736    23567265.174
  24532785.123     4203516.56649   3475400.16645  24532784.936    24532790.355
  20387605.439   -22757936.26449 -17716184.04148  20387605.135    20387608.002
  24539731.575    -5587171.16449  -4324086.89445  24539731.178    24539739.555
  20635217.790    -7437666.96449  -5620722.83747  20635217.416    20635219.935
  22731706.556    10857382.82649   8468470.12946  22731706.447    22731712.417
  22312797.288    -8768683.24049  -6813928.49646  22312797.452    22312801.750
  20821948.754   -22626653.98349 -17613965.53547  20821948.215    20821952.638
  21381828.110   -18104607.94549 -13543427.13847  21381827.739    21381832.345
  24899806.194    -5814893.97449  -4523416.59845  24899805.654    24899812.914
  23954298.542    -7211333.45749  -5596122.04445  23954298.294    23954303.656
 03  6  5 18 50  0.0000000  0 12G17G 3G29G18G14G21G 6G26G15G23G 2G16
  21348729.325      207077.13349    170014.08247  21348728.873    21348733.740
  23550851.733    -7799013.14449  -6049781.38545  23550851.615    23550857.062
  24549665.136     4292220.96349   3544520.44245  24549665.001    24549670.222
  20386849.007   -22761911.21949 -17719281.41048  20386848.718    20386851.580
  24517990.231    -5701421.61549  -4413113.04545  24517989.779    24517998.186
  20638686.042    -7419441.30949  -5606521.04347  20638685.655    20638688.172
  22750793.189    10957684.12449   8546626.86046  22750793.154    22750799.186
  22326480.921    -8696775.41749  -6757896.46846  22326481.069    22326485.393
  20813385.567   -22671653.65449 -17649030.21147  20813385.034    20813389.476
  21374944.293   -18140782.37149 -13571614.98447  21374943.934    21374948.552
  24902812.495    -5799096.23249  -4511106.75245  24902811.872    24902819.111
  23964866.550    -7155799.17949  -5552848.66345  23964866.139    23964871.596
 03  6  5 18 50 30.0000000  0 12G17G 3G29G18G14G21G 6G26G15G23G 2G16
  21355882.415      244666.80749    199304.71047  21355881.981    21355886.823
  23534501.373    -7884934.60449  -6116733.15045  23534501.305    23534506.713
  24566596.950     4381197.86449   3613852.99745  24566596.819    24566602.157
  20386163.691   -22765512.77149 -17722087.81648  20386163.383    20386166.277
  24496252.403    -5815654.51049  -4502125.59745  24496251.899    24496260.338
  20642209.263    -7400926.95749  -5592094.29347  20642208.866    20642211.349
  22769925.844    11058226.94349   8624971.78646  22769925.838    22769931.928
  22340262.515    -8624352.69049  -6701463.20946  22340262.678    22340266.991
  20804862.592   -22716442.04549 -17683930.23747  20804862.064    20804866.517
  21368123.680   -18176624.79149 -13599544.12947  21368123.316    21368127.946
  24905888.098    -5782934.33649  -4498513.12945  24905887.483    24905894.693
  23975492.603    -7099958.53549  -5509336.58245  23975492.202    23975497.798
 03  6  5 18 51  0.0000000  0 12G17G 3G29G18G14G21G 6G26G15G23G 2G16
  21363083.932      282511.01249    228793.67147  21363083.495    21363088.346
  23518209.051    -7970550.44049  -6183446.70845  23518209.063    23518214.538
  24583580.190     4470444.81549   3683395.98745  24583579.921    24583585.296
  20385549.203   -22768741.85949 -17724603.98848  20385548.898    20385551.805
  24474518.258    -5929867.58249  -4591122.67645  24474517.774    24474526.034
  20645787.445    -7382123.65549  -5577442.38547  20645787.049    20645789.506
  22789104.130    11159008.70249   8703502.90346  22789104.101    22789110.215
  22354141.522    -8551418.03549  -6644631.04146  22354141.710    22354146.016
  20796380.024   -22761018.30049 -17718664.96047  20796379.476    20796383.933
  21361366.195   -18212135.91149 -13627215.12047  21361365.814    21361370.438
  24909032.666    -5766409.72349  -4485636.87045  24909032.046    24909039.427
  23986176.512    -7043814.26149  -5465587.88545  23986176.195    23986181.869
 03  6  5 18 51 30.0000000  0 12G17G 3G29G18G14G21G 6G26G15G23G 2G16
  21370334.014      320610.38149    258481.46847  21370333.596    21370338.467
  23501975.571    -8055858.15849  -6249920.22245  23501975.442    23501980.986
  24600614.326     4559959.25049   3753147.42045  24600614.029    24600619.427
  20385005.383   -22771599.65549 -17726830.83848  20385005.085    20385007.993
  24452788.372    -6044058.18749  -4680102.26845  24452787.867    24452796.038
  20649420.763    -7363030.50549  -5562564.62347  20649420.344    20649422.792
  22808327.453    11260027.05849   8782218.37746  22808327.333    22808333.496
  22368117.427    -8477974.00249  -6587401.95846  22368117.604    22368121.953
  20787938.057   -22805381.11749 -17753233.37247  20787937.520    20787941.958
  21354671.607   -18247316.25349 -13654628.36447  21354671.219    21354675.818
  24912245.954    -5749523.71549  -4472479.02245  24912245.431    24912252.873
  23996917.785    -6987369.11649  -5421604.75245  23996917.660    23996923.149
 03  6  5 18 52  0.0000000  0 12G17G 3G29G18G14G21G 6G26G15G23G 2G16
  21377632.827      358965.54649    288368.58047  21377632.373    21377637.262
  23485800.991    -8140855.18749  -6316151.61345  23485800.958    23485806.644
  24617698.880     4649738.85149   3823105.53845  24617698.502    24617703.931
  20384532.089   -22774086.91949 -17728768.96948  20384531.762    20384534.659
  24431063.217    -6158223.78549  -4769062.33445  24431062.768    24431070.937
  20653109.377    -7343646.82949  -5547460.48047  20653108.970    20653111.377
  22827595.308    11361279.77749   8861116.46046  22827595.175    22827601.363
  22382189.836    -8404023.16149  -6529777.96246  22382189.982    22382194.337
  20779536.924   -22849529.30249 -17787634.55347  20779536.376    20779540.810
  21348039.888   -18282166.17649 -13681784.11947  21348039.500    21348044.105
  24915527.831    -5732277.82649  -4459040.75345  24915527.349    24915534.726
  24007715.641    -6930626.01649  -5377389.47345  24007715.554    24007721.045
 03  6  5 18 52 30.0000000  0 12G17G 3G29G18G14G21G 6G26G15G23G 2G16
  21384980.402      397577.08049    318455.46647  21384979.936    21384984.840
  23469686.258    -8225539.23849  -6382139.18245  23469686.154    23469691.702
  24634833.336     4739781.04849   3893268.19345  24634832.960    24634838.564
  20384129.091   -22776204.73249 -17730419.21748  20384128.781    20384131.656
  24409343.197    -6272361.51249  -4858000.65245  24409342.874    24409351.047
  20656853.371    -7323972.28749  -5532129.68747  20656852.938    20656855.330
  22846907.211    11462764.21449   8940195.11946  22846907.115    22846913.305
  22396358.124    -8329568.28249  -6471761.21446  22396358.314    22396362.666
  20771176.844   -22893461.86949 -17821867.71547  20771176.284    20771180.688
  21341470.894   -18316686.29049 -13708682.89047  21341470.507    21341475.126
  24918877.713    -5714673.89449  -4445323.48145  24918877.330    24918884.663
  24018569.845    -6873587.74449  -5332944.15845  24018569.700    24018575.091
